[[{"header":{"parameterUnit":"m.s-1","parameterCategory":1,"la1":30.6,"la2":29.2853,"lo1":-89.7004,"lo2":-87.6739,"dy":0.0162,"dx":0.0183,"nx":112,"ny":82,"refTime":"2023-04-23T06:00:00:Z","depth":0,"parameterNumber":2,"parameterNumberName":"U-component_of_WINDS"},"data":[0.0,0.0,0.0,0.0,0.0,0.0,0.0,0.0,0.0,0.0,0.0,0.0,0.0,0.0,0.0,0.0,0.0,0.0,0.0,0.0,0.0,0.0,0.0,0.0,0.0,0.0,0.0,0.0,0.0,0.0,0.0,0.0,0.0,0.0,0.0,0.0,0.0,0.0,0.0,0.0,0.0,0.0,0.0,0.0,0.0,0.0,0.0,0.0,0.0,0.0,0.0,0.0,0.0,0.0,0.0,0.0,0.0,0.0,0.0,0.0,0.0,0.0,0.0,0.0,0.0,0.0,0.0,0.0,0.0,0.0,0.0,0.0,0.0,0.0,0.0,0.0,0.0,0.0,0.0,0.0,0.0,0.0,0.0,0.0,0.0,0.0,0.0,0.0,0.0,0.0,-5.3206,-5.3206,-5.3206,-5.3206,-5.3206,-5.3206,-5.3359,-5.3777,0.0,0.0,0.0,0.0,0.0,0.0,0.0,0.0,0.0,0.0,0.0,0.0,0.0,0.0,0.0,0.0,0.0,0.0,0.0,0.0,0.0,0.0,0.0,0.0,0.0,0.0,0.0,0.0,0.0,0.0,0.0,0.0,0.0,0.0,0.0,0.0,0.0,0.0,0.0,0.0,0.0,0.0,0.0,0.0,0.0,0.0,0.0,0.0,0.0,0.0,0.0,0.0,0.0,0.0,0.0,0.0,0.0,0.0,0.0,0.0,0.0,0.0,0.0,0.0,0.0,0.0,0.0,0.0,0.0,0.0,0.0,0.0,0.0,0.0,0.0,0.0,0.0,0.0,0.0,0.0,0.0,0.0,0.0,0.0,0.0,0.0,0.0,0.0,0.0,0.0,0.0,0.0,0.0,0.0,0.0,0.0,0.0,0.0,0.0,0.0,0.0,0.0,0.0,0.0,-5.3206,-5.3206,-5.3206,-5.3206,-5.3206,-5.3206,-5.3359,-5.3777,0.0,0.0,0.0,0.0,0.0,0.0,0.0,0.0,0.0,0.0,0.0,0.0,0.0,0.0,0.0,0.0,0.0,0.0,0.0,0.0,0.0,0.0,0.0,0.0,0.0,0.0,0.0,0.0,0.0,0.0,0.0,0.0,0.0,0.0,0.0,0.0,0.0,0.0,0.0,0.0,0.0,0.0,0.0,0.0,0.0,0.0,0.0,0.0,0.0,0.0,0.0,0.0,0.0,0.0,0.0,0.0,0.0,0.0,0.0,0.0,0.0,0.0,0.0,0.0,0.0,0.0,0.0,0.0,0.0,0.0,0.0,0.0,0.0,0.0,0.0,0.0,0.0,0.0,0.0,0.0,0.0,0.0,0.0,0.0,0.0,0.0,0.0,0.0,0.0,0.0,0.0,0.0,0.0,0.0,0.0,0.0,0.0,0.0,0.0,0.0,0.0,0.0,0.0,-5.3206,-5.3206,-5.3206,-5.3206,-5.3206,-5.3206,-5.3206,-5.3272,-5.3444,-5.3683,0.0,0.0,0.0,0.0,0.0,0.0,0.0,0.0,0.0,0.0,0.0,0.0,0.0,0.0,0.0,0.0,0.0,0.0,0.0,0.0,0.0,0.0,0.0,0.0,0.0,0.0,0.0,0.0,0.0,0.0,0.0,0.0,0.0,0.0,0.0,0.0,0.0,0.0,0.0,0.0,0.0,0.0,0.0,0.0,0.0,0.0,0.0,0.0,0.0,0.0,0.0,0.0,0.0,0.0,0.0,0.0,0.0,0.0,0.0,0.0,0.0,0.0,0.0,0.0,0.0,0.0,0.0,0.0,0.0,0.0,0.0,0.0,0.0,0.0,0.0,0.0,0.0,0.0,0.0,0.0,0.0,0.0,0.0,0.0,0.0,0.0,0.0,0.0,0.0,0.0,0.0,0.0,0.0,0.0,0.0,0.0,0.0,0.0,0.0,0.0,0.0,0.0,-5.3206,-5.3206,-5.3206,-5.3206,-5.3206,-5.3206,-5.3206,-5.3206,-5.3206,-5.3484,0.0,0.0,0.0,0.0,0.0,0.0,0.0,0.0,0.0,0.0,0.0,0.0,0.0,0.0,0.0,0.0,0.0,0.0,0.0,0.0,0.0,0.0,0.0,0.0,0.0,0.0,0.0,0.0,0.0,0.0,0.0,0.0,0.0,0.0,0.0,0.0,0.0,0.0,0.0,0.0,0.0,0.0,0.0,0.0,0.0,0.0,0.0,0.0,0.0,0.0,0.0,0.0,0.0,0.0,0.0,0.0,0.0,0.0,0.0,0.0,0.0,0.0,0.0,0.0,0.0,0.0,0.0,0.0,0.0,0.0,0.0,0.0,0.0,0.0,0.0,0.0,0.0,0.0,0.0,0.0,0.0,0.0,0.0,0.0,0.0,0.0,0.0,0.0,0.0,0.0,0.0,0.0,0.0,0.0,0.0,0.0,0.0,0.0,0.0,0.0,0.0,0.0,-5.3206,-5.3206,-5.3206,-5.3206,-5.3206,-5.3206,-5.3206,-5.3206,-5.3206,-5.3248,0.0,0.0,0.0,0.0,0.0,0.0,0.0,0.0,0.0,0.0,0.0,0.0,0.0,0.0,0.0,0.0,0.0,0.0,0.0,0.0,0.0,0.0,0.0,0.0,0.0,0.0,0.0,0.0,0.0,0.0,0.0,0.0,0.0,0.0,0.0,0.0,0.0,0.0,0.0,0.0,0.0,0.0,0.0,0.0,0.0,0.0,0.0,0.0,0.0,0.0,0.0,0.0,0.0,0.0,0.0,0.0,0.0,0.0,0.0,0.0,0.0,0.0,0.0,0.0,0.0,0.0,0.0,0.0,0.0,0.0,0.0,0.0,0.0,0.0,0.0,0.0,0.0,0.0,0.0,0.0,0.0,0.0,0.0,0.0,0.0,0.0,0.0,0.0,0.0,0.0,0.0,0.0,0.0,0.0,0.0,0.0,0.0,0.0,0.0,0.0,0.0,0.0,-5.3206,-5.3206,-5.3206,-5.3206,-5.3206,-5.3206,-5.3206,-5.3206,-5.3206,0.0,0.0,0.0,0.0,0.0,0.0,0.0,0.0,0.0,0.0,0.0,0.0,0.0,0.0,0.0,0.0,0.0,0.0,0.0,0.0,0.0,0.0,0.0,0.0,0.0,0.0,0.0,0.0,0.0,0.0,0.0,0.0,0.0,0.0,0.0,0.0,0.0,0.0,0.0,0.0,0.0,0.0,0.0,0.0,0.0,0.0,0.0,0.0,0.0,0.0,0.0,0.0,0.0,0.0,0.0,0.0,0.0,0.0,0.0,0.0,0.0,0.0,0.0,0.0,0.0,0.0,0.0,0.0,0.0,0.0,0.0,0.0,0.0,0.0,0.0,0.0,0.0,0.0,0.0,0.0,0.0,0.0,0.0,0.0,0.0,0.0,0.0,0.0,0.0,0.0,0.0,0.0,0.0,0.0,0.0,0.0,0.0,0.0,0.0,0.0,0.0,0.0,-5.3206,-5.3206,-5.3206,-5.3206,-5.3206,-5.3206,-5.3206,-5.3206,-5.3206,-5.3206,0.0,0.0,0.0,0.0,0.0,0.0,0.0,0.0,0.0,0.0,0.0,0.0,0.0,0.0,0.0,0.0,0.0,0.0,0.0,0.0,0.0,0.0,0.0,0.0,0.0,0.0,0.0,0.0,0.0,0.0,0.0,0.0,0.0,0.0,0.0,0.0,0.0,0.0,0.0,0.0,0.0,0.0,0.0,0.0,0.0,0.0,0.0,0.0,0.0,0.0,0.0,0.0,0.0,0.0,0.0,0.0,0.0,0.0,0.0,0.0,0.0,0.0,0.0,0.0,0.0,0.0,0.0,0.0,0.0,0.0,0.0,0.0,0.0,0.0,0.0,0.0,0.0,0.0,0.0,0.0,0.0,0.0,0.0,0.0,0.0,0.0,0.0,0.0,0.0,0.0,0.0,0.0,0.0,0.0,0.0,0.0,0.0,0.0,0.0,0.0,0.0,0.0,-5.323,-5.3206,-5.3206,-5.3206,-5.3206,-5.3206,-5.3206,-5.3206,-5.3206,0.0,0.0,0.0,0.0,0.0,0.0,0.0,0.0,0.0,0.0,0.0,0.0,0.0,0.0,0.0,0.0,0.0,0.0,0.0,0.0,0.0,0.0,0.0,0.0,0.0,0.0,0.0,0.0,0.0,0.0,0.0,0.0,0.0,0.0,0.0,0.0,0.0,0.0,0.0,0.0,0.0,0.0,0.0,0.0,0.0,0.0,0.0,0.0,0.0,0.0,0.0,0.0,0.0,0.0,0.0,0.0,0.0,0.0,0.0,0.0,0.0,0.0,0.0,0.0,0.0,0.0,0.0,0.0,0.0,0.0,0.0,0.0,0.0,0.0,0.0,0.0,0.0,0.0,0.0,0.0,0.0,0.0,0.0,0.0,0.0,0.0,0.0,0.0,0.0,0.0,0.0,0.0,0.0,0.0,0.0,0.0,0.0,0.0,0.0,0.0,0.0,0.0,0.0,-5.323,-5.3206,-5.3206,-5.3206,-5.3206,-5.3206,-5.3206,-5.3206,-5.3336,-5.3604,0.0,0.0,0.0,0.0,0.0,0.0,0.0,0.0,0.0,0.0,0.0,0.0,0.0,0.0,0.0,0.0,0.0,0.0,0.0,0.0,0.0,0.0,0.0,0.0,0.0,0.0,0.0,0.0,0.0,0.0,0.0,0.0,0.0,0.0,0.0,0.0,0.0,0.0,0.0,0.0,0.0,0.0,0.0,0.0,0.0,0.0,0.0,0.0,0.0,0.0,0.0,0.0,0.0,0.0,0.0,0.0,0.0,0.0,0.0,0.0,0.0,0.0,0.0,0.0,0.0,0.0,0.0,0.0,0.0,0.0,0.0,0.0,0.0,0.0,0.0,0.0,0.0,0.0,0.0,0.0,0.0,0.0,0.0,0.0,0.0,0.0,0.0,0.0,0.0,0.0,0.0,0.0,0.0,0.0,0.0,0.0,0.0,0.0,0.0,0.0,0.0,0.0,-5.3484,-5.3295,-5.3206,-5.3206,-5.3206,-5.3206,-5.3206,-5.3206,-5.3295,-5.3545,0.0,0.0,0.0,0.0,0.0,0.0,0.0,0.0,0.0,0.0,0.0,0.0,0.0,0.0,0.0,0.0,0.0,0.0,0.0,0.0,0.0,0.0,0.0,0.0,0.0,0.0,0.0,0.0,0.0,0.0,0.0,0.0,0.0,0.0,0.0,0.0,0.0,0.0,0.0,0.0,0.0,0.0,0.0,0.0,0.0,0.0,0.0,0.0,0.0,0.0,0.0,0.0,0.0,0.0,0.0,0.0,0.0,0.0,0.0,0.0,0.0,0.0,0.0,0.0,0.0,0.0,0.0,0.0,0.0,0.0,0.0,0.0,0.0,0.0,0.0,0.0,0.0,0.0,0.0,0.0,0.0,0.0,0.0,0.0,0.0,0.0,0.0,0.0,0.0,0.0,0.0,0.0,0.0,0.0,0.0,0.0,0.0,0.0,0.0,0.0,0.0,0.0,-5.3851,-5.3444,-5.3206,-5.3206,-5.3206,-5.3206,-5.3206,-5.3206,-5.3206,-5.323,0.0,0.0,0.0,0.0,0.0,0.0,0.0,0.0,0.0,0.0,0.0,0.0,0.0,0.0,0.0,0.0,0.0,0.0,0.0,0.0,0.0,0.0,0.0,0.0,0.0,0.0,0.0,0.0,0.0,0.0,0.0,0.0,0.0,0.0,0.0,0.0,0.0,0.0,0.0,0.0,0.0,0.0,0.0,0.0,0.0,0.0,0.0,0.0,0.0,0.0,0.0,0.0,0.0,0.0,0.0,0.0,0.0,0.0,0.0,0.0,-5.5703,-5.5703,0.0,0.0,0.0,0.0,0.0,0.0,0.0,0.0,0.0,0.0,0.0,0.0,0.0,0.0,0.0,0.0,0.0,0.0,0.0,0.0,0.0,0.0,0.0,0.0,0.0,0.0,0.0,0.0,0.0,0.0,0.0,0.0,0.0,0.0,0.0,0.0,0.0,0.0,0.0,0.0,-5.3851,-5.3444,-5.3206,-5.3206,-5.3206,-5.3206,-5.3206,-5.3206,-5.3336,-5.3663,-5.3444,0.0,0.0,0.0,0.0,0.0,0.0,0.0,0.0,0.0,0.0,0.0,0.0,0.0,0.0,0.0,0.0,0.0,0.0,0.0,0.0,0.0,0.0,0.0,0.0,0.0,0.0,0.0,0.0,0.0,0.0,0.0,0.0,0.0,0.0,0.0,0.0,0.0,0.0,0.0,0.0,0.0,0.0,0.0,0.0,0.0,0.0,0.0,0.0,0.0,0.0,0.0,0.0,0.0,0.0,0.0,0.0,0.0,0.0,0.0,-5.5703,-5.5703,0.0,0.0,0.0,0.0,0.0,0.0,0.0,0.0,0.0,0.0,0.0,0.0,0.0,0.0,0.0,0.0,0.0,0.0,0.0,0.0,0.0,0.0,0.0,0.0,0.0,0.0,0.0,0.0,0.0,0.0,0.0,0.0,0.0,0.0,0.0,0.0,0.0,0.0,0.0,0.0,-5.4153,-5.3584,-5.3206,-5.3206,-5.3206,-5.3206,-5.3206,-5.3206,-5.3295,-5.3524,-5.3524,0.0,0.0,0.0,0.0,0.0,0.0,0.0,0.0,0.0,0.0,0.0,0.0,0.0,0.0,0.0,0.0,0.0,0.0,0.0,0.0,0.0,0.0,0.0,0.0,0.0,0.0,0.0,0.0,0.0,0.0,0.0,0.0,0.0,0.0,0.0,0.0,0.0,0.0,0.0,0.0,0.0,0.0,0.0,0.0,0.0,0.0,0.0,0.0,0.0,0.0,0.0,0.0,0.0,-5.5703,-5.5703,-5.5703,-5.5703,-5.5703,-5.5703,-5.5703,-5.5703,-5.5703,-5.5703,0.0,0.0,0.0,0.0,0.0,0.0,0.0,0.0,0.0,0.0,0.0,0.0,0.0,0.0,0.0,0.0,0.0,0.0,0.0,0.0,0.0,0.0,-5.3833,-5.3502,-5.3682,-5.3905,-5.3814,0.0,0.0,0.0,0.0,0.0,0.0,0.0,0.0,0.0,0.0,0.0,-5.4597,-5.3851,-5.3336,-5.34,-5.3359,-5.3295,-5.3295,-5.323,-5.3206,-5.3206,-5.3505,-5.3565,0.0,0.0,0.0,0.0,0.0,0.0,0.0,0.0,0.0,0.0,0.0,0.0,0.0,0.0,0.0,0.0,0.0,0.0,0.0,0.0,0.0,0.0,0.0,0.0,0.0,0.0,0.0,0.0,0.0,0.0,0.0,0.0,-5.5729,-5.5857,0.0,0.0,0.0,0.0,0.0,0.0,0.0,0.0,0.0,0.0,0.0,0.0,0.0,-5.5859,-5.5684,-5.5703,-5.5703,-5.5703,-5.5703,-5.5703,-5.5703,-5.5703,-5.5703,-5.5703,-5.5703,0.0,-5.5703,-5.5703,0.0,0.0,0.0,0.0,0.0,0.0,0.0,0.0,0.0,0.0,0.0,0.0,0.0,0.0,0.0,0.0,0.0,0.0,0.0,0.0,0.0,0.0,-5.4387,-5.434,-5.4373,-5.4288,-5.3888,-5.4153,-5.4503,-5.4503,-5.4535,-5.4671,0.0,0.0,0.0,0.0,0.0,0.0,-5.4979,-5.427,-5.3888,-5.4274,-5.396,-5.372,-5.372,-5.3381,-5.3206,-5.3206,-5.323,-5.3422,-5.372,-5.3484,0.0,0.0,0.0,0.0,0.0,0.0,0.0,0.0,0.0,0.0,0.0,0.0,0.0,0.0,0.0,0.0,0.0,0.0,0.0,0.0,0.0,0.0,0.0,0.0,0.0,0.0,0.0,0.0,0.0,-5.5703,-5.5749,-5.5872,-5.6078,-5.6242,0.0,0.0,0.0,0.0,0.0,0.0,0.0,0.0,0.0,-5.6222,-5.6103,-5.5939,-5.5684,-5.5703,-5.5703,-5.5703,-5.5703,-5.5703,-5.5703,-5.5703,-5.5703,-5.5703,-5.5703,-5.5703,-5.5703,-5.5703,-5.5577,-5.5356,0.0,0.0,0.0,0.0,-5.476,-5.4701,-5.4255,-5.4118,-5.4118,-5.4118,0.0,0.0,0.0,0.0,0.0,0.0,0.0,-5.5399,-5.516,-5.4979,-5.476,-5.4547,-5.4503,-5.442,-5.4221,-5.4355,-5.442,-5.4153,-5.4322,-5.4628,-5.5034,-5.5088,0.0,0.0,0.0,-5.4895,-5.5061,-5.456,-5.4255,-5.4471,-5.4322,-5.4187,-5.4187,-5.3796,-5.3545,-5.3545,-5.3336,-5.3272,-5.3444,-5.3505,-5.3833,0.0,0.0,0.0,0.0,0.0,0.0,0.0,0.0,0.0,0.0,0.0,0.0,0.0,0.0,0.0,0.0,0.0,0.0,0.0,0.0,0.0,0.0,0.0,0.0,0.0,0.0,0.0,0.0,-5.5703,-5.5749,-5.5872,-5.6078,-5.6242,0.0,0.0,0.0,0.0,0.0,0.0,-5.6601,-5.6561,-5.6458,-5.627,-5.6212,-5.6057,-5.5749,-5.5749,-5.5728,-5.5703,-5.5703,-5.5703,-5.5703,-5.5703,-5.5703,-5.5703,-5.5703,-5.5703,-5.5703,-5.5703,-5.5446,-5.5088,-5.5088,-5.4848,-5.4503,-5.4373,-5.4322,-5.4255,-5.3796,-5.3663,-5.3663,-5.3777,-5.3941,-5.4251,-5.4905,0.0,0.0,0.0,0.0,-5.564,-5.5331,-5.5237,-5.5186,-5.4895,-5.4809,-5.476,-5.4689,-5.4731,-5.464,-5.4083,-5.4153,-5.4452,-5.4876,-5.4848,0.0,-5.5466,-5.5212,-5.5007,-5.5212,-5.4705,-5.4368,-5.4505,-5.4398,-5.4318,-5.4318,-5.4123,-5.3977,-5.3977,-5.3584,-5.3359,-5.3359,-5.3624,-5.4013,-5.4503,0.0,0.0,0.0,0.0,0.0,0.0,0.0,0.0,0.0,0.0,0.0,0.0,0.0,0.0,0.0,0.0,0.0,0.0,0.0,0.0,0.0,0.0,0.0,0.0,0.0,0.0,0.0,0.0,0.0,-5.5872,-5.6078,0.0,0.0,0.0,0.0,-5.6601,-5.6601,-5.6601,-5.6601,-5.6484,-5.6391,-5.6386,-5.6279,-5.609,-5.5888,-5.5888,-5.5825,-5.5703,-5.5703,-5.5703,-5.5703,-5.5703,-5.5703,-5.5703,-5.5703,-5.5703,-5.5703,-5.5703,-5.5446,-5.5088,-5.5088,-5.4848,-5.4439,-5.3977,-5.3851,-5.3796,-5.3359,-5.3248,-5.3295,-5.3701,-5.435,-5.5034,-5.5088,-5.5375,0.0,0.0,-5.5703,-5.5703,-5.5682,-5.5662,-5.5662,-5.564,-5.564,-5.5535,-5.516,-5.5375,-5.5399,-5.4609,-5.4118,-5.3977,-5.4452,0.0,-5.4168,-5.4988,-5.4809,-5.4809,-5.5577,-5.4599,-5.4002,-5.4466,-5.4096,-5.3834,-5.3834,-5.4216,-5.4452,-5.4452,-5.4013,-5.3777,-5.3777,-5.3777,-5.4013,-5.4503,-5.4895,0.0,0.0,0.0,0.0,0.0,0.0,0.0,0.0,0.0,0.0,0.0,0.0,0.0,0.0,0.0,0.0,0.0,0.0,0.0,0.0,0.0,0.0,0.0,0.0,0.0,0.0,0.0,0.0,-5.6051,-5.6158,0.0,-5.6512,-5.6561,-5.6601,-5.6601,-5.6601,-5.6601,-5.6601,-5.6559,-5.6488,-5.6391,-5.6342,-5.6251,-5.609,-5.609,-5.5996,-5.5843,-5.5843,-5.577,-5.5703,-5.5703,-5.5703,-5.5703,-5.5703,-5.5703,-5.5703,-5.5703,-5.5446,-5.5061,-5.4819,-5.4628,-5.4406,-5.3682,-5.3565,-5.374,-5.3318,-5.3206,-5.3272,-5.3663,-5.4382,-5.5088,-5.5088,-5.5375,-5.5703,-5.5703,-5.5703,-5.5703,-5.5703,-5.5703,-5.5703,-5.5703,-5.5703,-5.5662,-5.5512,-5.5599,-5.5618,-5.5331,-5.4933,-5.4591,-5.4535,-5.4355,-5.4433,-5.5007,-5.4979,-5.489,-5.4929,-5.454,-5.4114,-5.3701,-5.35,-5.3395,-5.3395,-5.3575,-5.366,-5.366,-5.3516,-5.3422,-5.3422,-5.3663,-5.4013,-5.4503,-5.464,-5.4979,0.0,0.0,0.0,0.0,0.0,0.0,0.0,0.0,0.0,0.0,0.0,0.0,0.0,0.0,0.0,0.0,0.0,0.0,0.0,0.0,0.0,0.0,0.0,0.0,0.0,-5.5703,-5.5827,-5.6158,-5.6191,-5.6313,-5.6561,-5.6601,-5.6601,-5.6601,-5.6601,-5.6601,-5.6601,-5.6601,-5.656,-5.6462,-5.6481,-5.6391,-5.6279,-5.6279,-5.6172,-5.601,-5.5936,-5.584,-5.5769,-5.5707,-5.5703,-5.5703,-5.5703,-5.5703,-5.5703,-5.5703,-5.5535,-5.5262,-5.4867,-5.4609,-5.4406,-5.3682,-5.3565,-5.374,-5.3318,-5.3502,-5.387,-5.3977,-5.4621,-5.5306,-5.5306,-5.5489,-5.5703,-5.5703,-5.5703,-5.5703,-5.5703,-5.5703,-5.5703,-5.5703,-5.5703,-5.5703,-5.5703,-5.5703,-5.5703,-5.5703,-5.5375,-5.5007,-5.475,-5.4597,-5.4546,-5.4653,-5.4669,-5.453,-5.4103,-5.3799,-5.3395,-5.2818,-5.276,-5.276,-5.276,-5.3028,-5.3262,-5.3383,-5.3286,-5.3267,-5.3422,-5.3796,-5.4187,-5.4503,-5.4609,-5.5034,-5.5703,0.0,0.0,0.0,0.0,0.0,0.0,0.0,0.0,0.0,0.0,0.0,0.0,0.0,0.0,0.0,0.0,0.0,0.0,0.0,0.0,0.0,0.0,0.0,-5.5726,-5.5703,-5.5827,-5.6158,-5.6191,-5.6313,-5.6561,-5.6601,-5.6601,-5.6601,-5.6601,-5.6601,-5.6601,-5.6601,-5.6601,-5.6601,-5.6601,-5.6538,-5.6411,-5.6411,-5.6335,-5.6202,-5.601,-5.5904,-5.5888,-5.575,-5.5703,-5.5703,-5.5703,-5.5703,-5.5703,-5.5703,-5.5703,-5.5662,-5.5256,-5.4867,-5.4484,-5.4013,-5.3814,-5.3758,-5.3359,-5.4067,-5.5007,-5.464,-5.5034,-5.5684,-5.5703,-5.5703,-5.5703,-5.5703,-5.5703,-5.5703,-5.5703,-5.5703,-5.5703,-5.5703,-5.5703,-5.5703,-5.5703,-5.5703,-5.5703,-5.5703,-5.5399,-5.5115,-5.5088,-5.4741,-5.4318,-5.3891,-5.3765,0.0,-5.3219,-5.2433,-5.1895,-5.1875,-5.1875,-5.1875,-5.1875,-5.2644,-5.3283,-5.3696,-5.3383,-5.3339,-5.374,-5.4255,-5.4503,-5.4535,-5.4924,-5.5306,-5.5703,0.0,0.0,0.0,0.0,0.0,0.0,0.0,0.0,0.0,0.0,0.0,0.0,0.0,0.0,0.0,0.0,0.0,0.0,0.0,0.0,0.0,-5.5896,-5.5729,-5.5724,-5.5703,-5.5827,-5.6158,-5.6191,-5.6313,-5.6561,-5.6601,-5.6601,-5.6601,-5.6601,-5.6601,-5.6601,-5.6601,-5.6601,-5.6601,-5.6601,-5.6581,-5.6558,-5.6558,-5.6484,-5.6335,-5.6183,-5.6038,-5.5888,-5.575,-5.5703,-5.5703,-5.5703,-5.5703,-5.5703,-5.5703,-5.5703,-5.5662,-5.5256,-5.5212,-5.5282,-5.4579,-5.4288,-5.4288,-5.4171,-5.4355,-5.4701,-5.4895,-5.5088,-5.5306,-5.5599,-5.5703,-5.5703,-5.5703,-5.5703,-5.5703,-5.5703,-5.5703,-5.5703,-5.5703,-5.5703,-5.5703,-5.5703,-5.5703,-5.5703,-5.5703,-5.5599,-5.5446,-5.516,-5.4493,-5.3944,-5.3823,-5.3289,-5.2766,-5.2315,-5.2049,-5.1683,-5.1087,-5.1029,-5.1029,-5.1029,-5.1247,-5.157,-5.1974,-5.2192,-5.2474,-5.2846,-5.3917,-5.476,-5.5375,-5.5489,-5.5599,0.0,0.0,0.0,0.0,0.0,0.0,0.0,0.0,0.0,0.0,0.0,0.0,0.0,0.0,0.0,0.0,0.0,0.0,0.0,0.0,0.0,0.0,-5.591,-5.5808,-5.5896,-5.5844,-5.591,-5.6242,-5.6269,-5.6374,-5.6581,-5.6601,-5.6601,-5.6601,-5.6601,-5.6601,-5.6601,-5.6601,-5.6601,-5.6601,-5.6601,-5.6601,-5.6601,-5.6601,-5.656,-5.6484,-5.6297,-5.6146,-5.6024,-5.5808,-5.5703,-5.5703,-5.5703,-5.5703,-5.5703,-5.5703,-5.5703,-5.5662,0.0,0.0,0.0,0.0,-5.4731,-5.475,-5.4566,-5.4701,-5.5007,-5.5061,-5.5212,-5.5399,-5.564,-5.5703,-5.5703,-5.5703,-5.5703,-5.5703,-5.5703,-5.5703,-5.5703,-5.5703,-5.5703,-5.5703,-5.5703,-5.5703,-5.5703,-5.5703,-5.5434,0.0,-5.4901,-5.4432,-5.3857,-5.3111,-5.2613,-5.2085,-5.149,-5.1395,-5.1221,-5.0741,-5.0702,-5.0702,-5.0702,-5.0688,0.0,0.0,0.0,-5.1877,-5.2772,-5.3903,0.0,0.0,0.0,-5.5703,-5.5703,-5.5703,0.0,0.0,-5.5472,-5.5478,0.0,0.0,0.0,0.0,0.0,0.0,0.0,0.0,0.0,0.0,0.0,0.0,0.0,0.0,0.0,0.0,-5.5932,-5.601,-5.6191,-5.6078,-5.6071,-5.6355,-5.6411,-5.6454,-5.6582,-5.6601,-5.6601,-5.6601,-5.6601,-5.6601,-5.6601,-5.6601,0.0,0.0,0.0,-5.6601,-5.6601,-5.6601,-5.6601,-5.6601,-5.6335,-5.6212,-5.6181,-5.588,-5.5726,-5.5703,-5.5703,-5.5703,-5.5703,-5.5703,-5.5703,-5.5703,-5.5703,-5.5703,-5.5662,-5.5306,-5.516,-5.5134,-5.476,0.0,0.0,-5.5282,-5.5375,-5.564,-5.5703,-5.5703,-5.5703,-5.5703,-5.5703,-5.5703,-5.5703,-5.5703,-5.5703,-5.5703,-5.5703,-5.5703,-5.5703,-5.5703,-5.5665,-5.5568,-5.4991,-5.4434,-5.4241,-5.4203,-5.3683,-5.2145,-5.1837,-5.151,-5.0779,-5.0702,-5.0702,-5.0702,-5.0702,0.0,-5.0702,-5.0663,-5.0619,-5.0629,-5.0708,-5.1468,-5.3076,-5.3949,-5.479,-5.5618,-5.564,-5.5662,-5.5703,-5.5703,-5.5703,-5.5703,-5.5703,-5.5703,0.0,0.0,0.0,0.0,0.0,0.0,0.0,0.0,0.0,0.0,0.0,0.0,0.0,0.0,0.0,-5.6301,-5.6203,-5.6183,-5.6335,-5.6335,-5.6335,-5.6386,-5.6411,-5.6454,-5.6582,-5.6601,-5.6601,-5.6601,-5.6601,-5.6601,-5.6601,-5.6601,-5.6601,-5.6601,-5.6601,-5.6601,-5.6601,-5.6601,-5.6601,-5.6601,-5.645,0.0,-5.6191,-5.5951,-5.5788,-5.5703,-5.5703,-5.5703,-5.5703,-5.5703,-5.5703,-5.5703,-5.5703,-5.5703,-5.5684,-5.5599,-5.5577,-5.5577,-5.5489,-5.5375,-5.5256,-5.5512,-5.5423,-5.5282,-5.5599,-5.5703,0.0,-5.5703,-5.5703,-5.5703,-5.5703,-5.5703,-5.5703,-5.5703,-5.5703,-5.5703,-5.5703,-5.5703,-5.5511,-5.4857,-5.4607,-5.4049,-5.2664,-5.2414,-5.2299,-5.1952,-5.1356,-5.0875,-5.0721,-5.0702,-5.0702,-5.0702,-5.0702,-5.0702,-5.0702,-5.0399,-5.0236,-5.0222,-5.0842,-5.1628,-5.2688,-5.3493,-5.4336,-5.5186,-5.5212,-5.5375,-5.5703,-5.5703,-5.5703,-5.5703,-5.5703,-5.5703,0.0,0.0,0.0,0.0,0.0,0.0,0.0,0.0,0.0,0.0,0.0,-5.6305,-5.6305,0.0,-5.6411,-5.6411,-5.6335,-5.6361,-5.6484,-5.651,-5.651,-5.651,-5.651,-5.6536,-5.6582,-5.6601,-5.6601,-5.6601,-5.6601,-5.6601,-5.6601,-5.6601,-5.6601,-5.6601,-5.6601,-5.6601,-5.6601,-5.6601,-5.6601,-5.6601,-5.6458,-5.6328,-5.6191,-5.5996,-5.5843,-5.5703,-5.5703,-5.5703,-5.5703,-5.5703,-5.5703,-5.5703,-5.5703,-5.5703,-5.5703,-5.5703,-5.5703,-5.5703,-5.5703,-5.5577,-5.5423,-5.5621,-5.5577,-5.5423,-5.564,-5.5703,-5.5703,-5.5703,-5.5703,-5.5703,-5.5703,-5.5703,-5.5703,-5.5703,-5.5703,-5.5588,-5.5184,-5.5107,-5.4857,-5.401,-5.351,-5.2933,-5.2049,-5.1568,-5.1298,-5.1298,-5.0952,-5.0702,-5.0702,-5.0702,-5.0702,-5.0702,-5.0523,-5.0483,-5.0683,-5.0159,-4.98,-4.98,-5.0169,-5.088,-5.1968,-5.2981,-5.4012,-5.5088,-5.5306,-5.5489,-5.5703,-5.5703,-5.5703,-5.5703,-5.5703,-5.5703,0.0,0.0,0.0,0.0,0.0,0.0,0.0,-5.5672,-5.584,-5.5766,-5.6032,-5.6285,-5.6212,-5.6313,-5.6416,-5.6426,-5.645,-5.6481,-5.6581,-5.6601,-5.6601,-5.6601,-5.6601,-5.6601,-5.6601,-5.6601,-5.6601,-5.6601,-5.6601,-5.6601,-5.6601,-5.6601,-5.6601,-5.6601,-5.6601,-5.6601,-5.6601,-5.6601,-5.6601,-5.6601,-5.6488,-5.6342,-5.6191,-5.6038,-5.5859,-5.5703,-5.5703,-5.5703,-5.5703,-5.5703,-5.5703,-5.5703,-5.5703,-5.5703,-5.5703,-5.5703,-5.5703,-5.5703,-5.5703,-5.5703,-5.5703,-5.5703,-5.5703,-5.5703,-5.5703,-5.5703,-5.5703,-5.5703,-5.5703,-5.5703,-5.5703,-5.5703,-5.5703,-5.5703,-5.5568,-5.528,-5.4645,-5.4376,-5.3991,-5.3126,-5.2395,-5.1856,-5.1702,-5.1125,-5.0702,-5.0702,-5.0702,-5.0702,-5.0702,-5.0702,-5.0702,-5.0702,-5.0336,-5.0225,-5.0544,-4.9924,-4.9504,-4.9504,-4.9575,-5.0157,-5.1337,-5.248,-5.3721,-5.5069,-5.5423,-5.5621,-5.5703,-5.5703,-5.5703,-5.5703,-5.5703,-5.5703,-5.3902,-5.4809,-5.4952,-5.4659,-5.4838,-5.5007,0.0,-5.5193,-5.5624,-5.5268,-5.5615,-5.601,-5.6169,-5.6313,-5.645,-5.656,-5.6581,-5.6581,-5.6601,-5.6601,-5.6601,-5.6601,-5.6601,-5.6601,-5.6601,-5.6601,-5.6601,-5.6601,-5.6601,-5.6601,-5.6601,-5.6601,-5.6601,-5.6601,-5.6601,-5.6601,-5.6601,-5.6601,-5.6601,-5.6601,-5.6581,-5.6454,-5.6191,-5.6181,-5.6005,-5.5703,-5.5703,-5.5703,-5.5703,-5.5703,-5.5703,-5.5703,-5.5703,-5.5703,-5.5703,-5.5703,-5.5703,-5.5703,-5.5703,-5.5703,-5.5703,-5.5703,-5.5703,-5.5703,-5.5703,-5.5703,-5.5703,-5.5703,-5.5703,-5.5703,-5.5703,-5.5703,-5.5703,-5.5703,-5.5145,-5.4607,-5.4511,-5.3895,-5.3087,-5.2222,-5.1972,-5.1683,-5.0952,-5.076,-5.0702,-5.0702,-5.0702,-5.0702,-5.0702,-5.0702,-5.0702,-5.0702,-5.0336,-5.0135,-5.0159,-4.9746,-4.9504,-4.9504,-4.9828,-5.0428,-5.1372,-5.2209,-5.3438,-5.5088,-5.5141,-5.5331,-5.5703,-5.5703,-5.5703,-5.5703,-5.5703,-5.5703,-5.346,-5.4591,-5.5007,-5.4597,-5.479,-5.5134,-5.5186,-5.5466,-5.5662,-5.5489,-5.5692,-5.5966,-5.6169,-5.6313,-5.643,-5.6581,-5.6601,-5.6601,-5.6601,-5.6601,-5.6561,-5.6488,-5.6484,-5.6512,-5.6582,-5.6536,-5.6512,-5.6582,-5.6536,-5.6515,-5.6601,-5.6601,-5.6601,-5.6601,-5.6601,-5.6601,-5.6601,-5.6601,-5.6601,-5.6601,-5.6601,-5.6458,-5.6191,-5.6191,-5.6035,-5.5703,-5.5703,-5.5703,-5.5703,-5.5703,-5.5703,-5.5703,-5.5703,-5.5703,-5.5703,-5.5703,-5.5703,-5.5703,-5.5703,-5.5703,-5.5703,-5.5703,-5.5703,-5.5703,-5.5703,-5.5703,-5.5703,-5.5703,-5.5703,-5.5703,-5.5703,-5.5703,-5.5568,-5.5107,-5.4741,-5.4222,-5.3222,-5.2702,-5.2202,-5.1356,-5.1202,-5.1087,-5.076,-5.0702,-5.0702,-5.0702,-5.0702,-5.0702,-5.0702,-5.0702,-5.0523,-5.0043,-5.0068,-5.0019,-4.9773,-4.9608,-4.9589,-4.9827,-4.9795,-5.0341,-5.1686,-5.2296,-5.3376,-5.5069,-5.5331,-5.5535,-5.5703,-5.5703,-5.5703,-5.5703,-5.5703,-5.5703,-5.3386,-5.4369,-5.4848,-5.4547,-5.4701,-5.5061,-5.5577,-5.5703,-5.5703,-5.5703,-5.5826,-5.5966,-5.6169,-5.6313,-5.643,-5.6581,-5.6601,-5.6582,-5.6559,-5.6538,-5.6507,-5.6368,-5.6335,-5.638,-5.6484,-5.6391,-5.638,-5.6484,-5.6391,-5.6386,-5.6488,-5.6515,-5.6538,-5.6538,-5.6581,-5.6601,-5.6601,-5.6601,-5.6601,-5.6601,-5.6601,-5.6458,-5.6191,-5.6097,-5.593,-5.5703,-5.5703,-5.5703,-5.5703,-5.5703,-5.5703,-5.5703,-5.5703,-5.5703,-5.5703,-5.5703,-5.5703,-5.5703,-5.5703,-5.5703,-5.5703,-5.5703,-5.5703,-5.5703,-5.5703,-5.5703,-5.5703,-5.5703,-5.5703,-5.5703,-5.5703,-5.553,-5.5222,-5.4645,-5.4126,-5.3433,-5.2183,-5.1741,-5.1395,-5.0798,-5.0702,-5.0702,-5.0702,-5.0702,-5.0702,-5.0702,-5.0702,-5.0702,-5.0702,-5.0604,-5.0272,-4.9561,-4.9645,-4.9645,-4.9356,-4.9445,-4.9617,-4.9924,-4.9773,-5.043,-5.2096,-5.2448,-5.3448,-5.5243,-5.5535,-5.5703,-5.5703,-5.5703,-5.5703,-5.5703,-5.5703,-5.5703,-5.377,-5.4153,-5.4535,-5.4503,-5.4503,-5.475,-5.5512,-5.5703,-5.5703,-5.5703,-5.5826,-5.5966,-5.6169,-5.6313,-5.643,-5.6581,-5.6601,-5.6559,-5.6421,-5.6411,-5.6361,-5.6212,-5.6222,-5.6202,-5.6202,-5.6202,-5.6202,-5.6202,-5.6202,-5.6202,-5.6202,-5.6328,-5.6411,-5.6411,-5.6536,-5.6601,-5.6601,-5.6601,-5.6601,-5.6601,-5.6601,-5.6458,-5.6181,-5.5863,-5.5705,-5.5703,-5.5703,-5.5703,-5.5703,-5.5703,-5.5703,-5.5703,-5.5703,-5.5703,-5.5703,-5.5703,-5.5703,-5.5703,-5.5703,-5.5703,-5.5703,-5.5703,-5.5703,-5.5703,-5.5703,-5.5703,-5.5703,-5.5703,-5.5703,-5.5703,-5.5703,-5.5126,-5.453,-5.4511,-5.3222,-5.1972,-5.1914,-5.1298,-5.0721,-5.0702,-5.0702,-5.0702,-5.0702,-5.0702,-5.0702,-5.0702,-5.0702,-5.0702,-5.0702,-5.0358,-4.9949,-4.9532,-4.9171,-4.893,-4.893,-4.9265,-4.9522,-4.9504,-4.9853,-5.0836,-5.252,-5.2596,-5.3566,-5.5624,-5.5684,-5.5703,-5.5703,-5.5703,-5.5703,-5.5703,-5.5703,-5.5703,-5.3655,-5.4153,-5.4439,-5.4118,-5.4465,-5.4979,-5.5237,-5.5512,-5.5703,-5.5703,-5.5755,-5.5828,-5.5974,-5.6157,-5.6308,-5.6448,-5.6481,-5.6454,-5.6411,-5.632,-5.6212,-5.6024,-5.601,-5.5971,-5.588,-5.5939,-5.6051,-5.6181,-5.6078,-5.6065,-5.6191,-5.6232,-5.6313,-5.6405,-5.643,-5.6512,-5.6601,-5.6601,-5.6601,-5.6601,-5.6512,-5.6421,-5.632,-5.5981,-5.5824,-5.5843,-5.5748,-5.5703,-5.5703,-5.5703,-5.5703,-5.5703,-5.5703,-5.5703,-5.5703,-5.5703,-5.5703,-5.5703,-5.5703,-5.5703,-5.5703,-5.5703,-5.5703,-5.5703,-5.5703,-5.5703,-5.5703,-5.5703,-5.5703,-5.5568,-5.503,-5.4703,-5.4203,-5.3049,-5.2337,-5.176,-5.1221,-5.0894,-5.0702,-5.0702,-5.0702,-5.0702,-5.0702,-5.0702,-5.0702,-5.0702,-5.0702,-5.0702,-5.0702,-5.0336,-4.9949,-4.9532,-4.9139,-4.8897,-4.8897,-4.9265,-4.9617,-4.9898,-5.0272,-5.1252,-5.2941,-5.3018,-5.3848,-5.5665,-5.5703,-5.5703,-5.5703,-5.5703,-5.5703,-5.5703,-5.5703,-5.5703,-5.279,-5.342,-5.3846,-5.4008,-5.4465,-5.4952,-5.5237,-5.5512,-5.5705,-5.575,-5.5772,-5.5825,-5.5981,-5.6152,-5.627,-5.6322,-5.6374,-5.6348,-5.6241,-5.615,-5.6024,-5.5842,-5.5843,-5.5789,-5.5705,-5.5789,-5.5877,-5.6001,-5.591,-5.5894,-5.6001,-5.6071,-5.6139,-5.6222,-5.6342,-5.645,-5.6536,-5.6581,-5.6601,-5.6601,-5.6458,-5.6411,-5.6386,-5.6058,-5.5904,-5.5888,-5.5769,-5.5703,-5.5703,-5.5703,-5.5703,-5.5703,-5.5703,-5.5703,-5.5703,-5.5703,-5.5703,-5.5703,-5.5703,-5.5703,-5.5703,-5.5703,-5.5703,-5.5703,-5.5703,-5.5703,-5.5703,-5.5703,-5.5491,-5.5145,-5.4626,-5.4049,-5.3299,-5.2183,-5.1683,-5.1337,-5.0798,-5.0702,-5.0702,-5.0702,-5.0702,-5.0702,-5.0702,-5.0702,-5.0702,-5.0702,-5.0702,-5.0702,-5.0702,-5.0336,-4.9949,-4.9532,-4.9139,-4.8829,-4.8692,-4.9043,-4.9445,-4.9853,-5.0272,-5.1293,-5.3126,-5.3203,-5.3991,-5.5665,-5.5703,-5.5703,-5.5703,-5.5703,-5.5703,-5.5703,-5.5703,-5.5703,-5.1198,-5.2044,-5.286,-5.4091,-5.4465,-5.4731,-5.5489,-5.5703,-5.5729,-5.5872,-5.5862,-5.5911,-5.6113,-5.6243,-5.6308,-5.6172,-5.6277,-5.6258,-5.5932,-5.5888,-5.5842,-5.5726,-5.5703,-5.5703,-5.5703,-5.5703,-5.5703,-5.5703,-5.5703,-5.5703,-5.5703,-5.5825,-5.5888,-5.5904,-5.6222,-5.6386,-5.6411,-5.6536,-5.6601,-5.6601,-5.6462,-5.6416,-5.6391,-5.6071,-5.592,-5.5904,-5.575,-5.5703,-5.5703,-5.5703,-5.5703,-5.5703,-5.5703,-5.5703,-5.5703,-5.5703,-5.5703,-5.5703,-5.5703,-5.5703,-5.5703,-5.5703,-5.5703,-5.5703,-5.5703,-5.5703,-5.5684,-5.5645,-5.5088,-5.4472,-5.4395,-5.3145,-5.1895,-5.1856,-5.126,-5.0702,-5.0702,-5.0702,-5.0702,-5.0702,-5.0702,-5.0702,-5.0702,-5.0702,-5.0702,-5.0702,-5.0702,-5.0702,-5.0702,-5.0336,-4.9924,-4.9532,-4.9108,-4.8709,-4.8326,-4.8657,-4.9075,-4.9475,-4.9872,-5.1017,-5.3105,-5.3203,-5.3991,-5.5665,-5.5703,-5.5703,-5.5703,-5.5703,-5.5703,-5.5703,-5.5703,-5.5703,-4.8998,-5.058,-5.2137,-5.288,-5.4025,-5.5007,-5.5212,-5.5489,-5.5712,-5.5741,-5.5513,-5.5313,-5.5364,-5.5482,-5.5571,-5.5556,-5.5804,-5.5991,-5.592,-5.5807,-5.5748,-5.5705,-5.5703,-5.5703,-5.5703,-5.5703,-5.5703,-5.5703,-5.5703,-5.5703,-5.5703,-5.5728,-5.5808,-5.5888,-5.6127,-5.6305,-5.6411,-5.6536,-5.6601,-5.6601,-5.656,-5.6559,-5.6538,-5.6241,-5.6115,-5.6122,-5.5808,-5.5703,-5.5703,-5.5703,-5.5703,-5.5703,-5.5703,-5.5703,-5.5703,-5.5703,-5.5703,-5.5703,-5.5703,-5.5703,-5.5703,-5.5703,-5.5703,-5.5703,-5.5703,-5.5703,-5.5568,-5.4972,-5.4664,-5.4203,-5.2895,-5.2241,-5.176,-5.1144,-5.0837,-5.0702,-5.0702,-5.0702,-5.0702,-5.0702,-5.0702,-5.0702,-5.0702,-5.0702,-5.0702,-5.0702,-5.0702,-5.0702,-5.0702,-5.0092,-4.9617,-4.9504,-4.8881,-4.8421,-4.8306,-4.8657,-4.9075,-4.9475,-4.9872,-5.1017,-5.3105,-5.3203,-5.3991,-5.5665,-5.5703,-5.5703,-5.5703,-5.5703,-5.5703,-5.5703,-5.5703,-5.5703,-4.7908,-4.9432,-5.104,-5.209,-5.3327,-5.4275,-5.4338,-5.4786,-5.5113,-5.4831,-5.4367,-5.4136,-5.4544,-5.4689,-5.4874,-5.5159,-5.5596,-5.5891,-5.5825,-5.5749,-5.5703,-5.5703,-5.5703,-5.5703,-5.5703,-5.5703,-5.5703,-5.5703,-5.5703,-5.5703,-5.5703,-5.5703,-5.5748,-5.5807,-5.5986,-5.6172,-5.6411,-5.6536,-5.6601,-5.6601,-5.6601,-5.6601,-5.6582,-5.638,-5.627,-5.6181,-5.591,-5.5749,-5.5703,-5.5703,-5.5703,-5.5703,-5.5703,-5.5703,-5.5703,-5.5703,-5.5703,-5.5703,-5.5703,-5.5703,-5.5703,-5.5703,-5.5703,-5.5626,-5.528,-5.5164,-5.4991,-5.4164,-5.3645,-5.3126,-5.2164,-5.1645,-5.126,-5.0798,-5.0702,-5.0702,-5.0702,-5.0702,-5.0702,-5.0702,-5.0702,-5.0702,-5.0702,-5.0702,-5.0702,-5.0702,-5.0702,-5.0702,-5.0702,-5.0159,-4.9617,-4.9265,-4.8847,-4.8477,-4.8306,-4.8513,-4.8863,-4.9445,-4.9719,-5.0855,-5.3105,-5.3203,-5.3991,-5.5665,-5.5703,-5.5703,-5.5703,-5.5703,-5.5703,-5.5703,-5.5703,-5.5703,-4.71,-4.8379,-4.9821,-5.1418,-5.2489,-5.3147,-5.3331,-5.3877,-5.4186,-5.3651,-5.2998,-5.2785,-5.3645,-5.3909,-5.4204,-5.4816,-5.5455,-5.5824,-5.5726,-5.5703,-5.5703,-5.5703,-5.5703,-5.5703,-5.5703,-5.5703,-5.5703,-5.5703,-5.5703,-5.5703,-5.5703,-5.5703,-5.5705,-5.5728,-5.5877,-5.6083,-5.6405,-5.6536,-5.6601,-5.6601,-5.6601,-5.6601,-5.6601,-5.6458,-5.6328,-5.6181,-5.5996,-5.5825,-5.5703,-5.5703,-5.5703,-5.5703,-5.5703,-5.5703,-5.5703,-5.5703,-5.5703,-5.5703,-5.5703,-5.5703,-5.5703,-5.5703,-5.5626,-5.5415,-5.4703,-5.4414,-5.4145,-5.328,-5.2491,-5.1895,-5.1779,-5.1221,-5.0702,-5.0702,-5.0702,-5.0702,-5.0702,-5.0702,-5.0702,-5.0702,-5.0702,-5.0702,-5.0702,-5.0702,-5.0702,-5.0702,-5.0702,-5.0683,-5.0624,-5.0272,-4.9746,-4.9043,-4.8897,-4.8692,-4.8344,-4.8306,-4.8604,-4.9356,-4.9475,-5.0586,-5.3003,-5.3163,-5.3991,-5.5665,-5.5703,-5.5703,-5.5703,-5.5703,-5.5703,-5.5703,-5.5703,-5.5703,-4.5112,-4.7073,-4.8952,-5.0598,-5.184,-5.2805,-5.3145,-5.3327,-5.3396,-5.3284,-5.2646,-5.226,-5.2733,-5.3117,-5.35,-5.3949,-5.499,-5.5728,-5.5684,-5.5703,-5.5703,-5.5703,-5.5703,-5.5703,-5.5703,-5.5703,-5.5703,-5.5703,-5.5703,-5.5703,-5.5703,-5.5703,-5.5749,-5.5857,-5.6038,-5.6232,-5.6411,-5.6536,-5.6601,-5.6601,-5.6601,-5.6601,-5.6601,-5.6458,-5.6328,-5.6181,-5.5996,-5.5825,-5.5703,-5.5703,-5.5703,-5.5703,-5.5703,-5.5703,-5.5703,-5.5703,-5.5703,-5.5703,-5.5703,-5.5703,-5.5703,-5.5703,-5.5241,-5.4684,-5.453,-5.3991,-5.3241,-5.2375,-5.2029,-5.176,-5.1087,-5.0798,-5.0702,-5.0702,-5.0702,-5.0702,-5.0702,-5.0702,-5.0702,-5.0702,-5.0702,-5.0702,-5.0702,-5.0702,-5.0702,-5.0702,-5.0702,-5.0565,-5.0249,-4.9853,-4.9532,-4.9416,-4.8779,-4.8364,-4.8306,-4.8306,-4.8513,-4.8978,-4.9326,-5.0439,-5.2614,-5.3018,-5.3991,-5.5665,-5.5703,-5.5703,-5.5703,-5.5703,-5.5703,-5.5703,-5.5703,-5.5703,-4.532,-4.6835,-4.8207,-4.9727,-5.0903,-5.1716,-5.1958,-5.2259,-5.2414,-5.2086,-5.1318,-5.0901,-5.1508,-5.1982,-5.2456,-5.3063,-5.4436,-5.5399,-5.5399,-5.5577,-5.5621,-5.5423,-5.5399,-5.5399,-5.5399,-5.5399,-5.547,-5.5684,-5.5703,-5.5703,-5.5703,-5.5703,-5.5728,-5.5789,-5.6057,-5.6222,-5.6297,-5.651,-5.6601,-5.6601,-5.6601,-5.6601,-5.6601,-5.6536,-5.6386,-5.6191,-5.609,-5.5927,-5.5703,-5.5703,-5.5703,-5.5703,-5.5703,-5.5703,-5.5703,-5.5703,-5.5703,-5.5703,-5.5703,-5.5434,-5.5068,-5.5068,-5.4799,-5.4337,-5.3414,-5.2856,-5.2356,-5.151,-5.1279,-5.1183,-5.0798,-5.0702,-5.0702,-5.0702,-5.0702,-5.0702,-5.0702,-5.0702,-5.0702,-5.0702,-5.0702,-5.0702,-5.0702,-5.0702,-5.0702,-5.0702,-5.0702,-5.0624,-5.0421,-4.9898,-4.9416,-4.9202,-4.8676,-4.8306,-4.8306,-4.8306,-4.8477,-4.8863,-4.9265,-5.0411,-5.252,-5.2976,-5.3991,-5.5665,-5.5703,-5.5703,-5.5703,-5.5703,-5.5703,-5.5703,-5.5703,-5.5703,-4.5745,-4.6682,-4.7524,-4.8851,-4.9856,-5.0577,-5.0711,-5.1199,-5.1489,-5.0978,-5.0138,-4.974,-5.0553,-5.0948,-5.1479,-5.2435,-5.3777,-5.4798,-5.5069,-5.5356,-5.5446,-5.5134,-5.5088,-5.508,-5.4979,-5.5034,-5.5212,-5.5554,-5.5662,-5.5703,-5.5703,-5.5703,-5.5703,-5.5703,-5.6035,-5.6191,-5.6191,-5.6462,-5.6601,-5.6601,-5.6601,-5.6601,-5.6601,-5.6601,-5.6462,-5.6232,-5.6202,-5.6029,-5.5729,-5.5705,-5.5703,-5.5703,-5.5703,-5.5703,-5.5703,-5.5703,-5.5703,-5.5684,-5.5491,-5.503,-5.4434,-5.4068,-5.3933,-5.3683,-5.2318,-5.1779,-5.151,-5.0875,-5.0702,-5.0702,-5.0702,-5.0702,-5.0702,-5.0702,-5.0702,-5.0702,-5.0702,-5.0702,-5.0702,-5.0702,-5.0702,-5.0702,-5.0702,-5.0702,-5.0702,-5.0702,-5.0702,-5.0702,-5.0702,-5.0019,-4.9386,-4.9043,-4.8604,-4.8306,-4.8306,-4.8306,-4.8421,-4.8744,-4.9139,-5.0298,-5.2399,-5.2847,-5.3889,-5.5665,-5.5703,-5.5703,-5.5703,-5.5703,-5.5703,-5.5703,-5.5703,-5.5703,-4.4952,-4.6014,-4.6748,-4.784,-4.8889,-4.9714,-5.0079,-5.0496,-5.0793,-5.0742,-5.0073,-4.9738,-5.0558,-5.0487,-5.082,-5.236,-5.3044,-5.3792,-5.492,-5.5134,-5.516,-5.5088,-5.5088,-5.4952,-5.4597,-5.4895,-5.5134,-5.516,-5.5489,-5.5703,-5.5703,-5.5703,-5.5703,-5.5703,-5.6035,-5.6191,-5.6191,-5.6462,-5.6601,-5.6601,-5.6601,-5.6601,-5.6601,-5.6601,-5.6515,-5.6374,-5.6242,-5.6078,-5.5874,-5.5749,-5.5703,-5.5703,-5.5703,-5.5703,-5.5703,-5.5703,-5.5703,-5.5588,-5.4857,-5.4549,-5.4241,-5.2664,-5.2145,-5.2125,-5.1952,-5.1395,-5.0779,-5.0721,-5.0702,-5.0702,-5.0702,-5.0702,-5.0702,-5.0702,-5.0702,-5.0702,-5.0702,-5.0702,-5.0702,-5.0702,-5.0702,-5.0702,-5.0702,-5.0702,-5.0702,-5.0702,-5.0702,-5.0702,-5.0702,-5.0019,-4.9475,-4.9445,-4.8763,-4.8306,-4.8306,-4.8306,-4.8306,-4.8364,-4.8709,-4.9902,-5.1971,-5.2429,-5.3632,-5.5665,-5.5703,-5.5703,-5.5703,-5.5703,-5.5703,-5.5703,-5.5703,-5.5703,-4.5003,-4.5915,-4.6656,-4.7722,-4.8814,-4.9701,-5.0018,-5.0468,-5.0803,-5.0731,-5.0068,-4.9608,-4.9924,-4.9915,-5.0213,-5.1332,-5.2255,-5.3178,-5.4171,-5.456,-5.4621,-5.435,-5.4336,-5.427,-5.4083,-5.4236,-5.456,-5.5061,-5.5489,-5.5703,-5.5703,-5.5703,-5.5703,-5.5703,-5.6035,-5.6191,-5.6191,-5.6462,-5.6601,-5.6601,-5.6601,-5.6601,-5.6601,-5.6601,-5.6536,-5.6386,-5.627,-5.6078,-5.5888,-5.5769,-5.5703,-5.5703,-5.5703,-5.5703,-5.5645,-5.5164,-5.4972,-5.4857,-5.401,-5.3376,-5.2818,-5.2145,-5.1568,-5.1183,-5.1183,-5.0952,-5.0702,-5.0702,-5.0702,-5.0702,-5.0702,-5.0702,-5.0702,-5.0702,-5.0702,-5.0702,-5.0702,-5.0702,-5.0702,-5.0702,-5.0702,-5.0702,-5.0702,-5.0702,-5.0702,-5.0702,-5.0702,-5.0702,-5.0702,-5.0019,-4.9504,-4.9504,-4.8797,-4.8306,-4.8306,-4.8306,-4.8306,-4.8306,-4.8692,-4.9724,-5.1551,-5.2266,-5.3473,-5.5293,-5.5577,-5.5703,-5.5703,-5.5703,-5.5703,-5.5703,-5.5703,-5.5703,-4.539,-4.6209,-4.6874,-4.7616,-4.8752,-4.9735,-4.9895,-5.0429,-5.0833,-5.0567,-5.0068,-4.9645,-4.9504,-4.9433,-4.9657,-5.0487,-5.1435,-5.2401,-5.333,-5.3933,-5.4153,-5.3851,-5.3814,-5.374,-5.3624,-5.3851,-5.4369,-5.5212,-5.5535,-5.5703,-5.5703,-5.5703,-5.5703,-5.5703,-5.6035,-5.6191,-5.6191,-5.6462,-5.6601,-5.6601,-5.6601,-5.6601,-5.6601,-5.6601,-5.6536,-5.6386,-5.627,-5.6078,-5.5888,-5.5769,-5.5703,-5.5703,-5.5703,-5.5549,-5.528,-5.4703,-5.4337,-5.3991,-5.3126,-5.2414,-5.1875,-5.1625,-5.1164,-5.0702,-5.0702,-5.0702,-5.0702,-5.0702,-5.0702,-5.0702,-5.0702,-5.0702,-5.0702,-5.0702,-5.0702,-5.0702,-5.0702,-5.0702,-5.0702,-5.0702,-5.0604,-5.0565,-5.0683,-5.0604,-5.0565,-5.0683,-5.0702,-5.0702,-5.0702,-5.0019,-4.9504,-4.9504,-4.8797,-4.8306,-4.8306,-4.8306,-4.8306,-4.8306,-4.8586,-4.9522,-5.1335,-5.1926,-5.3147,-5.5069,-5.5375,-5.5577,-5.5703,-5.5703,-5.5703,-5.5703,-5.5703,-5.5703,-4.6187,-4.6864,-4.7385,-4.7385,-4.8576,-4.9674,-4.954,-5.0227,-5.075,-5.021,-5.0092,-4.9974,-4.9561,-4.919,-4.9176,-4.998,-5.0508,-5.124,-5.2455,-5.3293,-5.3814,-5.3814,-5.3814,-5.3624,-5.323,-5.3979,-5.4838,-5.564,-5.5703,-5.5703,-5.5703,-5.5703,-5.5703,-5.5703,-5.6035,-5.6191,-5.6191,-5.6462,-5.6601,-5.6601,-5.6601,-5.6601,-5.6601,-5.6601,-5.6536,-5.6386,-5.627,-5.6078,-5.5888,-5.5769,-5.5703,-5.5703,-5.5703,-5.5203,-5.4511,-5.4491,-5.3953,-5.3087,-5.2222,-5.1914,-5.1779,-5.0971,-5.0702,-5.0702,-5.0702,-5.0702,-5.0702,-5.0702,-5.0702,-5.0702,-5.0702,-5.0702,-5.0702,-5.0702,-5.0702,-5.0702,-5.0702,-5.0702,-5.0702,-5.0702,-5.0377,-5.0249,-5.0624,-5.0358,-5.0249,-5.0624,-5.0702,-5.0702,-5.0702,-5.0019,-4.9504,-4.9504,-4.8797,-4.8306,-4.8306,-4.8306,-4.8306,-4.8306,-4.8306,-4.9252,-5.1299,-5.1409,-5.2578,-5.5069,-5.5088,-5.5306,-5.5703,-5.5703,-5.5703,-5.5703,-5.5703,-5.5703,-4.7102,-4.7696,-4.8253,-4.8342,-4.9239,-5.0098,-5.0055,-5.0484,-5.0757,-5.0199,-5.0092,-4.9879,-4.9202,-4.8996,-4.9092,-4.9658,-4.9892,-5.0312,-5.1243,-5.1574,-5.174,-5.174,-5.222,-5.2834,-5.3549,-5.4171,-5.4701,-5.5237,-5.5535,-5.5703,-5.5703,-5.5703,-5.5703,-5.5703,-5.5894,-5.6065,-5.6191,-5.6374,-5.6512,-5.6601,-5.6601,-5.6601,-5.6601,-5.6601,-5.6581,-5.6515,-5.6305,-5.6169,-5.6078,-5.5808,-5.5376,-5.4876,-5.4876,-5.4357,-5.3549,-5.2953,-5.2549,-5.2202,-5.1375,-5.1087,-5.1029,-5.0779,-5.0702,-5.0702,-5.0702,-5.0702,-5.0702,-5.0702,-5.0702,-5.0702,-5.0702,-5.0702,-5.0702,-5.0702,-5.0702,-5.0702,-5.0702,-5.0702,-5.0624,-5.0336,-5.0183,-5.0043,-4.9898,-4.9773,-4.9746,-4.9853,-4.9898,-4.9974,-5.0249,-4.9589,-4.9202,-4.9475,-4.8797,-4.8306,-4.8306,-4.8306,-4.8306,-4.8306,-4.8306,-4.9118,-5.0911,-5.1249,-5.2295,-5.4165,-5.4547,-5.4731,-5.4895,-5.516,-5.5423,-5.5703,-5.5703,-5.5703,-4.8248,-4.8651,-4.9039,-4.9116,-4.977,-5.0362,-5.031,-5.0618,-5.0745,-5.0214,-5.0092,-4.9853,-4.9043,-4.8897,-4.8964,-4.9081,-4.937,-4.9756,-5.027,-5.0618,-5.0802,-5.0802,-5.1242,-5.1946,-5.304,-5.3381,-5.3802,-5.4345,-5.4614,-5.4761,-5.4761,-5.4761,-5.4761,-5.4761,-5.5562,-5.6065,-5.6191,-5.638,-5.6515,-5.6601,-5.6601,-5.6601,-5.6601,-5.6601,-5.6561,-5.6493,-5.5954,-5.5683,0.0,-5.4997,-5.4453,-5.401,-5.401,-5.3491,-5.2645,-5.2106,-5.1722,-5.1375,-5.0856,-5.0702,-5.0702,-5.0702,-5.0702,-5.0702,-5.0702,-5.0702,-5.0702,-5.0702,-5.0702,-5.0702,-5.0702,-5.0702,-5.0702,-5.0702,-5.0702,-5.0702,-5.0702,-5.0565,-5.0399,-5.0159,-4.9853,-4.9617,-4.9504,-4.9386,-4.9326,-4.9475,-4.9504,-4.9589,-4.9827,-4.9307,-4.8996,-4.9234,-4.8692,-4.8306,-4.8306,-4.8306,-4.8306,-4.8306,-4.8306,-4.9058,-5.0729,-5.1025,-5.1992,-5.3777,-5.4083,-5.4322,-5.4503,-5.4905,-5.5306,-5.5703,-5.5703,-5.5703,0.0,-4.9663,-4.9782,-4.9786,-5.017,-5.0507,-5.0371,-5.0622,0.0,-5.0191,-5.0092,-4.9853,-4.9043,-4.8897,-4.8779,-4.8364,-4.8967,-4.9538,-4.9559,-5.0202,-5.0677,-5.071,-5.075,-5.1102,-5.1933,-5.2024,-5.236,-5.3142,-5.3203,-5.3203,-5.3203,-5.3203,-5.3203,-5.3203,-5.5026,-5.6016,-5.6016,-5.6263,-5.6406,-5.6426,-5.6426,-5.6426,-5.6426,-5.6426,-5.6341,-5.6177,-5.5228,-5.4743,-5.4545,-5.3591,-5.3164,-5.3106,-5.3106,-5.2587,-5.1818,-5.1818,-5.1337,-5.0702,-5.0702,-5.0702,-5.0702,-5.0702,-5.0702,-5.0702,-5.0702,-5.0702,-5.0702,-5.0702,-5.0702,-5.0702,-5.0702,-5.0702,-5.0702,-5.0702,-5.0702,-5.0683,-5.0663,-5.0358,-5.0068,-5.0043,-4.9397,-4.9029,-4.9356,-4.9108,-4.8978,-4.9356,-4.9416,-4.9416,-4.9445,-4.9108,-4.8863,-4.8897,-4.855,-4.8306,-4.8306,-4.8306,-4.8306,-4.8306,-4.8306,-4.9058,-5.0729,-5.0802,-5.174,-5.3721,-5.374,-5.3996,-5.4471,-5.4867,-5.5262,-5.5662,-5.5703,-5.5703,-4.9872,0.0,-5.0645,-5.0738,-5.0781,-5.0816,0.0,-5.0836,-5.0606,-5.0206,-5.0092,-4.9853,-4.9043,-4.8897,-4.8779,-4.8364,-4.8471,-4.8734,-4.9024,-4.9227,-4.9454,-4.9814,-5.012,-5.0701,-5.1907,-5.2276,-5.2679,-5.3163,-5.3203,-5.3203,-5.3203,-5.3203,-5.3203,-5.3203,-5.3862,-5.4207,-5.4207,-5.4378,-5.4515,-5.4609,-5.4609,-5.4609,-5.4609,-5.4609,-5.4589,-5.4546,-5.4103,-5.3894,-5.3817,-5.3395,-5.2818,-5.2222,-5.2222,-5.1702,-5.0971,-5.0971,-5.0856,-5.0702,-5.0702,-5.0702,-5.0702,-5.0702,-5.0702,-5.0702,-5.0702,-5.0702,-5.0702,-5.0702,-5.0702,-5.0702,-5.0702,-5.0702,-5.0702,-5.0702,-5.0702,-5.0624,-5.0313,-5.0159,-4.9924,-4.9307,-4.9011,-4.8829,-4.8604,-4.8513,-4.8477,-4.8586,-4.8568,-4.8692,-4.8978,-4.8692,-4.8568,-4.8863,-4.855,-4.8306,-4.8306,-4.8306,-4.8306,-4.8306,-4.8306,-4.9058,-5.0729,-5.0802,-5.1577,-5.33,-5.3318,-5.3545,-5.3977,-5.442,-5.4867,-5.5256,-5.5554,-5.5703,-4.9974,-5.0547,-5.0989,-5.1012,-5.0996,-5.0981,-5.1011,-5.0851,-5.0604,-5.0183,-4.9949,-4.9645,-4.9011,-4.8744,-4.8532,-4.8344,-4.844,-4.8657,-4.8863,-4.8744,-4.8716,-4.8969,-4.9159,-4.9684,-5.0745,-5.1036,-5.144,-5.2009,-5.2049,-5.2049,-5.2049,-5.2049,-5.2049,-5.2049,-5.2311,-5.2825,-5.3584,-5.3791,-5.3937,-5.4004,-5.4004,-5.4004,-5.4004,-5.4004,-5.3964,-5.3874,-5.3276,-5.2969,-5.2867,-5.2296,-5.1779,-5.1356,-5.1356,-5.1087,-5.0702,-5.0702,-5.0702,-5.0702,-5.0702,-5.0702,-5.0702,-5.0702,-5.0702,-5.0702,-5.0702,-5.0702,-5.0702,-5.0702,-5.0702,-5.0702,-5.0702,-5.0702,-5.0663,-5.0483,-5.0421,-5.0294,-4.9924,-4.9673,-4.9426,-4.8978,-4.8744,-4.8586,-4.8344,-4.8306,-4.8306,-4.8306,-4.8306,-4.8402,-4.8604,-4.8421,-4.8383,-4.8604,-4.8421,-4.8306,-4.8306,-4.8306,-4.8306,-4.8306,-4.8673,-4.9462,-5.0747,-5.1151,-5.194,-5.3188,-5.3206,-5.3381,-5.3814,-5.4255,-5.472,-5.5107,-5.5512,-5.5703,-4.9974,-5.0578,-5.1064,-5.0932,-5.1001,-5.1053,-5.0932,-5.0808,-5.0604,-5.0183,-4.9773,-4.9386,-4.8978,-4.8568,-4.8306,-4.8306,-4.8621,-4.8863,-4.8813,-4.8568,-4.8364,-4.8306,-4.8402,-4.8763,-4.9416,-4.9589,-4.9974,-5.0663,-5.0702,-5.0702,-5.0702,-5.0702,-5.0702,-5.0702,-5.0953,-5.1775,-5.3195,-5.3474,-5.3594,-5.3594,-5.3594,-5.3594,-5.3594,-5.3594,-5.353,-5.3381,-5.25,-5.2041,-5.1881,-5.1045,-5.0702,-5.0702,-5.0702,-5.0702,-5.0702,-5.0702,-5.0702,-5.0702,-5.0702,-5.0702,-5.0702,-5.0702,-5.0702,-5.0702,-5.0702,-5.0702,-5.0702,-5.0702,-5.0702,-5.0702,-5.0702,-5.0702,-5.0604,-5.0272,-5.0159,-4.9974,-4.9608,-4.9171,-4.8897,-4.8813,-4.855,-4.8306,-4.8306,-4.8306,-4.8306,-4.8306,-4.8306,-4.8306,-4.8306,-4.8306,-4.8306,-4.8306,-4.8306,-4.8306,-4.8306,-4.8306,-4.8361,-4.8489,-4.9169,-4.9994,-5.0949,-5.1756,-5.2509,-5.3206,-5.3206,-5.3359,-5.372,-5.4221,-5.4689,-5.5007,-5.5489,-5.5703,-4.9974,-5.0578,-5.1064,-5.0932,-5.1001,-5.1053,-5.0932,-5.0808,-5.0604,-5.0183,-4.9773,-4.9386,-4.8978,-4.8568,-4.8306,-4.8306,-4.8621,-4.8779,-4.8458,-4.8621,-4.8692,-4.8326,-4.8915,-4.9356,-4.9475,-5.0135,-5.0565,-5.0683,-5.0702,-5.0702,-5.0702,-5.0702,-5.0702,-5.0702,-5.0953,-5.123,-5.1483,-5.1698,-5.1797,-5.1797,-5.1797,-5.1797,-5.1797,-5.1797,-5.1797,-5.1756,-5.144,-5.1278,-5.1217,-5.0846,-5.0702,-5.0702,-5.0702,-5.0702,-5.0702,-5.0702,-5.0702,-5.0702,-5.0702,-5.0702,-5.0702,-5.0702,-5.0702,-5.0702,-5.0702,-5.0702,-5.0702,-5.0702,-5.0702,-5.0702,-5.0702,-5.0702,-5.0683,-5.0624,-5.0336,-4.9974,-4.9608,-4.9171,-4.8813,-4.8458,-4.8326,-4.8306,-4.8306,-4.8306,-4.8306,-4.8306,-4.8306,-4.8306,-4.8306,-4.8306,-4.8306,-4.8306,-4.8306,-4.8306,-4.8306,-4.8306,-4.8618,-4.9334,-4.9462,-5.0196,-5.1738,-5.2601,-5.3078,-5.3206,-5.3206,-5.3248,-5.3295,-5.4121,-5.4535,-5.4609,-5.5356,-5.5703,-5.0331,-5.0759,-5.0985,-5.0916,-5.1001,-5.105,-5.0835,-5.0739,-5.0504,-4.9898,-4.9636,-4.9295,-4.8692,-4.8421,-4.8364,-4.8604,-4.8604,-4.8604,-4.864,-4.8604,-4.8513,-4.8344,-4.8813,-4.9265,-4.9475,-5.0043,-5.0462,-5.0683,-5.0702,-5.0702,-5.0702,-5.0702,-5.0702,-5.0702,-5.0953,-5.1094,-5.1094,-5.1307,-5.1406,-5.1406,-5.1406,-5.1406,-5.1406,-5.1406,-5.134,-5.123,-5.1139,-5.1027,-5.0863,-5.0739,-5.0702,-5.0702,-5.0702,-5.0702,-5.0702,-5.0702,-5.0702,-5.0702,-5.0702,-5.0702,-5.0702,-5.0702,-5.0702,-5.0702,-5.0702,-5.0702,-5.0702,-5.0702,-5.0702,-5.0702,-5.0702,-5.0544,-5.0336,-5.0092,-4.9728,-4.9356,-4.893,-4.8692,-4.8513,-4.8344,-4.8306,-4.8306,-4.8306,-4.8306,-4.8306,-4.8306,-4.8306,-4.8306,-4.8306,-4.8306,-4.8306,-4.8306,-4.8306,-4.8306,-4.8306,-4.8728,-4.9352,-5.0196,-5.0618,-5.1389,-5.2601,-5.3004,-5.3206,-5.3206,-5.3206,-5.3206,-5.3206,-5.3796,-5.4118,-5.4153,-5.4988,-5.5486,-5.0656,-5.0899,-5.0897,-5.0897,-5.0989,-5.0991,-5.0757,-5.0624,-5.0358,-4.9664,-4.9416,-4.9139,-4.8421,-4.8306,-4.8383,-4.8728,-4.8513,-4.8402,-4.8728,-4.8477,-4.8306,-4.8306,-4.8763,-4.9171,-4.9475,-4.9949,-5.0358,-5.0683,-5.0702,-5.0702,-5.0702,-5.0702,-5.0702,-5.0702,-5.0953,-5.1094,-5.1094,-5.1307,-5.1406,-5.1406,-5.1406,-5.1406,-5.1406,-5.1406,-5.1307,-5.1111,-5.1103,-5.0972,-5.0739,-5.0721,-5.0702,-5.0702,-5.0702,-5.0702,-5.0702,-5.0702,-5.0702,-5.0702,-5.0702,-5.0702,-5.0702,-5.0702,-5.0702,-5.0702,-5.0702,-5.0702,-5.0702,-5.0702,-5.0702,-5.0702,-5.0702,-5.0399,-4.9999,-4.9719,-4.9265,-4.8813,-4.8513,-4.8364,-4.8306,-4.8306,-4.8306,-4.8306,-4.8306,-4.8306,-4.8306,-4.8306,-4.8306,-4.8306,-4.8306,-4.8306,-4.8306,-4.8306,-4.8306,-4.8379,-4.86,-4.9554,-5.0417,-5.1041,-5.1665,-5.2362,-5.3188,-5.3206,-5.3206,-5.3206,-5.3206,-5.3206,-5.3206,-5.3586,-5.3814,-5.3814,-5.4591,-5.5245,-5.0656,-5.0899,-5.0897,-5.0897,-5.0909,-5.0879,-5.074,-5.0421,-5.0019,-4.9589,-4.9202,-4.8813,-4.8402,-4.8306,-4.8306,-4.8344,-4.8306,-4.8306,-4.8344,-4.8306,-4.8306,-4.8306,-4.8996,-4.9475,-4.9504,-5.0183,-5.0663,-5.0702,-5.0702,-5.0702,-5.0702,-5.0702,-5.0702,-5.0702,-5.0953,-5.1094,-5.1094,-5.1307,-5.1406,-5.1406,-5.1406,-5.1406,-5.1406,-5.1406,-5.132,-5.1191,-5.112,-5.1027,-5.0879,-5.0739,-5.0702,-5.0702,-5.0702,-5.0702,-5.0702,-5.0702,-5.0702,-5.0702,-5.0702,-5.0702,-5.0702,-5.0702,-5.0702,-5.0702,-5.0702,-5.0702,-5.0702,-5.0702,-5.0702,-5.0702,-5.0702,-5.0399,-5.0092,-5.0068,-4.9456,-4.8897,-4.8863,-4.8568,-4.8306,-4.8306,-4.8306,-4.8306,-4.8306,-4.8306,-4.8306,-4.8306,-4.8306,-4.8306,-4.8306,-4.8306,-4.8306,-4.8306,-4.8306,-4.8636,-4.9426,-5.0912,-5.1848,-5.1903,-5.1958,-5.2362,-5.3188,-5.3206,-5.3206,-5.3206,-5.3206,-5.3206,-5.3206,-5.3586,-5.3814,-5.3814,-5.4322,-5.4969,-5.0758,-5.0901,-5.082,-5.0972,-5.0888,-5.0757,-5.0702,-5.0399,-4.9993,-4.9561,-4.9171,-4.8779,-4.8364,-4.8306,-4.8306,-4.8306,-4.8306,-4.8306,-4.8306,-4.8306,-4.8306,-4.8306,-4.8779,-4.9139,-4.9139,-4.9617,-5.0068,-5.0313,-5.0336,-5.0421,-5.0683,-5.0702,-5.0702,-5.0702,-5.0953,-5.1094,-5.1094,-5.1307,-5.1406,-5.1406,-5.1406,-5.1406,-5.1406,-5.1406,-5.1291,-5.1137,-5.1113,-5.0979,-5.0756,-5.0721,-5.0702,-5.0702,-5.0702,-5.0702,-5.0702,-5.0702,-5.0702,-5.0702,-5.0702,-5.0702,-5.0702,-5.0702,-5.0702,-5.0702,-5.0702,-5.0702,-5.0663,-5.0399,-5.0336,-5.0336,-5.0336,-5.0043,-4.9645,-4.9397,-4.893,-4.8513,-4.8513,-4.8402,-4.8306,-4.8306,-4.8306,-4.8306,-4.8306,-4.8306,-4.8306,-4.8306,-4.8306,-4.8306,-4.8306,-4.8306,-4.8306,-4.8306,-4.8783,-4.9646,-5.0967,-5.1646,-5.2197,-5.2711,-5.2747,-5.2894,-5.3206,-5.3206,-5.3206,-5.3206,-5.3206,-5.3206,-5.3206,-5.3359,-5.3422,-5.3462,-5.4373,-5.5119,-5.0753,-5.0908,-5.0801,-5.0986,-5.0895,-5.0739,-5.0702,-5.0294,-4.9827,-4.9561,-4.9094,-4.864,-4.8364,-4.8306,-4.8306,-4.8306,-4.8306,-4.8306,-4.8306,-4.8306,-4.8306,-4.8306,-4.8657,-4.8897,-4.8897,-4.9265,-4.9664,-5.0068,-5.0092,-5.0272,-5.0683,-5.0702,-5.0702,-5.0702,-5.0953,-5.1094,-5.1094,-5.1307,-5.1406,-5.1406,-5.1406,-5.1406,-5.1406,-5.1406,-5.1281,-5.1094,-5.1094,-5.0959,-5.0702,-5.0702,-5.0702,-5.0702,-5.0702,-5.0702,-5.0702,-5.0702,-5.0702,-5.0702,-5.0702,-5.0702,-5.0702,-5.0702,-5.0702,-5.0683,-5.0544,-5.0604,-5.0604,-5.0068,-4.9999,-5.0043,-4.98,-4.9532,-4.9234,-4.8963,-4.8604,-4.8306,-4.8306,-4.8306,-4.8306,-4.8306,-4.8306,-4.8306,-4.8306,-4.8306,-4.8306,-4.8306,-4.8306,-4.8306,-4.8306,-4.8306,-4.8416,-4.8673,-4.9682,-5.0784,-5.1903,-5.2234,-5.2619,-5.3188,-5.3206,-5.3206,-5.3206,-5.3206,-5.3206,-5.3206,-5.3206,-5.3206,-5.3206,-5.3206,-5.3206,-5.3225,-5.4297,-5.511,-5.0656,-5.0899,-5.0897,-5.0897,-5.0899,-5.0863,-5.0721,-5.0068,-4.9504,-4.9475,-4.8847,-4.8306,-4.8306,-4.8306,-4.8306,-4.8306,-4.8306,-4.8306,-4.8306,-4.8306,-4.8306,-4.8306,-4.8657,-4.8897,-4.8897,-4.9265,-4.9664,-5.0068,-5.0092,-5.0272,-5.0683,-5.0702,-5.0702,-5.0702,-5.0953,-5.1113,-5.1094,-5.1304,-5.1406,-5.1406,-5.1406,-5.1406,-5.1406,-5.1406,-5.1281,-5.1094,-5.1094,-5.0959,-5.0702,-5.0702,-5.0702,-5.0702,-5.0702,-5.0702,-5.0702,-5.0702,-5.0702,-5.0702,-5.0702,-5.0702,-5.0702,-5.0702,-5.0702,-5.0624,-5.0206,-5.0377,-5.0544,-4.9719,-4.9773,-4.9905,-4.9108,-4.8897,-4.8897,-4.8897,-4.8604,-4.8306,-4.8306,-4.8306,-4.8306,-4.8306,-4.8306,-4.8306,-4.8306,-4.8306,-4.8306,-4.8306,-4.8306,-4.8306,-4.8324,-4.8324,-4.8655,-4.9517,-5.1041,-5.1995,-5.1995,-5.2747,-5.3206,-5.3206,-5.3206,-5.3206,-5.3206,-5.3206,-5.3206,-5.3206,-5.3206,-5.3206,-5.3206,-5.3206,-5.3206,-5.3243,-5.4051,-5.484,-5.0656,-5.0899,-5.0897,-5.0897,-5.0899,-5.0863,-5.0721,-5.0068,-4.9326,-4.8763,-4.8458,-4.8306,-4.8306,-4.8306,-4.8306,-4.8306,-4.8306,-4.8306,-4.8306,-4.8306,-4.8306,-4.8306,-4.8402,-4.8495,-4.8495,-4.8568,-4.893,-4.9636,-4.9692,-4.9974,-5.0663,-5.0702,-5.0702,-5.0702,-5.0863,-5.1004,-5.1094,-5.1205,-5.1318,-5.1406,-5.1406,-5.1406,-5.1406,-5.1406,-5.1281,-5.1094,-5.1094,-5.0959,-5.0702,-5.0702,-5.0702,-5.0702,-5.0702,-5.0702,-5.0702,-5.0702,-5.0702,-5.0702,-5.0702,-5.0702,-5.0702,-5.0702,-5.0702,-5.0624,-5.0206,-5.0183,-5.0116,-4.9307,-4.9171,-4.9139,-4.8604,-4.8495,-4.8495,-4.8495,-4.8402,-4.8306,-4.8306,-4.8306,-4.8306,-4.8306,-4.8306,-4.8306,-4.8306,-4.8306,-4.8306,-4.8306,-4.8306,-4.8508,-4.9077,-4.9187,-4.9738,-5.1132,-5.1701,-5.2234,-5.2803,-5.3078,-5.3206,-5.3206,-5.3206,-5.3206,-5.3206,-5.3206,-5.3206,-5.3206,-5.3206,-5.3206,-5.3206,-5.3206,-5.35,-5.4069,-5.4858,-5.5666,-5.0392,-5.0785,-5.0957,-5.0856,-5.0911,-5.085,-5.0344,-4.9853,-4.9265,-4.8458,-4.8306,-4.8306,-4.8306,-4.8306,-4.8306,-4.8306,-4.8306,-4.8306,-4.8306,-4.8306,-4.8306,-4.8306,-4.8306,-4.8306,-4.8306,-4.8306,-4.864,-4.9445,-4.9504,-4.9853,-5.0663,-5.0702,-5.0702,-5.0702,-5.0819,-5.0953,-5.1113,-5.1161,-5.1268,-5.1406,-5.1406,-5.1406,-5.1406,-5.1406,-5.1291,-5.1137,-5.1063,-5.0908,-5.0702,-5.0702,-5.0702,-5.0702,-5.0702,-5.0702,-5.0702,-5.0702,-5.0702,-5.0702,-5.0702,-5.0702,-5.0702,-5.0702,-5.0604,-5.0399,-4.9974,-4.9853,-4.9673,-4.8897,-4.8779,-4.8813,-4.8383,-4.8306,-4.8306,-4.8306,-4.8306,-4.8306,-4.8306,-4.8306,-4.8306,-4.8306,-4.8306,-4.8306,-4.8306,-4.8306,-4.8306,-4.8306,-4.86,-4.8985,-4.9462,-5.0123,-5.0912,-5.1885,-5.2289,-5.2674,-5.317,-5.3206,-5.3206,-5.3206,-5.3206,-5.3206,-5.3206,-5.3206,-5.3206,-5.3206,-5.3206,-5.3206,-5.3206,-5.3537,-5.394,-5.4436,-5.5556,-5.6345,-4.9974,-5.0578,-5.1051,-5.0773,-5.0908,-5.0823,-4.9784,-4.9532,-4.9265,-4.8458,-4.8306,-4.8306,-4.8306,-4.8306,-4.8306,-4.8306,-4.8306,-4.8306,-4.8306,-4.8306,-4.8306,-4.8306,-4.8306,-4.8306,-4.8306,-4.8306,-4.864,-4.9445,-4.9504,-4.9853,-5.0663,-5.0702,-5.0702,-5.0702,-5.0822,-5.094,-5.1113,-5.1154,-5.1265,-5.1406,-5.1406,-5.1406,-5.1406,-5.1406,-5.132,-5.1185,-5.0965,-5.0805,-5.0702,-5.0702,-5.0702,-5.0702,-5.0702,-5.0702,-5.0702,-5.0702,-5.0702,-5.0702,-5.0702,-5.0702,-5.0702,-5.0702,-5.0421,-4.9999,-4.9617,-4.9475,-4.9295,-4.8513,-4.8568,-4.8744,-4.8383,-4.8306,-4.8306,-4.8306,-4.8306,-4.8306,-4.8306,-4.8306,-4.8306,-4.8306,-4.8306,-4.8306,-4.8306,-4.8306,-4.8343,-4.8416,-4.915,-4.9719,-4.9793,-5.1096,-5.2013,-5.2087,-5.2766,-5.3206,-5.3206,-5.3206,-5.3206,-5.3206,-5.3206,-5.3206,-5.3206,-5.3206,-5.3206,-5.3206,-5.3206,-5.3243,-5.3316,-5.4051,-5.4473,-5.4656,-5.6124,-5.684,-4.9974,-5.0578,-5.1053,-5.0889,-5.0903,-5.077,-5.0126,-4.9719,-4.9265,-4.8458,-4.8306,-4.8306,-4.8306,-4.8306,-4.8306,-4.8306,-4.8306,-4.8306,-4.8306,-4.8306,-4.8306,-4.8306,-4.8306,-4.8306,-4.8306,-4.8306,-4.864,-4.9445,-4.9504,-4.9853,-5.0663,-5.0702,-5.0702,-5.0702,-5.0721,-5.0867,-5.1113,-5.1122,-5.1219,-5.1406,-5.1406,-5.1406,-5.1406,-5.1406,-5.1307,-5.1122,-5.0848,-5.0721,-5.0702,-5.0702,-5.0702,-5.0702,-5.0702,-5.0702,-5.0702,-5.0702,-5.0702,-5.0702,-5.0702,-5.0702,-5.0702,-5.0702,-5.0421,-4.9999,-4.9617,-4.9295,-4.893,-4.8421,-4.8364,-4.8421,-4.8344,-4.8306,-4.8306,-4.8306,-4.8306,-4.8306,-4.8306,-4.8306,-4.8306,-4.8306,-4.8306,-4.8306,-4.8306,-4.8306,-4.8526,-4.9205,-5.0013,-5.0765,-5.1389,-5.1775,-5.2234,-5.2876,-5.3115,-5.3206,-5.3206,-5.3206,-5.3206,-5.3206,-5.3206,-5.3206,-5.3206,-5.3206,-5.3206,-5.3206,-5.3206,-5.3518,-5.4142,-5.4326,-5.506,-5.629,-5.6657,-5.7152,-5.0043,-5.0546,-5.0996,-5.0928,-5.0906,-5.0761,-5.0214,-4.9949,-4.9561,-4.8744,-4.8421,-4.8306,-4.8306,-4.8306,-4.8306,-4.8306,-4.8306,-4.8306,-4.8306,-4.8306,-4.8306,-4.8306,-4.8306,-4.8306,-4.8306,-4.8306,-4.864,-4.9445,-4.9504,-4.9853,-5.0663,-5.0702,-5.0702,-5.0702,-5.0702,-5.0839,-5.1103,-5.1094,-5.12,-5.1406,-5.1406,-5.1406,-5.1406,-5.1406,-5.1281,-5.1084,-5.094,-5.0822,-5.0702,-5.0702,-5.0702,-5.0702,-5.0702,-5.0702,-5.0702,-5.0702,-5.0702,-5.0702,-5.0702,-5.0702,-5.0702,-5.0702,-5.0313,-4.9773,-4.9561,-4.9075,-4.8604,-4.8604,-4.8604,-4.8604,-4.8604,-4.8604,-4.855,-4.8326,-4.8306,-4.8306,-4.8306,-4.8306,-4.8306,-4.8306,-4.8306,-4.8306,-4.8306,-4.8655,-4.9205,-5.005,-5.0857,-5.1518,-5.194,-5.2344,-5.2747,-5.317,-5.3206,-5.3206,-5.3206,-5.3206,-5.3206,-5.3206,-5.3206,-5.3206,-5.3206,-5.3206,-5.3206,-5.3206,-5.3206,-5.361,-5.4399,-5.4785,-5.5592,-5.6822,-5.7207,-5.7593,-5.0092,-5.051,-5.0936,-5.0912,-5.0918,-5.0809,-5.0323,-5.0159,-4.9924,-4.9246,-4.8709,-4.8402,-4.8306,-4.8306,-4.8306,-4.8306,-4.8306,-4.8306,-4.8306,-4.8306,-4.8306,-4.8306,-4.8364,-4.8364,-4.8306,-4.8421,-4.8779,-4.9445,-4.9504,-4.9853,-5.0663,-5.0624,-5.0624,-5.0702,-5.0702,-5.0822,-5.1053,-5.1103,-5.1193,-5.1366,-5.1386,-5.1406,-5.1406,-5.1406,-5.1281,-5.1113,-5.1083,-5.0932,-5.0702,-5.0702,-5.0702,-5.0702,-5.0702,-5.0702,-5.0702,-5.0702,-5.0702,-5.0702,-5.0702,-5.0702,-5.0702,-5.0702,-5.0206,-4.9589,-4.9504,-4.8996,-4.8477,-4.8813,-4.8897,-4.8897,-4.8897,-4.8897,-4.8813,-4.8402,-4.8306,-4.8306,-4.8306,-4.8306,-4.8306,-4.8306,-4.8416,-4.8526,-4.8526,-4.9334,-5.0233,-5.0912,-5.1683,-5.2197,-5.2197,-5.2803,-5.3206,-5.3206,-5.3206,-5.3206,-5.3206,-5.3206,-5.3206,-5.3206,-5.3206,-5.3206,-5.3206,-5.3206,-5.328,-5.3408,-5.3427,-5.3812,-5.4601,-5.5409,-5.6216,-5.7024,-5.7685,-5.7997,-5.0092,-5.058,-5.1039,-5.0928,-5.0996,-5.0984,-5.0701,-5.0358,-5.0068,-4.9974,-4.9337,-4.8709,-4.8364,-4.8306,-4.8306,-4.8306,-4.8306,-4.8306,-4.8306,-4.8306,-4.8306,-4.8306,-4.8604,-4.8692,-4.8326,-4.893,-4.9386,-4.9475,-4.9504,-4.9853,-5.0663,-5.0358,-5.0336,-5.0683,-5.0702,-5.0773,-5.0918,-5.1031,-5.1145,-5.1234,-5.1344,-5.1406,-5.1406,-5.1406,-5.1281,-5.1084,-5.0979,-5.0835,-5.0702,-5.0702,-5.0702,-5.0702,-5.0702,-5.0702,-5.0702,-5.0702,-5.0702,-5.0702,-5.0702,-5.0702,-5.0702,-5.0702,-5.0399,-4.9949,-4.9608,-4.9171,-4.8829,-4.8897,-4.8897,-4.8897,-4.8897,-4.8897,-4.8813,-4.8402,-4.8306,-4.8306,-4.8306,-4.8306,-4.8306,-4.8306,-4.8912,-4.9426,-4.9426,-5.0674,-5.172,-5.1811,-5.2527,-5.3041,-5.3041,-5.3133,-5.3206,-5.3206,-5.3206,-5.3206,-5.3206,-5.3206,-5.3206,-5.3206,-5.3206,-5.3206,-5.3206,-5.3206,-5.3537,-5.4234,-5.4234,-5.4638,-5.5427,-5.6253,-5.706,-5.7831,-5.7941,-5.7997,-5.0421,-5.0711,-5.0956,-5.0903,-5.0936,-5.0956,-5.0825,-5.0625,-5.0358,-5.0159,-4.9827,-4.9367,-4.8744,-4.8458,-4.8306,-4.8306,-4.8306,-4.8306,-4.8306,-4.8306,-4.8383,-4.8604,-4.8813,-4.8829,-4.8657,-4.9139,-4.9416,-4.9171,-4.9356,-4.9746,-5.0336,-5.0202,-5.0272,-5.0683,-5.0702,-5.0775,-5.0908,-5.102,-5.116,-5.1318,-5.1366,-5.1406,-5.1406,-5.1406,-5.1316,-5.1147,-5.1044,-5.0945,-5.0805,-5.0721,-5.0702,-5.0702,-5.0702,-5.0702,-5.0702,-5.0702,-5.0702,-5.0702,-5.0702,-5.0702,-5.0702,-5.0702,-5.0272,-4.9773,-4.9827,-4.9416,-4.8978,-4.9445,-4.9416,-4.9234,-4.9234,-4.9075,-4.8813,-4.8402,-4.8306,-4.8434,-4.8912,-4.8636,-4.8434,-4.893,-4.9701,-5.0417,-5.0857,-5.1518,-5.2142,-5.2601,-5.2986,-5.3206,-5.3206,-5.3206,-5.3206,-5.3206,-5.3206,-5.3206,-5.3206,-5.3206,-5.3206,-5.3206,-5.3206,-5.3206,-5.3206,-5.3628,-5.4051,-5.4399,-5.4399,-5.5023,-5.6271,-5.6638,-5.7207,-5.7997,-5.7997,-5.7997,-5.0702,-5.0808,-5.0895,-5.0888,-5.0937,-5.0957,-5.0957,-5.0863,-5.0717,-5.0368,-5.0218,-4.9967,-4.9337,-4.8779,-4.8458,-4.8458,-4.8364,-4.8344,-4.8458,-4.8458,-4.8604,-4.8978,-4.9139,-4.9139,-4.893,-4.9356,-4.9445,-4.893,-4.9171,-4.9561,-5.0068,-4.9999,-5.0183,-5.0683,-5.0702,-5.0758,-5.0851,-5.1016,-5.12,-5.1406,-5.1406,-5.1406,-5.1406,-5.1406,-5.1344,-5.1258,-5.1137,-5.1008,-5.0894,-5.0757,-5.0702,-5.0702,-5.0702,-5.0702,-5.0702,-5.0702,-5.0702,-5.0702,-5.0702,-5.0702,-5.0702,-5.0702,-5.0294,-4.9827,-5.0043,-4.9673,-4.9307,-4.9924,-4.98,-4.9504,-4.9504,-4.9352,-4.9129,-4.8714,-4.8802,-4.9058,-4.9481,-4.9242,-4.9132,-4.9774,-5.0545,-5.1298,-5.1885,-5.216,-5.2509,-5.3115,-5.3206,-5.3206,-5.3206,-5.3206,-5.3206,-5.3206,-5.3206,-5.3206,-5.3206,-5.3206,-5.3206,-5.3206,-5.3206,-5.3298,-5.35,-5.4087,-5.4583,-5.5005,-5.5005,-5.5611,-5.6804,-5.7024,-5.7409,-5.7997,-5.7997,-5.7997,-5.0702,-5.0808,-5.0895,-5.0888,-5.1006,-5.1086,-5.1101,-5.1074,-5.105,-5.0903,-5.0561,-5.0235,-5.0078,-4.9416,-4.8863,-4.8863,-4.855,-4.8421,-4.8813,-4.8863,-4.9029,-4.9416,-4.98,-4.9746,-4.8978,-4.9617,-4.9728,-4.8963,-4.893,-4.9276,-5.0068,-4.9746,-4.9898,-5.0683,-5.0702,-5.0702,-5.0702,-5.0966,-5.12,-5.1406,-5.1406,-5.1406,-5.1406,-5.1406,-5.1406,-5.1386,-5.1186,-5.1008,-5.0894,-5.0757,-5.0702,-5.0702,-5.0702,-5.0702,-5.0702,-5.0702,-5.0702,-5.0702,-5.0702,-5.0702,-5.0702,-5.0702,-5.0663,-5.0565,-5.0206,-5.0068,-5.0043,-5.0092,-4.98,-4.9504,-4.9504,-4.9752,-4.9949,-4.9597,-5.0105,-5.0472,-4.9738,-5.016,-5.0692,-5.0729,-5.1389,-5.194,-5.1977,-5.2637,-5.317,-5.3206,-5.3206,-5.3206,-5.3206,-5.3206,-5.3206,-5.3206,-5.3206,-5.3206,-5.3206,-5.3206,-5.3206,-5.3206,-5.3206,-5.3555,-5.4308,-5.4381,-5.5115,-5.6657,-5.6693,-5.673,-5.6804,-5.7574,-5.796,-5.7997,-5.7997,-5.7997,-5.0702,-5.0808,-5.0898,-5.0891,-5.099,-5.1093,-5.1096,-5.1096,-5.1093,-5.105,-5.084,-5.067,-5.0621,-4.9904,-4.9295,-4.9295,-4.9171,-4.9126,-4.9265,-4.9295,-4.9445,-4.9827,-4.9773,-4.9719,-4.9673,-4.9924,-4.9853,-4.9326,-4.9532,-4.98,-5.0068,-4.9949,-5.0135,-5.0683,-5.0702,-5.074,-5.0839,-5.1016,-5.1152,-5.1268,-5.1365,-5.1406,-5.1406,-5.1406,-5.1406,-5.1386,-5.1186,-5.1063,-5.1016,-5.0791,-5.0702,-5.0702,-5.0702,-5.0702,-5.0702,-5.0702,-5.0702,-5.0702,-5.0702,-5.0702,-5.0702,-5.0702,-5.0523,-5.0336,-5.0442,-5.0294,-5.0255,-5.1031,-5.0799,-5.0398,-5.0956,-5.0826,-5.0542,-5.0401,-5.0967,-5.1481,-5.1187,-5.1353,-5.1573,-5.1573,-5.2215,-5.2766,-5.2766,-5.3023,-5.3206,-5.3206,-5.3206,-5.3206,-5.3206,-5.3206,-5.3206,-5.3206,-5.3206,-5.3206,-5.3206,-5.3206,-5.3206,-5.3206,-5.3683,-5.4106,-5.4399,-5.539,-5.6216,-5.6804,-5.7317,-5.7574,-5.7574,-5.785,-5.7997,-5.7997,-5.7997,-5.7997,-5.0702,-5.0808,-5.0903,-5.0972,-5.1043,-5.1149,-5.1191,-5.1206,-5.1193,-5.1145,-5.1055,-5.0977,-5.0918,-5.0394,-4.9904,-4.9728,-4.9608,-4.9551,-4.9692,-4.9719,-4.98,-5.0068,-4.9974,-4.9898,-4.9898,-5.0019,-4.9924,-4.9532,-4.9746,-4.9949,-5.0092,-5.0092,-5.0272,-5.0683,-5.0702,-5.0775,-5.0908,-5.102,-5.1137,-5.1201,-5.1343,-5.1406,-5.1406,-5.1406,-5.1406,-5.1386,-5.1199,-5.1111,-5.1074,-5.0805,-5.0702,-5.0702,-5.0702,-5.0702,-5.0702,-5.0702,-5.0702,-5.0702,-5.0702,-5.0702,-5.0702,-5.0702,-5.0523,-5.0416,-5.0931,-5.0926,-5.0933,-5.2026,-5.1751,-5.1277,-5.1843,-5.1597,-5.1261,-5.1555,-5.2013,-5.2399,-5.2399,-5.2399,-5.2399,-5.2399,-5.2839,-5.3206,-5.3206,-5.3206,-5.3206,-5.3206,-5.3206,-5.3206,-5.3206,-5.3206,-5.3206,-5.3206,-5.3206,-5.3206,-5.3206,-5.3206,-5.3335,-5.3592,-5.4106,-5.4638,-5.5188,-5.6235,-5.6932,-5.7207,-5.7721,-5.7997,-5.7997,-5.7997,-5.7997,-5.7997,-5.7997,-5.7997,0.0,0.0,0.0,-5.1083,-5.114,-5.1238,-5.1366,-5.1406,-5.1365,-5.1238,-5.1206,-5.1135,-5.094,-5.0889,-5.0728,-5.0191,-4.98,-4.9692,-5.0068,-5.0135,-5.0135,-5.0135,-5.0442,-5.038,-4.9589,-4.9898,-4.9949,-4.9561,-4.9551,-4.9719,-5.0092,-5.0135,-5.0313,-5.0683,-5.0702,-5.0775,-5.0908,-5.102,-5.1137,-5.1201,-5.1343,-5.1406,-5.1406,-5.1406,-5.1406,-5.1386,-5.1265,-5.1154,-5.1074,-5.0822,-5.0702,-5.0702,-5.0702,-5.0702,-5.0702,-5.0702,-5.0702,-5.0702,-5.0702,-5.0702,-5.0702,-5.0721,-5.0741,-5.0894,-5.1702,-5.1952,-5.2125,-5.2991,-5.2673,-5.2032,-5.2039,-5.2027,-5.2234,-5.3023,-5.3206,-5.3206,-5.3206,-5.3206,-5.3206,-5.3206,-5.3206,-5.3206,-5.3206,-5.3206,-5.3206,-5.3206,-5.3206,-5.3206,-5.3206,-5.3206,-5.3206,-5.3206,-5.3206,-5.3206,-5.3206,-5.3225,-5.3573,-5.4344,-5.4436,-5.517,-5.6748,-5.6822,-5.7207,-5.7978,-5.7997,-5.7997,-5.7997,-5.7997,-5.7997,-5.7997,-5.7997,-5.7997,-5.0822,0.0,0.0,0.0,0.0,0.0,-5.1268,-5.1322,-5.1386,-5.1344,-5.1268,-5.1174,-5.1063,-5.0972,-5.0816,-5.0566,-5.0442,-5.0399,-5.0523,-5.0544,-5.0544,-5.0544,-5.0377,-5.0294,-5.0358,-5.0225,-5.0183,-5.0358,-5.0358,-5.0421,-5.0544,-5.0544,-5.0584,-5.0702,-5.0702,-5.0775,-5.0908,-5.102,-5.1137,-5.1201,-5.1343,-5.1406,-5.1406,-5.1406,-5.1406,-5.1386,-5.1265,-5.1154,-5.1093,-5.0918,-5.0791,-5.0702,-5.0702,-5.0702,-5.0702,-5.0702,-5.0702,-5.0702,-5.0702,-5.0702,-5.0798,-5.1375,-5.1568,-5.1741,-5.2587,-5.2837,-5.3029,-5.3895,-5.3525,-5.2873,-5.2846,-5.2862,-5.2931,-5.317,-5.3206,-5.3206,-5.3206,-5.3206,-5.3206,-5.3206,-5.3206,-5.3206,-5.3206,-5.3206,-5.3206,-5.3206,-5.3206,-5.3206,-5.3206,-5.3206,-5.3206,-5.3206,-5.3206,-5.3206,-5.3206,-5.3739,-5.4161,-5.4399,-5.55,-5.6345,-5.6785,-5.7373,-5.7776,-5.7997,-5.7997,-5.7997,-5.7997,-5.7997,-5.7997,-5.7997,-5.7997,-5.7997,-5.0808,-5.0959,-5.1094,-5.1094,0.0,0.0,-5.1296,-5.1343,-5.1406,-5.1406,-5.1343,-5.1258,-5.1167,-5.1044,-5.0945,-5.0805,-5.0791,-5.0775,-5.0702,-5.0702,-5.0643,-5.0483,-5.0448,-5.047,-5.0529,-5.047,-5.0529,-5.0773,-5.0721,-5.0702,-5.0702,-5.0757,-5.0757,-5.0702,-5.0757,-5.0822,-5.0908,-5.102,-5.1137,-5.1201,-5.1343,-5.1406,-5.1406,-5.1406,-5.1406,-5.1406,-5.132,-5.121,-5.1084,-5.1016,-5.0863,-5.0702,-5.0702,-5.0702,-5.0702,-5.0702,-5.0702,-5.0741,-5.1087,-5.1202,-5.1337,-5.2183,-5.2452,-5.2606,-5.3491,-5.3741,-5.3893,-5.4549,-5.4126,-5.3414,-5.323,-5.3206,-5.3206,-5.3206,-5.3206,-5.3206,-5.3206,-5.3206,-5.3206,-5.3206,-5.3206,-5.3206,-5.3206,-5.3206,-5.3206,-5.3206,-5.3206,-5.3206,-5.3206,-5.3206,-5.3206,-5.3206,-5.3206,-5.3353,-5.3683,-5.4124,-5.4693,-5.5372,-5.629,-5.695,-5.7299,-5.7758,-5.7997,-5.7997,-5.7997,-5.7997,-5.7997,-5.7997,-5.7997,-5.7997,-5.7997,-5.7997,-5.074,-5.0918,-5.1113,-5.1122,-5.1269,0.0,-5.1289,-5.1269,-5.123,-5.1133,-5.1113,-5.1072,-5.0961,-5.0867,-5.0791,-5.0655,-5.0705,-5.0767,-5.0702,-5.074,-5.0625,-5.0233,-5.0621,-5.0767,-5.0411,-5.0716,-5.0918,-5.0889,-5.0791,-5.0721,-5.0721,-5.0851,-5.0867,-5.074,-5.0851,-5.0918,-5.0918,-5.1042,-5.1152,-5.1215,-5.1343,-5.1406,-5.1406,-5.1406,-5.1406,-5.1406,-5.1406,-5.1301,-5.1094,-5.1094,-5.0945,-5.0702,-5.0702,-5.0702,-5.0702,-5.0702,-5.076,-5.0933,-5.1664,-5.1972,-5.2202,-5.3068,-5.3337,-5.351,-5.4376,-5.4626,-5.4696,-5.495,-5.4433,-5.372,-5.3295,-5.3206,-5.3206,-5.3206,-5.3206,-5.3206,-5.3206,-5.3206,-5.3206,-5.3206,-5.3206,-5.3206,-5.3206,-5.3206,-5.3206,-5.3206,-5.3206,-5.3206,-5.3206,-5.3206,-5.3206,-5.3206,-5.3298,-5.3628,-5.4344,-5.4564,-5.528,-5.6712,-5.6895,-5.7262,-5.796,-5.7997,-5.7997,-5.7997,-5.7997,-5.7997,-5.7997,-5.7997,-5.7997,-5.7997,-5.7997,-5.7997,-5.0953,-5.1053,-5.1139,-5.1307,-5.1365,0.0,-5.0586,-5.043,-5.0234,-4.9531,-4.9394,-4.9353,-4.92,-4.9176,-4.912,-4.8992,-4.9565,-5.019,-5.0643,-5.0894,-5.0946,-5.0778,-5.0933,-5.1023,-5.095,-5.1011,-5.1016,-5.0903,-5.0879,-5.0848,-5.0848,-5.0991,-5.1004,-5.0883,-5.0991,-5.1053,-5.1053,-5.1133,-5.1234,-5.1365,-5.1386,-5.1406,-5.1406,-5.1406,-5.1406,-5.1406,-5.1406,-5.1301,-5.1094,-5.1094,-5.0945,-5.0702,-5.0702,-5.0702,-5.0702,-5.0702,-5.1106,-5.1702,-5.1856,-5.2375,-5.3087,-5.3953,-5.4241,-5.4395,-5.5222,-5.5472,-5.5343,-5.4781,-5.4221,-5.372,-5.3295,-5.3206,-5.3206,-5.3206,-5.3206,-5.3206,-5.3206,-5.3206,-5.3206,-5.3206,-5.3206,-5.3206,-5.3206,-5.3206,-5.3206,-5.3206,-5.3206,-5.3206,-5.3206,-5.3206,-5.3206,-5.3206,-5.3794,-5.4234,-5.4399,-5.5592,-5.6473,-5.6785,-5.7409,-5.7831,-5.7997,-5.7997,-5.7997,-5.7997,-5.7997,-5.7997,-5.7997,-5.7997,-5.7997,-5.7997,-5.7997,-5.7997,-5.105,-5.112,-5.1161,-5.1288,-5.1344,0.0,0.0,-5.0195,-4.9941,-4.9082,-4.8906,-4.8886,-4.8819,-4.8759,-4.8689,-4.8607,-4.934,-4.9828,-4.9625,-5.0472,-5.1083,-5.1016,-5.1093,-5.116,-5.116,-5.116,-5.1111,-5.1016,-5.1004,-5.1004,-5.1004,-5.1102,-5.1111,-5.1004,-5.1102,-5.116,-5.116,-5.1185,-5.1268,-5.1406,-5.1406,-5.1406,-5.1406,-5.1406,-5.1406,-5.1406,-5.1406,-5.1301,-5.1094,-5.1094,-5.0945,-5.0702,-5.0702,-5.0952,-5.1298,-5.1298,-5.1837,-5.2606,-5.3049,-5.3491,-5.3991,-5.4818,-5.5107,-5.5164,-5.5568,-5.5423,-5.4979,-5.4336,-5.3833,-5.3444,-5.323,-5.3206,-5.3206,-5.3206,-5.3206,-5.3206,-5.3206,-5.3206,-5.3206,-5.3206,-5.3206,-5.3206,-5.3206,-5.3206,-5.3206,-5.3206,-5.3206,-5.3206,-5.3206,-5.3206,-5.3353,-5.3775,-5.4161,-5.473,-5.5537,-5.6345,-5.6969,-5.7373,-5.7776,-5.7997,-5.7997,-5.7997,-5.7997,-5.7997,-5.7997,-5.7997,-5.7997,-5.7997,-5.7997,-5.7997,-5.7997,-5.7997,-5.1084,-5.1154,-5.1206,-5.1234,-5.132,-5.1152,0.0,0.0,0.0,-4.8613,-4.8398,-4.8398,-4.8398,-4.8311,-4.8248,-4.8248,-4.897,-4.9245,-4.8429,-4.9676,-5.0719,-5.0878,-5.1102,-5.1238,-5.1238,-5.123,-5.118,-5.112,-5.1131,-5.1131,-5.1131,-5.1205,-5.121,-5.1111,-5.1205,-5.1234,-5.1201,-5.1234,-5.1294,-5.1406,-5.1406,-5.1406,-5.1406,-5.1406,-5.1406,-5.1406,-5.1366,-5.1249,-5.1113,-5.1238,-5.115,-5.0933,-5.0933,-5.1337,-5.1933,-5.2106,-5.2702,-5.3549,-5.426,-5.4607,-5.4838,-5.5491,-5.564,-5.5577,-5.5577,-5.5015,-5.4288,-5.3924,-5.3505,-5.3206,-5.3206,-5.3206,-5.3206,-5.3206,-5.3206,-5.3206,-5.3206,-5.3206,-5.3206,-5.3206,-5.3206,-5.3206,-5.3206,-5.3206,-5.3206,-5.3206,-5.3206,-5.3206,-5.3206,-5.3206,-5.3518,-5.4308,-5.4546,-5.5225,-5.6693,-5.695,-5.7317,-5.796,-5.7997,-5.7997,-5.7997,-5.7997,-5.7997,-5.7997,-5.7997,-5.7997,-5.7997,-5.7997,-5.7997,-5.7997,-5.7997,-5.7997,-5.1147,-5.1196,-5.1234,-5.1344,-5.1386,-5.0996,-4.9414,0.0,-4.8574,-4.6933,0.0,-4.6601,-4.6601,0.0,0.0,-4.6562,-4.7304,-4.7831,-4.7712,-4.8532,-4.9385,-5.0045,-5.0867,-5.1386,-5.1386,-5.1268,-5.1201,-5.1191,-5.1191,-5.1191,-5.1191,-5.1318,-5.132,-5.1191,-5.1318,-5.132,-5.1201,-5.132,-5.1386,-5.1406,-5.1406,-5.1406,-5.1406,-5.1406,-5.1406,-5.1386,-5.1271,-5.1187,-5.1142,-5.1742,-5.1901,-5.176,-5.176,-5.1818,-5.1991,-5.2779,-5.3606,-5.4376,-5.4472,-5.4972,-5.5568,-5.5665,-5.5466,-5.516,-5.516,-5.4572,-5.3888,-5.3814,-5.3505,-5.3206,-5.3206,-5.3206,-5.3206,-5.3206,-5.3206,-5.3206,-5.3206,-5.3206,-5.3206,-5.3206,-5.3206,-5.3206,-5.3206,-5.3206,-5.3206,-5.3206,-5.3206,-5.3206,-5.3206,-5.3206,-5.3518,-5.4308,-5.5042,-5.5831,-5.673,-5.7446,-5.7905,-5.7997,-5.7997,-5.7997,-5.7997,-5.7997,-5.7997,-5.7997,-5.7997,-5.7997,-5.7997,-5.7997,-5.7997,-5.7997,-5.7997,-5.7997,-5.1268,-5.1265,-5.1234,-5.1366,-5.1343,-5.1006,-4.9902,-4.9258,-4.8555,-4.7305,0.0,0.0,0.0,0.0,0.0,0.0,-4.7031,-4.7422,-4.6914,-4.8476,-4.9765,-5.007,-5.0468,-5.0898,-5.1348,-5.1344,-5.132,-5.132,-5.132,-5.132,-5.132,-5.1366,-5.1366,-5.132,-5.1366,-5.1366,-5.132,-5.1366,-5.1406,-5.1406,-5.1406,-5.1406,-5.1406,-5.1406,-5.1406,-5.1386,-5.1265,-5.1427,-5.1813,-5.2025,-5.2329,-5.2702,-5.3222,-5.3414,-5.3453,-5.3818,-5.4472,-5.5203,-5.5203,-5.5415,-5.5703,-5.5703,-5.5423,-5.5061,-5.4819,-5.4303,-5.374,-5.3505,-5.3336,-5.3206,-5.3206,-5.3206,-5.3206,-5.3206,-5.3206,-5.3206,-5.3206,-5.3206,-5.3206,-5.3206,-5.3206,-5.3206,-5.3206,-5.3206,-5.3206,-5.3206,-5.3206,-5.3206,-5.3206,-5.361,-5.4197,-5.5005,-5.5812,-5.662,-5.7428,-5.7813,-5.7997,-5.7997,-5.7997,-5.7997,-5.7997,-5.7997,-5.7997,-5.7997,-5.7997,-5.7997,-5.7997,-5.7997,-5.7997,-5.7997,-5.7997,-5.7997,-5.1296,-5.1271,-5.1234,-5.1366,-5.1322,-5.1076,-5.0351,-4.9707,-4.8945,-4.7832,-4.7109,0.0,0.0,0.0,-4.6308,-4.6308,0.0,-4.7109,-4.6719,-4.8281,-4.957,-4.9824,-5.0254,-5.0762,-5.1348,-5.1406,-5.1406,-5.1406,-5.1406,-5.1406,-5.1406,-5.1406,-5.1406,-5.1406,-5.1406,-5.1406,-5.1406,-5.1406,-5.1406,-5.1406,-5.1406,-5.1406,-5.1406,-5.1406,-5.1386,-5.1343,-5.1455,-5.1771,-5.2282,-5.2616,-5.3069,-5.3645,-5.4491,-5.4818,-5.4818,-5.4818,-5.5203,-5.5703,-5.5703,-5.564,-5.5554,-5.5554,-5.5186,-5.4682,-5.4387,-5.3996,-5.3565,-5.3254,-5.3206,-5.3206,-5.3206,-5.3206,-5.3206,-5.3206,-5.3206,-5.3206,-5.3206,-5.3206,-5.3206,-5.3206,-5.3206,-5.3206,-5.3206,-5.3206,-5.3206,-5.3206,-5.3206,-5.3206,-5.3206,-5.3904,-5.4711,-5.55,-5.6326,-5.7134,-5.7923,-5.7997,-5.7997,-5.7997,-5.7997,-5.7997,-5.7997,-5.7997,-5.7997,-5.7997,-5.7997,-5.7997,-5.7997,-5.7997,-5.7997,-5.7997,-5.7997,-5.7997,-5.1148,-5.1206,-5.1234,-5.1366,-5.1406,-5.1172,-5.0371,-5.0176,-4.9668,-4.7949,-4.7578,-4.7305,-4.6465,-4.6308,-4.6308,-4.6308,-4.6328,0.0,0.0,-4.7637,-4.8008,-4.8848,-5.0371,-5.1367,-5.1406,-5.1406,-5.1406,-5.1406,-5.1406,-5.1406,-5.1406,-5.1406,-5.1406,-5.1406,-5.1406,-5.1406,-5.1406,-5.1406,-5.1406,-5.1406,-5.1406,-5.1406,-5.1406,-5.1406,-5.1322,-5.124,-5.1966,-5.2193,-5.2229,-5.3783,-5.4434,-5.453,-5.5338,-5.5665,-5.5665,-5.5665,-5.5684,-5.5703,-5.5703,-5.5466,-5.5134,-5.5134,-5.4541,-5.3851,-5.3814,-5.3545,-5.3206,-5.3206,-5.3206,-5.3206,-5.3206,-5.3206,-5.3206,-5.3206,-5.3206,-5.3206,-5.3206,-5.3206,-5.3206,-5.3206,-5.3206,-5.3206,-5.3206,-5.3206,-5.3206,-5.3206,-5.3206,-5.3206,-5.3206,-5.3904,-5.4711,-5.55,-5.6326,-5.7134,-5.7923,-5.7997,-5.7997,-5.7997,-5.7997,-5.7997,-5.7997,-5.7997,-5.7997,-5.7997,-5.7997,-5.7997,-5.7997,-5.7997,-5.7997,-5.7997,-5.7997,-5.7997,-5.1111,-5.1074,-5.1045,-5.1225,-5.1221,-5.1171,-5.1033,-5.0586,-5.0039,-4.9433,-4.8867,-4.8379,-4.8066,-4.8027,-4.8027,-4.8027,-4.8027,-4.8125,0.0,-4.8965,-4.9629,-5.0469,-5.1055,-5.1406,-5.1406,-5.1406,-5.1406,-5.1406,-5.1406,-5.1406,-5.1406,-5.1406,-5.1406,-5.1406,-5.1406,-5.1406,-5.1406,-5.1406,-5.1406,-5.1406,-5.1318,-5.1268,-5.1288,-5.1771,-5.1959,-5.1977,-5.2717,-5.3335,-5.3859,-5.4304,-5.4799,-5.5318,-5.5588,-5.5703,-5.5703,-5.5703,-5.5703,-5.5662,-5.5399,-5.5034,-5.4701,-5.4701,-5.427,-5.3814,-5.3814,-5.3505,-5.3206,-5.3206,-5.3206,-5.3206,-5.3206,-5.3206,-5.3206,-5.3206,-5.3206,-5.3206,-5.3206,-5.3206,-5.3206,-5.3206,-5.3206,-5.3206,-5.3206,-5.3206,-5.3206,-5.3206,-5.3206,-5.339,-5.394,-5.4693,-5.55,-5.6308,-5.7116,-5.7703,-5.7978,-5.7997,-5.7997,-5.7997,-5.7997,-5.7997,-5.7997,-5.7997,-5.7997,-5.7997,-5.7997,-5.7997,-5.7997,-5.7997,-5.7997,-5.7997,-5.7997,-5.7997,-5.1016,-5.0985,-5.094,-5.1117,-5.116,-5.1174,-5.1294,-5.0956,-5.0547,-5.0254,-4.9746,-4.9277,-4.8965,-4.8906,-4.8906,-4.8906,-4.8906,-4.9004,0.0,-5.0098,-5.082,-5.1348,-5.1406,-5.1406,-5.1406,-5.1406,-5.1406,-5.1406,-5.1406,-5.1406,-5.1406,-5.1406,-5.1406,-5.1406,-5.1406,-5.1406,-5.1406,-5.1406,-5.1386,-5.1322,-5.1238,-5.1347,-5.1603,-5.2076,-5.2433,-5.2725,-5.3529,-5.4136,-5.4629,-5.4842,-5.5222,-5.5703,-5.5703,-5.5599,-5.5512,-5.564,-5.5599,-5.5423,-5.5034,-5.4609,-5.4255,-5.4255,-5.396,-5.3604,-5.3604,-5.3422,-5.3151,-5.2858,-5.2986,-5.3133,-5.2858,-5.3004,-5.3206,-5.3206,-5.3206,-5.3206,-5.3206,-5.3206,-5.3206,-5.3206,-5.3206,-5.3206,-5.3206,-5.3206,-5.3206,-5.3206,-5.3206,-5.35,-5.4308,-5.5097,-5.5904,-5.6712,-5.7519,-5.7997,-5.7997,-5.7997,-5.7997,-5.7997,-5.7997,-5.7997,-5.7997,-5.7997,-5.7997,-5.7997,-5.7997,-5.7997,-5.7997,-5.7997,-5.7997,-5.7997,-5.7997,-5.7997]},{"header":{"parameterUnit":"m.s-1","parameterCategory":1,"la1":30.6,"la2":29.2853,"lo1":-89.7004,"lo2":-87.6739,"dy":0.0162,"dx":0.0183,"nx":112,"ny":82,"refTime":"2023-04-23T06:00:00:Z","depth":0,"parameterNumber":3,"parameterNumberName":"V-component_of_WINDS"},"data":[0.0,0.0,0.0,0.0,0.0,0.0,0.0,0.0,0.0,0.0,0.0,0.0,0.0,0.0,0.0,0.0,0.0,0.0,0.0,0.0,0.0,0.0,0.0,0.0,0.0,0.0,0.0,0.0,0.0,0.0,0.0,0.0,0.0,0.0,0.0,0.0,0.0,0.0,0.0,0.0,0.0,0.0,0.0,0.0,0.0,0.0,0.0,0.0,0.0,0.0,0.0,0.0,0.0,0.0,0.0,0.0,0.0,0.0,0.0,0.0,0.0,0.0,0.0,0.0,0.0,0.0,0.0,0.0,0.0,0.0,0.0,0.0,0.0,0.0,0.0,0.0,0.0,0.0,0.0,0.0,0.0,0.0,0.0,0.0,0.0,0.0,0.0,0.0,0.0,0.0,-1.9366,-1.9366,-1.9366,-1.9366,-1.9366,-1.9366,-1.8765,-1.7085,0.0,0.0,0.0,0.0,0.0,0.0,0.0,0.0,0.0,0.0,0.0,0.0,0.0,0.0,0.0,0.0,0.0,0.0,0.0,0.0,0.0,0.0,0.0,0.0,0.0,0.0,0.0,0.0,0.0,0.0,0.0,0.0,0.0,0.0,0.0,0.0,0.0,0.0,0.0,0.0,0.0,0.0,0.0,0.0,0.0,0.0,0.0,0.0,0.0,0.0,0.0,0.0,0.0,0.0,0.0,0.0,0.0,0.0,0.0,0.0,0.0,0.0,0.0,0.0,0.0,0.0,0.0,0.0,0.0,0.0,0.0,0.0,0.0,0.0,0.0,0.0,0.0,0.0,0.0,0.0,0.0,0.0,0.0,0.0,0.0,0.0,0.0,0.0,0.0,0.0,0.0,0.0,0.0,0.0,0.0,0.0,0.0,0.0,0.0,0.0,0.0,0.0,0.0,0.0,-1.9366,-1.9366,-1.9366,-1.9366,-1.9366,-1.9366,-1.8765,-1.7085,0.0,0.0,0.0,0.0,0.0,0.0,0.0,0.0,0.0,0.0,0.0,0.0,0.0,0.0,0.0,0.0,0.0,0.0,0.0,0.0,0.0,0.0,0.0,0.0,0.0,0.0,0.0,0.0,0.0,0.0,0.0,0.0,0.0,0.0,0.0,0.0,0.0,0.0,0.0,0.0,0.0,0.0,0.0,0.0,0.0,0.0,0.0,0.0,0.0,0.0,0.0,0.0,0.0,0.0,0.0,0.0,0.0,0.0,0.0,0.0,0.0,0.0,0.0,0.0,0.0,0.0,0.0,0.0,0.0,0.0,0.0,0.0,0.0,0.0,0.0,0.0,0.0,0.0,0.0,0.0,0.0,0.0,0.0,0.0,0.0,0.0,0.0,0.0,0.0,0.0,0.0,0.0,0.0,0.0,0.0,0.0,0.0,0.0,0.0,0.0,0.0,0.0,0.0,-1.9366,-1.9366,-1.9366,-1.9366,-1.9366,-1.9366,-1.9366,-1.9127,-1.8402,-1.7443,0.0,0.0,0.0,0.0,0.0,0.0,0.0,0.0,0.0,0.0,0.0,0.0,0.0,0.0,0.0,0.0,0.0,0.0,0.0,0.0,0.0,0.0,0.0,0.0,0.0,0.0,0.0,0.0,0.0,0.0,0.0,0.0,0.0,0.0,0.0,0.0,0.0,0.0,0.0,0.0,0.0,0.0,0.0,0.0,0.0,0.0,0.0,0.0,0.0,0.0,0.0,0.0,0.0,0.0,0.0,0.0,0.0,0.0,0.0,0.0,0.0,0.0,0.0,0.0,0.0,0.0,0.0,0.0,0.0,0.0,0.0,0.0,0.0,0.0,0.0,0.0,0.0,0.0,0.0,0.0,0.0,0.0,0.0,0.0,0.0,0.0,0.0,0.0,0.0,0.0,0.0,0.0,0.0,0.0,0.0,0.0,0.0,0.0,0.0,0.0,0.0,0.0,-1.9366,-1.9366,-1.9366,-1.9366,-1.9366,-1.9366,-1.9366,-1.9366,-1.9366,-1.8286,0.0,0.0,0.0,0.0,0.0,0.0,0.0,0.0,0.0,0.0,0.0,0.0,0.0,0.0,0.0,0.0,0.0,0.0,0.0,0.0,0.0,0.0,0.0,0.0,0.0,0.0,0.0,0.0,0.0,0.0,0.0,0.0,0.0,0.0,0.0,0.0,0.0,0.0,0.0,0.0,0.0,0.0,0.0,0.0,0.0,0.0,0.0,0.0,0.0,0.0,0.0,0.0,0.0,0.0,0.0,0.0,0.0,0.0,0.0,0.0,0.0,0.0,0.0,0.0,0.0,0.0,0.0,0.0,0.0,0.0,0.0,0.0,0.0,0.0,0.0,0.0,0.0,0.0,0.0,0.0,0.0,0.0,0.0,0.0,0.0,0.0,0.0,0.0,0.0,0.0,0.0,0.0,0.0,0.0,0.0,0.0,0.0,0.0,0.0,0.0,0.0,0.0,-1.9366,-1.9366,-1.9366,-1.9366,-1.9366,-1.9366,-1.9366,-1.9366,-1.9366,-1.9249,0.0,0.0,0.0,0.0,0.0,0.0,0.0,0.0,0.0,0.0,0.0,0.0,0.0,0.0,0.0,0.0,0.0,0.0,0.0,0.0,0.0,0.0,0.0,0.0,0.0,0.0,0.0,0.0,0.0,0.0,0.0,0.0,0.0,0.0,0.0,0.0,0.0,0.0,0.0,0.0,0.0,0.0,0.0,0.0,0.0,0.0,0.0,0.0,0.0,0.0,0.0,0.0,0.0,0.0,0.0,0.0,0.0,0.0,0.0,0.0,0.0,0.0,0.0,0.0,0.0,0.0,0.0,0.0,0.0,0.0,0.0,0.0,0.0,0.0,0.0,0.0,0.0,0.0,0.0,0.0,0.0,0.0,0.0,0.0,0.0,0.0,0.0,0.0,0.0,0.0,0.0,0.0,0.0,0.0,0.0,0.0,0.0,0.0,0.0,0.0,0.0,0.0,-1.9366,-1.9366,-1.9366,-1.9366,-1.9366,-1.9366,-1.9366,-1.9366,-1.9366,0.0,0.0,0.0,0.0,0.0,0.0,0.0,0.0,0.0,0.0,0.0,0.0,0.0,0.0,0.0,0.0,0.0,0.0,0.0,0.0,0.0,0.0,0.0,0.0,0.0,0.0,0.0,0.0,0.0,0.0,0.0,0.0,0.0,0.0,0.0,0.0,0.0,0.0,0.0,0.0,0.0,0.0,0.0,0.0,0.0,0.0,0.0,0.0,0.0,0.0,0.0,0.0,0.0,0.0,0.0,0.0,0.0,0.0,0.0,0.0,0.0,0.0,0.0,0.0,0.0,0.0,0.0,0.0,0.0,0.0,0.0,0.0,0.0,0.0,0.0,0.0,0.0,0.0,0.0,0.0,0.0,0.0,0.0,0.0,0.0,0.0,0.0,0.0,0.0,0.0,0.0,0.0,0.0,0.0,0.0,0.0,0.0,0.0,0.0,0.0,0.0,0.0,-1.9366,-1.9366,-1.9366,-1.9366,-1.9366,-1.9366,-1.9366,-1.9366,-1.9366,-1.9366,0.0,0.0,0.0,0.0,0.0,0.0,0.0,0.0,0.0,0.0,0.0,0.0,0.0,0.0,0.0,0.0,0.0,0.0,0.0,0.0,0.0,0.0,0.0,0.0,0.0,0.0,0.0,0.0,0.0,0.0,0.0,0.0,0.0,0.0,0.0,0.0,0.0,0.0,0.0,0.0,0.0,0.0,0.0,0.0,0.0,0.0,0.0,0.0,0.0,0.0,0.0,0.0,0.0,0.0,0.0,0.0,0.0,0.0,0.0,0.0,0.0,0.0,0.0,0.0,0.0,0.0,0.0,0.0,0.0,0.0,0.0,0.0,0.0,0.0,0.0,0.0,0.0,0.0,0.0,0.0,0.0,0.0,0.0,0.0,0.0,0.0,0.0,0.0,0.0,0.0,0.0,0.0,0.0,0.0,0.0,0.0,0.0,0.0,0.0,0.0,0.0,0.0,-1.9243,-1.9366,-1.9366,-1.9366,-1.9366,-1.9366,-1.9366,-1.9366,-1.9366,0.0,0.0,0.0,0.0,0.0,0.0,0.0,0.0,0.0,0.0,0.0,0.0,0.0,0.0,0.0,0.0,0.0,0.0,0.0,0.0,0.0,0.0,0.0,0.0,0.0,0.0,0.0,0.0,0.0,0.0,0.0,0.0,0.0,0.0,0.0,0.0,0.0,0.0,0.0,0.0,0.0,0.0,0.0,0.0,0.0,0.0,0.0,0.0,0.0,0.0,0.0,0.0,0.0,0.0,0.0,0.0,0.0,0.0,0.0,0.0,0.0,0.0,0.0,0.0,0.0,0.0,0.0,0.0,0.0,0.0,0.0,0.0,0.0,0.0,0.0,0.0,0.0,0.0,0.0,0.0,0.0,0.0,0.0,0.0,0.0,0.0,0.0,0.0,0.0,0.0,0.0,0.0,0.0,0.0,0.0,0.0,0.0,0.0,0.0,0.0,0.0,0.0,0.0,-1.9243,-1.9366,-1.9366,-1.9366,-1.9366,-1.9366,-1.9366,-1.9366,-1.8887,-1.7806,0.0,0.0,0.0,0.0,0.0,0.0,0.0,0.0,0.0,0.0,0.0,0.0,0.0,0.0,0.0,0.0,0.0,0.0,0.0,0.0,0.0,0.0,0.0,0.0,0.0,0.0,0.0,0.0,0.0,0.0,0.0,0.0,0.0,0.0,0.0,0.0,0.0,0.0,0.0,0.0,0.0,0.0,0.0,0.0,0.0,0.0,0.0,0.0,0.0,0.0,0.0,0.0,0.0,0.0,0.0,0.0,0.0,0.0,0.0,0.0,0.0,0.0,0.0,0.0,0.0,0.0,0.0,0.0,0.0,0.0,0.0,0.0,0.0,0.0,0.0,0.0,0.0,0.0,0.0,0.0,0.0,0.0,0.0,0.0,0.0,0.0,0.0,0.0,0.0,0.0,0.0,0.0,0.0,0.0,0.0,0.0,0.0,0.0,0.0,0.0,0.0,0.0,-1.8286,-1.9004,-1.9366,-1.9366,-1.9366,-1.9366,-1.9366,-1.9366,-1.9004,-1.8046,0.0,0.0,0.0,0.0,0.0,0.0,0.0,0.0,0.0,0.0,0.0,0.0,0.0,0.0,0.0,0.0,0.0,0.0,0.0,0.0,0.0,0.0,0.0,0.0,0.0,0.0,0.0,0.0,0.0,0.0,0.0,0.0,0.0,0.0,0.0,0.0,0.0,0.0,0.0,0.0,0.0,0.0,0.0,0.0,0.0,0.0,0.0,0.0,0.0,0.0,0.0,0.0,0.0,0.0,0.0,0.0,0.0,0.0,0.0,0.0,0.0,0.0,0.0,0.0,0.0,0.0,0.0,0.0,0.0,0.0,0.0,0.0,0.0,0.0,0.0,0.0,0.0,0.0,0.0,0.0,0.0,0.0,0.0,0.0,0.0,0.0,0.0,0.0,0.0,0.0,0.0,0.0,0.0,0.0,0.0,0.0,0.0,0.0,0.0,0.0,0.0,0.0,-1.685,-1.8402,-1.9366,-1.9366,-1.9366,-1.9366,-1.9366,-1.9366,-1.9366,-1.9243,0.0,0.0,0.0,0.0,0.0,0.0,0.0,0.0,0.0,0.0,0.0,0.0,0.0,0.0,0.0,0.0,0.0,0.0,0.0,0.0,0.0,0.0,0.0,0.0,0.0,0.0,0.0,0.0,0.0,0.0,0.0,0.0,0.0,0.0,0.0,0.0,0.0,0.0,0.0,0.0,0.0,0.0,0.0,0.0,0.0,0.0,0.0,0.0,0.0,0.0,0.0,0.0,0.0,0.0,0.0,0.0,0.0,0.0,0.0,0.0,-0.9822,-0.9822,0.0,0.0,0.0,0.0,0.0,0.0,0.0,0.0,0.0,0.0,0.0,0.0,0.0,0.0,0.0,0.0,0.0,0.0,0.0,0.0,0.0,0.0,0.0,0.0,0.0,0.0,0.0,0.0,0.0,0.0,0.0,0.0,0.0,0.0,0.0,0.0,0.0,0.0,0.0,0.0,-1.685,-1.8402,-1.9366,-1.9366,-1.9366,-1.9366,-1.9366,-1.9366,-1.8887,-1.7566,-1.8402,0.0,0.0,0.0,0.0,0.0,0.0,0.0,0.0,0.0,0.0,0.0,0.0,0.0,0.0,0.0,0.0,0.0,0.0,0.0,0.0,0.0,0.0,0.0,0.0,0.0,0.0,0.0,0.0,0.0,0.0,0.0,0.0,0.0,0.0,0.0,0.0,0.0,0.0,0.0,0.0,0.0,0.0,0.0,0.0,0.0,0.0,0.0,0.0,0.0,0.0,0.0,0.0,0.0,0.0,0.0,0.0,0.0,0.0,0.0,-0.9822,-0.9822,0.0,0.0,0.0,0.0,0.0,0.0,0.0,0.0,0.0,0.0,0.0,0.0,0.0,0.0,0.0,0.0,0.0,0.0,0.0,0.0,0.0,0.0,0.0,0.0,0.0,0.0,0.0,0.0,0.0,0.0,0.0,0.0,0.0,0.0,0.0,0.0,0.0,0.0,0.0,0.0,-1.5784,-1.7929,-1.9366,-1.9366,-1.9366,-1.9366,-1.9366,-1.9366,-1.9004,-1.8169,-1.8169,0.0,0.0,0.0,0.0,0.0,0.0,0.0,0.0,0.0,0.0,0.0,0.0,0.0,0.0,0.0,0.0,0.0,0.0,0.0,0.0,0.0,0.0,0.0,0.0,0.0,0.0,0.0,0.0,0.0,0.0,0.0,0.0,0.0,0.0,0.0,0.0,0.0,0.0,0.0,0.0,0.0,0.0,0.0,0.0,0.0,0.0,0.0,0.0,0.0,0.0,0.0,0.0,0.0,-0.9822,-0.9822,-0.9822,-0.9822,-0.9822,-0.9822,-0.9822,-0.9822,-0.9822,-0.9822,0.0,0.0,0.0,0.0,0.0,0.0,0.0,0.0,0.0,0.0,0.0,0.0,0.0,0.0,0.0,0.0,0.0,0.0,0.0,0.0,0.0,0.0,-1.6973,-1.8292,-1.7572,-1.6609,-1.6968,0.0,0.0,0.0,0.0,0.0,0.0,0.0,0.0,0.0,0.0,0.0,-1.4247,-1.6979,-1.8887,-1.8648,-1.8765,-1.9004,-1.9004,-1.9243,-1.9366,-1.9366,-1.8163,-1.7923,0.0,0.0,0.0,0.0,0.0,0.0,0.0,0.0,0.0,0.0,0.0,0.0,0.0,0.0,0.0,0.0,0.0,0.0,0.0,0.0,0.0,0.0,0.0,0.0,0.0,0.0,0.0,0.0,0.0,0.0,0.0,0.0,-0.9326,-0.785,0.0,0.0,0.0,0.0,0.0,0.0,0.0,0.0,0.0,0.0,0.0,0.0,0.0,-0.7975,-0.9819,-0.9822,-0.9822,-0.9822,-0.9822,-0.9822,-0.9822,-0.9822,-0.9822,-0.9822,-0.9822,0.0,-0.9822,-0.9822,0.0,0.0,0.0,0.0,0.0,0.0,0.0,0.0,0.0,0.0,0.0,0.0,0.0,0.0,0.0,0.0,0.0,0.0,0.0,0.0,0.0,0.0,-1.4955,-1.5198,-1.5079,-1.5311,-1.6733,-1.5784,-1.4604,-1.4604,-1.4485,-1.3885,0.0,0.0,0.0,0.0,0.0,0.0,-1.2693,-1.5306,-1.6733,-1.5435,-1.6497,-1.7325,-1.7325,-1.8642,-1.9366,-1.9366,-1.9243,-1.8525,-1.7325,-1.8286,0.0,0.0,0.0,0.0,0.0,0.0,0.0,0.0,0.0,0.0,0.0,0.0,0.0,0.0,0.0,0.0,0.0,0.0,0.0,0.0,0.0,0.0,0.0,0.0,0.0,0.0,0.0,0.0,0.0,-0.9822,-0.9204,-0.7604,-0.5894,-0.4303,0.0,0.0,0.0,0.0,0.0,0.0,0.0,0.0,0.0,-0.4795,-0.5649,-0.724,-0.9819,-0.9822,-0.9822,-0.9822,-0.9822,-0.9822,-0.9822,-0.9822,-0.9822,-0.9822,-0.9822,-0.9822,-0.9822,-0.9822,-1.0301,-1.1137,0.0,0.0,0.0,0.0,-1.3526,-1.3765,-1.5429,-1.5902,-1.5902,-1.5902,0.0,0.0,0.0,0.0,0.0,0.0,0.0,-1.102,-1.1976,-1.2693,-1.3526,-1.4361,-1.4604,-1.4837,-1.5548,-1.5074,-1.4837,-1.5784,-1.5192,-1.4128,-1.2453,-1.2213,0.0,0.0,0.0,-1.3053,-1.2333,-1.4237,-1.5429,-1.4723,-1.5192,-1.5666,-1.5666,-1.7091,-1.8046,-1.8046,-1.8887,-1.9127,-1.8402,-1.8163,-1.6973,0.0,0.0,0.0,0.0,0.0,0.0,0.0,0.0,0.0,0.0,0.0,0.0,0.0,0.0,0.0,0.0,0.0,0.0,0.0,0.0,0.0,0.0,0.0,0.0,0.0,0.0,0.0,0.0,-0.9822,-0.9204,-0.7604,-0.5894,-0.4303,0.0,0.0,0.0,0.0,0.0,0.0,0.0,-0.037,-0.1725,-0.4182,-0.4671,-0.6263,-0.9204,-0.9204,-0.9451,-0.9822,-0.9822,-0.9822,-0.9822,-0.9822,-0.9822,-0.9822,-0.9822,-0.9822,-0.9822,-0.9822,-1.0778,-1.2213,-1.2213,-1.3168,-1.4604,-1.5079,-1.5192,-1.5429,-1.7091,-1.7566,-1.7566,-1.7085,-1.6492,-1.53,-1.2928,0.0,0.0,0.0,0.0,-1.0061,-1.1257,-1.1615,-1.1856,-1.3053,-1.3412,-1.3526,-1.3889,-1.3646,-1.4004,-1.602,-1.5784,-1.4718,-1.3048,-1.3168,0.0,-1.0781,-1.1736,-1.2573,-1.1736,-1.3007,-1.3808,-1.3337,-1.3689,-1.3921,-1.3921,-1.5392,-1.6374,-1.6374,-1.7929,-1.8765,-1.8765,-1.7683,-1.6256,-1.4604,0.0,0.0,0.0,0.0,0.0,0.0,0.0,0.0,0.0,0.0,0.0,0.0,0.0,0.0,0.0,0.0,0.0,0.0,0.0,0.0,0.0,0.0,0.0,0.0,0.0,0.0,0.0,0.0,0.0,-0.7604,-0.5894,0.0,0.0,0.0,0.0,0.0,0.0,0.0,0.0,-0.1479,-0.2462,-0.2585,-0.4059,-0.5772,-0.7482,-0.7482,-0.8343,-0.9822,-0.9822,-0.9822,-0.9822,-0.9822,-0.9822,-0.9822,-0.9822,-0.9822,-0.9822,-0.9822,-1.0778,-1.2213,-1.2213,-1.3168,-1.4842,-1.6374,-1.685,-1.7091,-1.8765,-1.9249,-1.9004,-1.7449,-1.4945,-1.2453,-1.2213,-1.114,0.0,0.0,-0.9822,-0.9822,-0.9943,-0.994,-0.994,-1.0061,-1.0061,-1.0418,-1.1976,-1.114,-1.102,-1.4123,-1.5902,-1.6374,-1.4718,0.0,-1.566,-1.2569,-1.3412,-1.3412,-1.0301,-1.1232,-1.1602,-0.9972,-1.1252,-1.2181,-1.2181,-1.3769,-1.4718,-1.4718,-1.6256,-1.7085,-1.7085,-1.7085,-1.6256,-1.4604,-1.3053,0.0,0.0,0.0,0.0,0.0,0.0,0.0,0.0,0.0,0.0,0.0,0.0,0.0,0.0,0.0,0.0,0.0,0.0,0.0,0.0,0.0,0.0,0.0,0.0,0.0,0.0,0.0,0.0,-0.6139,-0.5284,0.0,-0.111,-0.037,0.0,0.0,0.0,0.0,0.0,-0.0617,-0.1356,-0.2462,-0.3076,-0.418,-0.5772,-0.5772,-0.6628,-0.8221,-0.8221,-0.8833,-0.9822,-0.9822,-0.9822,-0.9822,-0.9822,-0.9822,-0.9822,-0.9822,-1.0778,-1.2333,-1.3287,-1.4128,-1.496,-1.7572,-1.7923,-1.7202,-1.8881,-1.9366,-1.9127,-1.7566,-1.4826,-1.2213,-1.2213,-1.114,-0.9822,-0.9822,-0.9822,-0.9822,-0.9822,-0.9822,-0.9822,-0.9822,-0.9822,-0.994,-1.0539,-1.0179,-1.0183,-1.1257,-1.2808,-1.4118,-1.4485,-1.5074,-1.4713,-1.2573,-1.2693,-1.2294,-0.9933,-1.0108,-1.0152,-0.959,-1.0036,-1.0379,-1.0379,-1.2862,-1.4504,-1.4504,-1.7002,-1.8525,-1.8525,-1.7566,-1.6256,-1.4604,-1.4004,-1.2693,0.0,0.0,0.0,0.0,0.0,0.0,0.0,0.0,0.0,0.0,0.0,0.0,0.0,0.0,0.0,0.0,0.0,0.0,0.0,0.0,0.0,0.0,0.0,0.0,0.0,-0.9822,-0.8593,-0.5284,-0.4916,-0.3568,-0.037,0.0,0.0,0.0,0.0,0.0,0.0,0.0,-0.0494,-0.1602,-0.1602,-0.2462,-0.4059,-0.4059,-0.4914,-0.6505,-0.7116,-0.7972,-0.8958,-0.9572,-0.9822,-0.9822,-0.9822,-0.9822,-0.9822,-0.9822,-1.0418,-1.1495,-1.3172,-1.4123,-1.496,-1.7572,-1.7923,-1.7202,-1.8881,-1.8292,-1.6856,-1.6374,-1.3999,-1.1378,-1.1378,-1.066,-0.9822,-0.9822,-0.9822,-0.9822,-0.9822,-0.9822,-0.9822,-0.9822,-0.9822,-0.9822,-0.9822,-0.9822,-0.9822,-0.9822,-1.114,-1.2573,-1.3651,-1.4247,-1.398,-1.2367,-1.212,-1.1466,-0.9783,-0.9486,-0.9415,-0.9313,-0.9303,-0.9303,-0.9303,-1.1392,-1.291,-1.3558,-1.6164,-1.7952,-1.8525,-1.7091,-1.5666,-1.4604,-1.4123,-1.2453,-0.9822,0.0,0.0,0.0,0.0,0.0,0.0,0.0,0.0,0.0,0.0,0.0,0.0,0.0,0.0,0.0,0.0,0.0,0.0,0.0,0.0,0.0,0.0,0.0,-0.9576,-0.9822,-0.8593,-0.5284,-0.4916,-0.3568,-0.037,0.0,0.0,0.0,0.0,0.0,0.0,0.0,0.0,0.0,0.0,-0.074,-0.2463,-0.2463,-0.3199,-0.4794,-0.6505,-0.736,-0.7482,-0.9079,-0.9822,-0.9822,-0.9822,-0.9822,-0.9822,-0.9822,-0.9822,-0.994,-1.1619,-1.3172,-1.4599,-1.6256,-1.6968,-1.7208,-1.8765,-1.6144,-1.2573,-1.4004,-1.2453,-0.9819,-0.9822,-0.9822,-0.9822,-0.9822,-0.9822,-0.9822,-0.9822,-0.9822,-0.9822,-0.9822,-0.9822,-0.9822,-0.9822,-0.9822,-0.9822,-0.9822,-1.102,-1.2093,-1.2213,-1.3522,-1.3921,-1.2194,-1.2043,0.0,-0.9624,-0.9245,-0.915,-0.9147,-0.9147,-0.9147,-0.9147,-0.9401,-1.0237,-1.1904,-1.3558,-1.5295,-1.6944,-1.5429,-1.4604,-1.4485,-1.2933,-1.1378,-0.9822,0.0,0.0,0.0,0.0,0.0,0.0,0.0,0.0,0.0,0.0,0.0,0.0,0.0,0.0,0.0,0.0,0.0,0.0,0.0,0.0,0.0,-0.7856,-0.9326,-0.97,-0.9822,-0.8593,-0.5284,-0.4916,-0.3568,-0.037,0.0,0.0,0.0,0.0,0.0,0.0,0.0,0.0,0.0,0.0,-0.0247,-0.074,-0.074,-0.1479,-0.3199,-0.4792,-0.6261,-0.7482,-0.9079,-0.9822,-0.9822,-0.9822,-0.9822,-0.9822,-0.9822,-0.9822,-0.994,-1.1619,-1.1736,-1.1499,-1.4242,-1.5311,-1.5311,-1.579,-1.5074,-1.3765,-1.3053,-1.2213,-1.1378,-1.0179,-0.9822,-0.9822,-0.9822,-0.9822,-0.9822,-0.9822,-0.9822,-0.9822,-0.9822,-0.9822,-0.9822,-0.9822,-0.9822,-0.9822,-0.9822,-1.0179,-1.0778,-1.1976,-1.2456,-1.2578,-1.2055,-1.1936,-1.1216,-0.946,-0.9178,-0.9113,-0.9008,-0.8998,-0.8998,-0.8998,-1.1127,-1.2262,-1.1641,-1.546,-1.743,-1.6789,-1.5333,-1.3526,-1.114,-1.066,-1.0179,0.0,0.0,0.0,0.0,0.0,0.0,0.0,0.0,0.0,0.0,0.0,0.0,0.0,0.0,0.0,0.0,0.0,0.0,0.0,0.0,0.0,0.0,-0.7609,-0.859,-0.7856,-0.8346,-0.7609,-0.4303,-0.3935,-0.2831,-0.0247,0.0,0.0,0.0,0.0,0.0,0.0,0.0,0.0,0.0,0.0,0.0,0.0,0.0,-0.0494,-0.1479,-0.3813,-0.5406,-0.6383,-0.8714,-0.9822,-0.9822,-0.9822,-0.9822,-0.9822,-0.9822,-0.9822,-0.994,0.0,0.0,0.0,0.0,-1.3646,-1.3651,-1.4366,-1.3765,-1.2573,-1.2333,-1.1736,-1.102,-1.0061,-0.9822,-0.9822,-0.9822,-0.9822,-0.9822,-0.9822,-0.9822,-0.9822,-0.9822,-0.9822,-0.9822,-0.9822,-0.9822,-0.9822,-0.9822,-0.9774,0.0,-1.092,-1.1074,-1.0957,-1.0806,-1.0704,-1.036,-0.9195,-0.9062,-0.9032,-0.8947,-0.894,-0.894,-0.894,-1.0659,0.0,0.0,0.0,-1.6357,-1.5632,-1.4949,0.0,0.0,0.0,-0.9822,-0.9822,-0.9822,0.0,0.0,-0.9781,-0.9284,0.0,0.0,0.0,0.0,0.0,0.0,0.0,0.0,0.0,0.0,0.0,0.0,0.0,0.0,0.0,0.0,-0.6991,-0.6505,-0.4916,-0.5894,-0.577,-0.283,-0.2463,-0.1848,-0.0123,0.0,0.0,0.0,0.0,0.0,0.0,0.0,0.0,0.0,0.0,0.0,0.0,0.0,0.0,0.0,-0.3199,-0.4671,-0.5039,-0.8102,-0.9576,-0.9822,-0.9822,-0.9822,-0.9822,-0.9822,-0.9822,-0.9822,-0.9822,-0.9822,-0.994,-1.1378,-1.1976,-1.2097,-1.3526,0.0,0.0,-1.1499,-1.114,-1.0061,-0.9822,-0.9822,-0.9822,-0.9822,-0.9822,-0.9822,-0.9822,-0.9822,-0.9822,-0.9822,-0.9822,-0.9822,-0.9822,-0.9822,-0.9815,-0.9798,-0.9696,-0.9598,-0.9564,-0.9557,-0.9466,-0.9195,-0.914,-0.9083,-0.8954,-0.894,-0.894,-0.894,-0.894,0.0,-0.894,-0.9047,-1.0414,-1.3211,-1.3825,-1.4153,-1.4346,-1.4708,-1.3407,-1.0183,-1.0061,-0.994,-0.9822,-0.9822,-0.9822,-0.9822,-0.9822,-0.9822,0.0,0.0,0.0,0.0,0.0,0.0,0.0,0.0,0.0,0.0,0.0,0.0,0.0,0.0,0.0,-0.3444,-0.4547,-0.4792,-0.3199,-0.3199,-0.3199,-0.2585,-0.2463,-0.1848,-0.0123,0.0,0.0,0.0,0.0,0.0,0.0,0.0,0.0,0.0,0.0,0.0,0.0,0.0,0.0,0.0,-0.1971,0.0,-0.4916,-0.6994,-0.8587,-0.9822,-0.9822,-0.9822,-0.9822,-0.9822,-0.9822,-0.9822,-0.9822,-0.9822,-0.9819,-1.0179,-1.0301,-1.0301,-1.066,-1.114,-1.1619,-1.0539,-1.0899,-1.1499,-1.0179,-0.9822,0.0,-0.9822,-0.9822,-0.9822,-0.9822,-0.9822,-0.9822,-0.9822,-0.9822,-0.9822,-0.9822,-0.9822,-0.9788,-0.9673,-0.9629,-0.953,-0.9286,-0.9242,-0.9222,-0.9161,-0.9055,-0.8971,-0.8944,-0.894,-0.894,-0.894,-0.894,-0.894,-0.894,-1.0025,-1.0907,-1.1595,-1.4219,-1.5908,-1.5983,-1.6355,-1.5069,-1.1856,-1.1736,-1.114,-0.9822,-0.9822,-0.9822,-0.9822,-0.9822,-0.9822,0.0,0.0,0.0,0.0,0.0,0.0,0.0,0.0,0.0,0.0,0.0,-0.369,-0.369,0.0,-0.2463,-0.2463,-0.3199,-0.3077,-0.1479,-0.1233,-0.1233,-0.1233,-0.1233,-0.0863,-0.0123,0.0,0.0,0.0,0.0,0.0,0.0,0.0,0.0,0.0,0.0,0.0,0.0,0.0,0.0,0.0,-0.1725,-0.3322,-0.4916,-0.6628,-0.8221,-0.9822,-0.9822,-0.9822,-0.9822,-0.9822,-0.9822,-0.9822,-0.9822,-0.9822,-0.9822,-0.9822,-0.9822,-0.9822,-0.9822,-1.0301,-1.0899,-1.0058,-1.0301,-1.0899,-1.0061,-0.9822,-0.9822,-0.9822,-0.9822,-0.9822,-0.9822,-0.9822,-0.9822,-0.9822,-0.9822,-0.9802,-0.973,-0.9717,-0.9673,-0.9523,-0.9435,-0.9334,-0.9178,-0.9093,-0.9045,-0.9045,-0.8984,-0.894,-0.894,-0.894,-0.894,-0.894,-0.9592,-0.9699,-0.8937,-1.0891,-1.2186,-1.2186,-1.5338,-1.6901,-1.6261,-1.582,-1.4473,-1.2213,-1.1378,-1.066,-0.9822,-0.9822,-0.9822,-0.9822,-0.9822,-0.9822,0.0,0.0,0.0,0.0,0.0,0.0,0.0,-0.9191,-0.7972,-0.821,-0.5766,-0.3689,-0.4671,-0.3568,-0.234,-0.2094,-0.1971,-0.1602,-0.0247,0.0,0.0,0.0,0.0,0.0,0.0,0.0,0.0,0.0,0.0,0.0,0.0,0.0,0.0,0.0,0.0,0.0,0.0,0.0,0.0,0.0,-0.1356,-0.3076,-0.4916,-0.6261,-0.7975,-0.9822,-0.9822,-0.9822,-0.9822,-0.9822,-0.9822,-0.9822,-0.9822,-0.9822,-0.9822,-0.9822,-0.9822,-0.9822,-0.9822,-0.9822,-0.9822,-0.9822,-0.9822,-0.9822,-0.9822,-0.9822,-0.9822,-0.9822,-0.9822,-0.9822,-0.9822,-0.9822,-0.9822,-0.9822,-0.9798,-0.9747,-0.9635,-0.9588,-0.952,-0.9367,-0.9239,-0.9144,-0.9117,-0.9015,-0.894,-0.894,-0.894,-0.894,-0.894,-0.894,-0.894,-0.894,-1.0241,-1.0676,-0.9482,-1.1755,-1.3264,-1.3264,-1.5988,-1.7148,-1.6186,-1.5172,-1.3893,-1.2209,-1.0899,-1.0058,-0.9822,-0.9822,-0.9822,-0.9822,-0.9822,-0.9822,-1.5456,-1.3412,-1.2813,-1.4009,-1.3292,-1.2573,0.0,-1.1732,-0.9933,-1.137,-0.9057,-0.6505,-0.5161,-0.3568,-0.1971,-0.0494,-0.0247,-0.0247,0.0,0.0,0.0,0.0,0.0,0.0,0.0,0.0,0.0,0.0,0.0,0.0,0.0,0.0,0.0,0.0,0.0,0.0,0.0,0.0,0.0,0.0,-0.0247,-0.1848,-0.4916,-0.5039,-0.6877,-0.9822,-0.9822,-0.9822,-0.9822,-0.9822,-0.9822,-0.9822,-0.9822,-0.9822,-0.9822,-0.9822,-0.9822,-0.9822,-0.9822,-0.9822,-0.9822,-0.9822,-0.9822,-0.9822,-0.9822,-0.9822,-0.9822,-0.9822,-0.9822,-0.9822,-0.9822,-0.9822,-0.9822,-0.9822,-0.9724,-0.9629,-0.9612,-0.9503,-0.9361,-0.9208,-0.9164,-0.9113,-0.8984,-0.895,-0.894,-0.894,-0.894,-0.894,-0.894,-0.894,-0.894,-0.894,-1.0241,-1.1,-1.0891,-1.2403,-1.3264,-1.3264,-1.5115,-1.6142,-1.6074,-1.6211,-1.4945,-1.2213,-1.1972,-1.1257,-0.9822,-0.9822,-0.9822,-0.9822,-0.9822,-0.9822,-1.6856,-1.4118,-1.2573,-1.4247,-1.3407,-1.2097,-1.1856,-1.0781,-0.994,-1.066,-0.8945,-0.6872,-0.5161,-0.3568,-0.1971,-0.0247,0.0,0.0,0.0,0.0,0.037,0.1356,0.1479,0.111,0.0123,0.0863,0.111,0.0123,0.0863,0.0986,0.0,0.0,0.0,0.0,0.0,0.0,0.0,0.0,0.0,0.0,0.0,-0.1725,-0.4916,-0.4916,-0.6632,-0.9822,-0.9822,-0.9822,-0.9822,-0.9822,-0.9822,-0.9822,-0.9822,-0.9822,-0.9822,-0.9822,-0.9822,-0.9822,-0.9822,-0.9822,-0.9822,-0.9822,-0.9822,-0.9822,-0.9822,-0.9822,-0.9822,-0.9822,-0.9822,-0.9822,-0.9822,-0.9822,-0.9798,-0.9717,-0.9652,-0.9561,-0.9384,-0.9293,-0.9205,-0.9055,-0.9028,-0.9008,-0.895,-0.894,-0.894,-0.894,-0.894,-0.894,-0.894,-0.894,-0.9592,-1.1324,-1.1214,-1.1433,-1.2295,-1.2945,-1.294,-1.2077,-1.3459,-1.4554,-1.4821,-1.4013,-1.3185,-1.2209,-1.1257,-1.0418,-0.9822,-0.9822,-0.9822,-0.9822,-0.9822,-0.9822,-1.7217,-1.495,-1.3168,-1.4361,-1.3765,-1.2333,-1.0301,-0.9822,-0.9822,-0.9822,-0.8468,-0.6872,-0.5161,-0.3568,-0.1971,-0.0247,0.0,0.0123,0.0617,0.074,0.1356,0.2954,0.3199,0.2708,0.1479,0.2462,0.2708,0.1479,0.2462,0.2585,0.1356,0.0986,0.074,0.074,0.0247,0.0,0.0,0.0,0.0,0.0,0.0,-0.1725,-0.4916,-0.5896,-0.7612,-0.9822,-0.9822,-0.9822,-0.9822,-0.9822,-0.9822,-0.9822,-0.9822,-0.9822,-0.9822,-0.9822,-0.9822,-0.9822,-0.9822,-0.9822,-0.9822,-0.9822,-0.9822,-0.9822,-0.9822,-0.9822,-0.9822,-0.9822,-0.9822,-0.9822,-0.9822,-0.9791,-0.9737,-0.9635,-0.9544,-0.9422,-0.9201,-0.9123,-0.9062,-0.8957,-0.894,-0.894,-0.894,-0.894,-0.894,-0.894,-0.894,-0.894,-0.894,-0.9265,-1.0457,-1.3048,-1.2724,-1.2724,-1.3804,-1.348,-1.2832,-1.1755,-1.2295,-1.2808,-1.3231,-1.2109,-1.1483,-1.1491,-1.0418,-0.9822,-0.9822,-0.9822,-0.9822,-0.9822,-0.9822,-0.9822,-1.6183,-1.5784,-1.4485,-1.4604,-1.4604,-1.3651,-1.0539,-0.9822,-0.9822,-0.9822,-0.8468,-0.6872,-0.5161,-0.3568,-0.1971,-0.0247,0.0,0.0617,0.2217,0.2463,0.3077,0.4671,0.4795,0.4794,0.4794,0.4794,0.4794,0.4794,0.4794,0.4794,0.4794,0.3322,0.2463,0.2463,0.0863,0.0,0.0,0.0,0.0,0.0,0.0,-0.1725,-0.5039,-0.8224,-0.9697,-0.9822,-0.9822,-0.9822,-0.9822,-0.9822,-0.9822,-0.9822,-0.9822,-0.9822,-0.9822,-0.9822,-0.9822,-0.9822,-0.9822,-0.9822,-0.9822,-0.9822,-0.9822,-0.9822,-0.9822,-0.9822,-0.9822,-0.9822,-0.9822,-0.9822,-0.9822,-0.972,-0.9615,-0.9612,-0.9384,-0.9164,-0.9154,-0.9045,-0.8944,-0.894,-0.894,-0.894,-0.894,-0.894,-0.894,-0.894,-0.894,-0.894,-0.894,-1.0131,-1.1647,-1.3156,-1.4449,-1.531,-1.531,-1.4126,-1.327,-1.3264,-1.1969,-1.127,-1.1523,-1.154,-1.102,-0.9933,-0.9819,-0.9822,-0.9822,-0.9822,-0.9822,-0.9822,-0.9822,-0.9822,-1.6021,-1.5784,-1.4842,-1.5902,-1.4594,-1.2693,-1.1615,-1.0539,-0.9822,-0.9822,-0.7588,-0.5253,-0.3669,-0.1961,-0.0246,0.1355,0.1602,0.1848,0.2463,0.3445,0.4671,0.6383,0.6505,0.6996,0.8102,0.724,0.6139,0.5039,0.5894,0.6016,0.4916,0.4426,0.3568,0.2586,0.1971,0.111,0.0,0.0,0.0,0.0,-0.111,-0.2217,-0.3445,-0.675,-0.8218,-0.8221,-0.9329,-0.9822,-0.9822,-0.9822,-0.9822,-0.9822,-0.9822,-0.9822,-0.9822,-0.9822,-0.9822,-0.9822,-0.9822,-0.9822,-0.9822,-0.9822,-0.9822,-0.9822,-0.9822,-0.9822,-0.9822,-0.9822,-0.9822,-0.9798,-0.9703,-0.9646,-0.9557,-0.9354,-0.9228,-0.9127,-0.9032,-0.8974,-0.894,-0.894,-0.894,-0.894,-0.894,-0.894,-0.894,-0.894,-0.894,-0.894,-0.894,-1.0241,-1.1647,-1.3156,-1.4556,-1.5417,-1.5417,-1.4126,-1.2832,-1.1864,-1.0457,-0.9731,-1.0051,-1.0066,-0.998,-0.9815,-0.9822,-0.9822,-0.9822,-0.9822,-0.9822,-0.9822,-0.9822,-0.9822,-1.6771,-1.646,-1.544,-1.5998,-1.4594,-1.2813,-1.1615,-1.0539,-0.9697,-0.9079,-0.6354,-0.3537,-0.1955,-0.0245,0.1473,0.3075,0.2831,0.2953,0.4056,0.5159,0.6383,0.8097,0.8221,0.8711,0.9697,0.8836,0.7853,0.6752,0.7609,0.7731,0.6752,0.6141,0.5282,0.4301,0.3076,0.1971,0.0863,0.0247,0.0,0.0,-0.1725,-0.2463,-0.2585,-0.5892,-0.736,-0.7482,-0.9083,-0.9822,-0.9822,-0.9822,-0.9822,-0.9822,-0.9822,-0.9822,-0.9822,-0.9822,-0.9822,-0.9822,-0.9822,-0.9822,-0.9822,-0.9822,-0.9822,-0.9822,-0.9822,-0.9822,-0.9822,-0.9822,-0.9785,-0.9724,-0.9632,-0.953,-0.9398,-0.9201,-0.9113,-0.9052,-0.8957,-0.894,-0.894,-0.894,-0.894,-0.894,-0.894,-0.894,-0.894,-0.894,-0.894,-0.894,-0.894,-1.0241,-1.1647,-1.3156,-1.4556,-1.563,-1.6174,-1.4877,-1.348,-1.1969,-1.0457,-0.9622,-0.9367,-0.9381,-0.952,-0.9815,-0.9822,-0.9822,-0.9822,-0.9822,-0.9822,-0.9822,-0.9822,-0.9822,-1.8256,-1.7667,-1.6287,-1.5001,-1.4594,-1.3646,-1.066,-0.9822,-0.9326,-0.7604,-0.4642,-0.1708,0.0,0.1718,0.3321,0.4914,0.3812,0.3811,0.6991,0.7482,0.8097,0.9576,0.9822,0.9822,0.9822,0.9822,0.9822,0.9822,0.9822,0.9822,0.9822,0.8343,0.7482,0.736,0.4301,0.2585,0.2463,0.0863,0.0,0.0,-0.1602,-0.234,-0.2462,-0.577,-0.7238,-0.736,-0.9079,-0.9822,-0.9822,-0.9822,-0.9822,-0.9822,-0.9822,-0.9822,-0.9822,-0.9822,-0.9822,-0.9822,-0.9822,-0.9822,-0.9822,-0.9822,-0.9822,-0.9822,-0.9822,-0.9822,-0.9819,-0.9812,-0.9713,-0.9605,-0.9591,-0.9371,-0.915,-0.9144,-0.9039,-0.894,-0.894,-0.894,-0.894,-0.894,-0.894,-0.894,-0.894,-0.894,-0.894,-0.894,-0.894,-0.894,-0.894,-1.0241,-1.1755,-1.3156,-1.4663,-1.6062,-1.747,-1.628,-1.477,-1.3372,-1.1973,-1.0612,-0.9483,-0.9381,-0.952,-0.9815,-0.9822,-0.9822,-0.9822,-0.9822,-0.9822,-0.9822,-0.9822,-0.9822,-2.1178,-1.9797,-1.7698,-1.642,-1.435,-1.2573,-1.1736,-1.066,-0.8948,-0.6105,-0.1939,0.2052,0.4965,0.6812,0.8057,0.8427,0.7223,0.6503,0.7238,0.8465,0.9329,0.9697,0.9822,0.9822,0.9822,0.9822,0.9822,0.9822,0.9822,0.9822,0.9822,0.9451,0.859,0.7482,0.5404,0.369,0.2463,0.0863,0.0,0.0,-0.0494,-0.0617,-0.074,-0.4056,-0.5527,-0.5651,-0.859,-0.9822,-0.9822,-0.9822,-0.9822,-0.9822,-0.9822,-0.9822,-0.9822,-0.9822,-0.9822,-0.9822,-0.9822,-0.9822,-0.9822,-0.9822,-0.9822,-0.9822,-0.9822,-0.9822,-0.9798,-0.9693,-0.9639,-0.9557,-0.9327,-0.9211,-0.9127,-0.9018,-0.8964,-0.894,-0.894,-0.894,-0.894,-0.894,-0.894,-0.894,-0.894,-0.894,-0.894,-0.894,-0.894,-0.894,-0.894,-1.1105,-1.2832,-1.3264,-1.553,-1.7147,-1.7582,-1.628,-1.477,-1.3372,-1.1973,-1.0612,-0.9483,-0.9381,-0.952,-0.9815,-0.9822,-0.9822,-0.9822,-0.9822,-0.9822,-0.9822,-0.9822,-0.9822,-2.2086,-2.0349,-1.7824,-1.5801,-1.4164,-1.253,-1.0439,-0.88,-0.6767,-0.3474,0.0949,0.5094,0.7787,0.9029,0.9799,1.0722,0.893,0.7606,0.8343,0.9204,0.9822,0.9822,0.9822,0.9822,0.9822,0.9822,0.9822,0.9822,0.9822,0.9822,0.9822,0.9822,0.9329,0.8465,0.6874,0.4914,0.2463,0.0863,0.0,0.0,0.0,0.0,-0.0123,-0.2708,-0.4182,-0.5039,-0.7609,-0.9204,-0.9822,-0.9822,-0.9822,-0.9822,-0.9822,-0.9822,-0.9822,-0.9822,-0.9822,-0.9822,-0.9822,-0.9822,-0.9822,-0.9822,-0.9822,-0.9808,-0.9747,-0.9727,-0.9696,-0.9551,-0.9459,-0.9367,-0.9198,-0.9106,-0.9039,-0.8957,-0.894,-0.894,-0.894,-0.894,-0.894,-0.894,-0.894,-0.894,-0.894,-0.894,-0.894,-0.894,-0.894,-0.894,-0.894,-1.0891,-1.2832,-1.4126,-1.5636,-1.6929,-1.7582,-1.6823,-1.5524,-1.348,-1.2512,-1.1274,-0.9483,-0.9381,-0.952,-0.9815,-0.9822,-0.9822,-0.9822,-0.9822,-0.9822,-0.9822,-0.9822,-0.9822,-2.2339,-2.0287,-1.752,-1.4623,-1.3819,-1.2637,-0.7852,-0.59,-0.4027,-0.0351,0.3938,0.7536,0.9459,0.987,1.0414,1.1902,0.9654,0.8218,0.9576,0.9822,0.9822,0.9822,0.9822,0.9822,0.9822,0.9822,0.9822,0.9822,0.9822,0.9822,0.9822,0.9822,0.9697,0.9451,0.7853,0.5647,0.2586,0.0863,0.0,0.0,0.0,0.0,0.0,-0.1725,-0.3322,-0.5039,-0.6628,-0.8343,-0.9822,-0.9822,-0.9822,-0.9822,-0.9822,-0.9822,-0.9822,-0.9822,-0.9822,-0.9822,-0.9822,-0.9822,-0.9822,-0.9822,-0.9808,-0.9771,-0.9646,-0.9595,-0.9547,-0.9395,-0.9256,-0.915,-0.913,-0.9032,-0.894,-0.894,-0.894,-0.894,-0.894,-0.894,-0.894,-0.894,-0.894,-0.894,-0.894,-0.894,-0.894,-0.894,-0.894,-0.8937,-0.9154,-1.0457,-1.2403,-1.4877,-1.5417,-1.6174,-1.7477,-1.7582,-1.6499,-1.3804,-1.3372,-1.2261,-0.9824,-0.9494,-0.952,-0.9815,-0.9822,-0.9822,-0.9822,-0.9822,-0.9822,-0.9822,-0.9822,-0.9822,-2.4113,-2.1329,-1.8424,-1.4509,-1.2805,-1.0743,-0.629,-0.5135,-0.3266,0.2443,0.6348,0.9215,1.1089,1.2508,1.3091,1.2207,1.0565,0.9451,0.9819,0.9822,0.9822,0.9822,0.9822,0.9822,0.9822,0.9822,0.9822,0.9822,0.9822,0.9822,0.9822,0.9822,0.9204,0.785,0.6261,0.4426,0.2463,0.0863,0.0,0.0,0.0,0.0,0.0,-0.1725,-0.3322,-0.5039,-0.6628,-0.8343,-0.9822,-0.9822,-0.9822,-0.9822,-0.9822,-0.9822,-0.9822,-0.9822,-0.9822,-0.9822,-0.9822,-0.9822,-0.9822,-0.9822,-0.9741,-0.9642,-0.9615,-0.952,-0.9388,-0.9235,-0.9174,-0.9127,-0.9008,-0.8957,-0.894,-0.894,-0.894,-0.894,-0.894,-0.894,-0.894,-0.894,-0.894,-0.894,-0.894,-0.894,-0.894,-0.894,-0.894,-0.9372,-1.0566,-1.1969,-1.3156,-1.3588,-1.5849,-1.7364,-1.7582,-1.7582,-1.6823,-1.5091,-1.3911,-1.2693,-1.1183,-1.0066,-0.952,-0.9815,-0.9822,-0.9822,-0.9822,-0.9822,-0.9822,-0.9822,-0.9822,-0.9822,-2.3467,-2.1097,-1.8626,-1.4494,-1.2928,-1.0992,-0.4889,-0.2968,-0.0915,0.4557,0.8588,1.1518,1.2604,1.405,1.5042,1.4467,1.2442,1.102,1.102,1.0301,1.0058,1.0899,1.102,1.102,1.102,1.102,1.0657,0.9819,0.9822,0.9822,0.9822,0.9822,0.9451,0.8711,0.6263,0.4548,0.3813,0.1233,0.0,0.0,0.0,0.0,0.0,-0.0863,-0.2585,-0.4916,-0.5772,-0.7487,-0.9822,-0.9822,-0.9822,-0.9822,-0.9822,-0.9822,-0.9822,-0.9822,-0.9822,-0.9822,-0.9822,-0.9774,-0.971,-0.971,-0.9663,-0.9581,-0.9418,-0.932,-0.9232,-0.9083,-0.9042,-0.9025,-0.8957,-0.894,-0.894,-0.894,-0.894,-0.894,-0.894,-0.894,-0.894,-0.894,-0.894,-0.894,-0.894,-0.894,-0.894,-0.894,-0.894,-0.9154,-0.9915,-1.1864,-1.3588,-1.4341,-1.6287,-1.7582,-1.7582,-1.7582,-1.6929,-1.5524,-1.4126,-1.2803,-1.1523,-1.0178,-0.952,-0.9815,-0.9822,-0.9822,-0.9822,-0.9822,-0.9822,-0.9822,-0.9822,-0.9822,-2.2933,-2.1151,-1.908,-1.5169,-1.3826,-1.1444,-0.388,-0.1117,0.1236,0.6146,1.0429,1.3212,1.2721,1.4489,1.5862,1.5532,1.3908,1.2525,1.2209,1.1137,1.0778,1.2097,1.2213,1.2337,1.2693,1.2453,1.1736,1.0422,0.994,0.9822,0.9822,0.9822,0.9822,0.9822,0.6632,0.4916,0.4916,0.1602,0.0,0.0,0.0,0.0,0.0,0.0,-0.1602,-0.4426,-0.4794,-0.6508,-0.9326,-0.9697,-0.9822,-0.9822,-0.9822,-0.9822,-0.9822,-0.9822,-0.9822,-0.9819,-0.9785,-0.9703,-0.9598,-0.9534,-0.951,-0.9466,-0.9225,-0.913,-0.9083,-0.8971,-0.894,-0.894,-0.894,-0.894,-0.894,-0.894,-0.894,-0.894,-0.894,-0.894,-0.894,-0.894,-0.894,-0.894,-0.894,-0.894,-0.894,-0.894,-0.894,-0.894,-0.894,-1.1433,-1.3696,-1.4877,-1.6499,-1.7582,-1.7582,-1.7582,-1.7147,-1.5956,-1.4556,-1.3242,-1.1977,-1.0632,-0.9866,-0.9815,-0.9822,-0.9822,-0.9822,-0.9822,-0.9822,-0.9822,-0.9822,-0.9822,-2.4534,-2.2567,-2.0813,-1.7887,-1.518,-1.1363,-0.3941,-0.1102,0.1663,0.747,1.1101,1.2516,0.9827,1.2822,1.4933,1.257,1.3225,1.3536,1.2427,1.2097,1.1976,1.2213,1.2213,1.2813,1.4247,1.3053,1.2097,1.1976,1.066,0.9822,0.9822,0.9822,0.9822,0.9822,0.6632,0.4916,0.4916,0.1602,0.0,0.0,0.0,0.0,0.0,0.0,-0.0986,-0.2831,-0.4303,-0.5894,-0.7728,-0.9204,-0.9822,-0.9822,-0.9822,-0.9822,-0.9822,-0.9822,-0.9822,-0.9802,-0.9673,-0.9618,-0.9564,-0.9286,-0.9195,-0.9191,-0.9161,-0.9062,-0.8954,-0.8944,-0.894,-0.894,-0.894,-0.894,-0.894,-0.894,-0.894,-0.894,-0.894,-0.894,-0.894,-0.894,-0.894,-0.894,-0.894,-0.894,-0.894,-0.894,-0.894,-0.894,-0.894,-1.1433,-1.3372,-1.348,-1.5962,-1.7582,-1.7582,-1.7582,-1.7582,-1.7364,-1.6062,-1.4663,-1.3562,-1.2104,-1.079,-0.9815,-0.9822,-0.9822,-0.9822,-0.9822,-0.9822,-0.9822,-0.9822,-0.9822,-2.4562,-2.2767,-2.1017,-1.8199,-1.4691,-1.0225,-0.3717,-0.033,0.2774,0.7808,1.1214,1.2945,1.1755,1.4549,1.6801,1.5939,1.5727,1.55,1.515,1.4237,1.3999,1.4945,1.5069,1.5306,1.602,1.5424,1.4237,1.2333,1.066,0.9822,0.9822,0.9822,0.9822,0.9822,0.6632,0.4916,0.4916,0.1602,0.0,0.0,0.0,0.0,0.0,0.0,-0.0863,-0.2585,-0.4182,-0.5894,-0.7482,-0.9083,-0.9822,-0.9822,-0.9822,-0.9822,-0.9812,-0.9727,-0.9693,-0.9673,-0.9523,-0.9412,-0.9313,-0.9195,-0.9093,-0.9025,-0.9025,-0.8984,-0.894,-0.894,-0.894,-0.894,-0.894,-0.894,-0.894,-0.894,-0.894,-0.894,-0.894,-0.894,-0.894,-0.894,-0.894,-0.894,-0.894,-0.894,-0.894,-0.894,-0.894,-0.894,-0.894,-1.1433,-1.3264,-1.3264,-1.5855,-1.7582,-1.7582,-1.7582,-1.7582,-1.7582,-1.6174,-1.5321,-1.5148,-1.279,-1.1366,-1.1249,-1.0301,-0.9822,-0.9822,-0.9822,-0.9822,-0.9822,-0.9822,-0.9822,-2.3755,-2.2165,-2.0625,-1.8636,-1.4557,-0.9555,-0.4036,-0.022,0.3555,0.8575,1.1214,1.2724,1.3264,1.5468,1.7341,1.7631,1.7335,1.7026,1.6815,1.5976,1.5784,1.685,1.6968,1.7202,1.7683,1.685,1.495,1.1736,1.0418,0.9822,0.9822,0.9822,0.9822,0.9822,0.6632,0.4916,0.4916,0.1602,0.0,0.0,0.0,0.0,0.0,0.0,-0.0863,-0.2585,-0.4182,-0.5894,-0.7482,-0.9083,-0.9822,-0.9822,-0.9822,-0.9795,-0.9747,-0.9646,-0.9581,-0.952,-0.9367,-0.9242,-0.9147,-0.9103,-0.9022,-0.894,-0.894,-0.894,-0.894,-0.894,-0.894,-0.894,-0.894,-0.894,-0.894,-0.894,-0.894,-0.894,-0.894,-0.894,-0.894,-0.894,-0.9265,-0.9372,-0.8937,-0.9265,-0.9372,-0.8937,-0.894,-0.894,-0.894,-1.1433,-1.3264,-1.3264,-1.5855,-1.7582,-1.7582,-1.7582,-1.7582,-1.7582,-1.6611,-1.6091,-1.6063,-1.4035,-1.2637,-1.2209,-1.114,-1.0301,-0.9822,-0.9822,-0.9822,-0.9822,-0.9822,-0.9822,-2.203,-2.0743,-1.9627,-1.9627,-1.5199,-0.9768,-0.5316,-0.0877,0.3883,0.9874,1.1105,1.1538,1.3048,1.4454,1.5505,1.5878,1.7391,1.8019,1.6665,1.6803,1.6968,1.6968,1.6968,1.7683,1.9243,1.6503,1.3292,1.0061,0.9822,0.9822,0.9822,0.9822,0.9822,0.9822,0.6632,0.4916,0.4916,0.1602,0.0,0.0,0.0,0.0,0.0,0.0,-0.0863,-0.2585,-0.4182,-0.5894,-0.7482,-0.9083,-0.9822,-0.9822,-0.9822,-0.9734,-0.9612,-0.9608,-0.9513,-0.9361,-0.9208,-0.9154,-0.913,-0.8988,-0.894,-0.894,-0.894,-0.894,-0.894,-0.894,-0.894,-0.894,-0.894,-0.894,-0.894,-0.894,-0.894,-0.894,-0.894,-0.894,-0.894,-0.894,-1.0135,-1.0566,-0.9154,-1.0131,-1.0566,-0.9154,-0.894,-0.894,-0.894,-1.1433,-1.3264,-1.3264,-1.5855,-1.7582,-1.7582,-1.7582,-1.7582,-1.7582,-1.7582,-1.7079,-1.6175,-1.6086,-1.4828,-1.2209,-1.2213,-1.1378,-0.9822,-0.9822,-0.9822,-0.9822,-0.9822,-0.9822,-1.903,-1.7714,-1.638,-1.5358,-1.0803,-0.5597,-0.2076,0.2094,0.6345,1.0327,1.1105,1.186,1.4341,1.5097,1.5833,1.7099,1.779,1.8064,1.7895,1.8011,1.8069,1.8069,1.8236,1.8192,1.7787,1.579,1.3765,1.1615,1.0418,0.9822,0.9822,0.9822,0.9822,0.9822,0.7731,0.6016,0.4916,0.2831,0.111,0.0,0.0,0.0,0.0,0.0,-0.0247,-0.0986,-0.369,-0.5161,-0.5894,-0.8714,-0.9764,-0.9676,-0.9676,-0.9585,-0.9442,-0.9337,-0.9266,-0.9205,-0.9059,-0.9008,-0.8998,-0.8954,-0.894,-0.894,-0.894,-0.894,-0.894,-0.894,-0.894,-0.894,-0.894,-0.894,-0.894,-0.894,-0.894,-0.894,-0.894,-0.894,-0.9154,-1.0241,-1.0781,-1.1324,-1.1864,-1.2295,-1.2403,-1.1969,-1.1864,-1.1538,-1.0566,-1.294,-1.4341,-1.3372,-1.5855,-1.7582,-1.7582,-1.7582,-1.7582,-1.7582,-1.7582,-1.7635,-1.7779,-1.6652,-1.5864,-1.5531,-1.4361,-1.3646,-1.3053,-1.1976,-1.0899,-0.9822,-0.9822,-0.9822,-1.6026,-1.4758,-1.3485,-1.2588,-0.7883,-0.297,-0.0439,0.354,0.7584,1.0445,1.1105,1.1969,1.4877,1.5417,1.591,1.7622,1.7969,1.811,1.8297,1.8424,1.849,1.849,1.8651,1.8013,1.5963,1.4929,1.3414,1.1304,1.0245,0.9656,0.9656,0.9656,0.9656,0.9656,0.7562,0.6016,0.4916,0.2708,0.0986,0.0,0.0,0.0,0.0,0.0,-0.037,-0.1109,-0.3667,-0.5117,0.0,-0.8588,-0.9602,-0.9523,-0.9523,-0.9432,-0.9283,-0.9188,-0.912,-0.9059,-0.8967,-0.894,-0.894,-0.894,-0.894,-0.894,-0.894,-0.894,-0.894,-0.894,-0.894,-0.894,-0.894,-0.894,-0.894,-0.894,-0.894,-0.894,-0.894,-0.9372,-1.0025,-1.0891,-1.1969,-1.2832,-1.3264,-1.3696,-1.3911,-1.3372,-1.3264,-1.294,-1.2077,-1.3906,-1.5097,-1.4234,-1.6174,-1.7582,-1.7582,-1.7582,-1.7582,-1.7582,-1.7582,-1.7856,-1.8464,-1.7569,-1.7019,-1.6956,-1.602,-1.5192,-1.4604,-1.2928,-1.1378,-0.9822,-0.9822,-0.9822,0.0,-1.1923,-1.0695,-1.0582,-0.616,-0.1433,0.011,0.3762,0.0,1.0554,1.1105,1.1969,1.4877,1.5417,1.5849,1.7364,1.7822,1.7908,1.7793,1.8024,1.832,1.8457,1.8346,1.7098,1.4158,1.3818,1.257,0.961,0.9381,0.9381,0.9381,0.9381,0.9381,0.9381,0.6513,0.4901,0.4901,0.1719,0.0123,0.0,0.0,0.0,0.0,0.0,-0.086,-0.2453,-0.3983,-0.5512,-0.706,-0.8728,-0.9374,-0.9364,-0.9364,-0.9273,-0.9137,-0.9137,-0.9052,-0.894,-0.894,-0.894,-0.894,-0.894,-0.894,-0.894,-0.894,-0.894,-0.894,-0.894,-0.894,-0.894,-0.894,-0.894,-0.894,-0.894,-0.894,-0.8937,-0.9047,-1.0131,-1.1214,-1.1324,-1.3583,-1.499,-1.3804,-1.4663,-1.5091,-1.3804,-1.3588,-1.3588,-1.348,-1.4663,-1.5524,-1.5417,-1.6717,-1.7582,-1.7582,-1.7582,-1.7582,-1.7582,-1.7582,-1.7856,-1.8464,-1.849,-1.8069,-1.7196,-1.7202,-1.638,-1.4723,-1.3172,-1.1495,-0.994,-0.9822,-0.9822,-1.1973,0.0,-0.7456,-0.6342,-0.2439,0.1553,0.0,0.6017,0.8923,1.0672,1.1105,1.1969,1.4877,1.5417,1.5849,1.7364,1.7642,1.7258,1.6166,1.6114,1.6667,1.8008,1.7136,1.5864,1.403,1.2913,1.1438,0.9494,0.9381,0.9381,0.9381,0.9381,0.9381,0.9381,0.6375,0.4742,0.4742,0.285,0.1309,0.0,0.0,0.0,0.0,0.0,-0.0238,-0.0714,-0.3546,-0.4952,-0.5538,-0.8218,-0.9313,-0.9208,-0.9208,-0.9117,-0.8988,-0.8988,-0.8967,-0.894,-0.894,-0.894,-0.894,-0.894,-0.894,-0.894,-0.894,-0.894,-0.894,-0.894,-0.894,-0.894,-0.894,-0.894,-0.894,-0.894,-0.894,-0.9154,-1.0351,-1.0891,-1.1755,-1.3906,-1.4984,-1.563,-1.6499,-1.6823,-1.6929,-1.6611,-1.6605,-1.6174,-1.5091,-1.6174,-1.6605,-1.5524,-1.6717,-1.7582,-1.7582,-1.7582,-1.7582,-1.7582,-1.7582,-1.7856,-1.8464,-1.849,-1.8645,-1.8874,-1.8881,-1.8046,-1.6374,-1.4837,-1.3172,-1.1619,-1.0422,-0.9822,-1.1538,-0.8459,-0.5359,-0.3791,-0.0111,0.3677,0.5137,0.726,0.9265,1.0781,1.1647,1.2724,1.4984,1.5956,1.6711,1.7477,1.7035,1.628,1.5524,1.5956,1.6774,1.7702,1.7167,1.5904,1.3835,1.2961,1.1522,0.9288,0.9178,0.9178,0.9178,0.9178,0.9178,0.9178,0.6191,0.4622,0.4688,0.2466,0.0941,0.0,0.0,0.0,0.0,0.0,-0.0353,-0.1176,-0.3609,-0.4984,-0.579,-0.8166,-0.913,-0.9055,-0.9055,-0.9008,-0.894,-0.894,-0.894,-0.894,-0.894,-0.894,-0.894,-0.894,-0.894,-0.894,-0.894,-0.894,-0.894,-0.894,-0.894,-0.894,-0.894,-0.894,-0.9047,-0.9699,-0.9915,-1.0347,-1.1755,-1.2615,-1.3475,-1.5091,-1.5956,-1.6611,-1.7477,-1.7582,-1.7582,-1.7582,-1.7582,-1.7259,-1.6499,-1.7147,-1.7252,-1.6499,-1.7147,-1.7582,-1.7582,-1.7582,-1.7582,-1.7582,-1.7716,-1.8003,-1.847,-1.8617,-1.8905,-1.9359,-1.9366,-1.8642,-1.6968,-1.5429,-1.377,-1.2217,-1.0539,-0.9822,-1.1538,-0.7898,-0.4131,-0.2558,0.1224,0.4916,0.6366,0.782,0.9265,1.0781,1.2295,1.3696,1.5091,1.6605,1.7582,1.7582,1.6387,1.5524,1.5743,1.6605,1.7364,1.7582,1.7259,1.5962,1.3588,1.294,1.1538,0.9047,0.894,0.894,0.894,0.894,0.894,0.894,0.6031,0.453,0.4654,0.1517,0.0,0.0,0.0,0.0,0.0,0.0,-0.0701,-0.1981,-0.3786,-0.524,-0.6485,-0.8199,-0.894,-0.894,-0.894,-0.894,-0.894,-0.894,-0.894,-0.894,-0.894,-0.894,-0.894,-0.894,-0.894,-0.894,-0.894,-0.894,-0.894,-0.894,-0.894,-0.894,-0.894,-0.894,-0.9265,-1.0457,-1.0891,-1.1538,-1.2945,-1.4449,-1.5417,-1.5743,-1.6717,-1.7582,-1.7582,-1.7582,-1.7582,-1.7582,-1.7582,-1.7582,-1.7582,-1.7582,-1.7582,-1.7582,-1.7582,-1.7582,-1.7582,-1.7582,-1.7602,-1.7649,-1.7896,-1.8196,-1.8544,-1.8838,-1.9112,-1.9366,-1.9366,-1.8765,-1.7325,-1.5548,-1.3889,-1.2573,-1.066,-0.9822,-1.1538,-0.7898,-0.4131,-0.2558,0.1224,0.4916,0.6366,0.782,0.9265,1.0781,1.2295,1.3696,1.5091,1.6605,1.7582,1.7582,1.6387,1.5849,1.7041,1.6387,1.6174,1.747,1.5423,1.3804,1.3372,1.1,0.9372,0.8937,0.894,0.894,0.894,0.894,0.894,0.894,0.6031,0.4482,0.4504,0.1467,0.0,0.0,0.0,0.0,0.0,0.0,-0.0113,-0.0452,-0.3259,-0.4599,-0.5044,-0.7826,-0.894,-0.894,-0.894,-0.894,-0.894,-0.894,-0.894,-0.894,-0.894,-0.894,-0.894,-0.894,-0.894,-0.894,-0.894,-0.894,-0.894,-0.894,-0.894,-0.894,-0.894,-0.894,-0.8937,-0.9154,-1.0241,-1.1538,-1.2945,-1.4449,-1.5743,-1.7041,-1.747,-1.7582,-1.7582,-1.7582,-1.7582,-1.7582,-1.7582,-1.7582,-1.7582,-1.7582,-1.7582,-1.7582,-1.7582,-1.7582,-1.7582,-1.7582,-1.7695,-1.7956,-1.8003,-1.827,-1.8831,-1.9145,-1.9319,-1.9366,-1.9366,-1.9249,-1.9004,-1.6031,-1.4485,-1.4123,-1.1137,-0.9822,-0.9556,-0.6008,-0.2672,-0.0444,0.2338,0.514,0.7371,0.8377,0.9588,1.1864,1.2837,1.4019,1.6174,1.7147,1.7364,1.6499,1.6499,1.6499,1.6393,1.6499,1.6823,1.7477,1.5743,1.4126,1.3372,1.1324,0.9809,0.8937,0.894,0.894,0.894,0.894,0.894,0.894,0.6031,0.447,0.447,0.1456,0.0,0.0,0.0,0.0,0.0,0.0,-0.0896,-0.2461,-0.3913,-0.5363,-0.7035,-0.8377,-0.894,-0.894,-0.894,-0.894,-0.894,-0.894,-0.894,-0.894,-0.894,-0.894,-0.894,-0.894,-0.894,-0.894,-0.894,-0.894,-0.894,-0.894,-0.894,-0.894,-0.894,-0.9482,-1.0241,-1.1105,-1.2398,-1.3804,-1.531,-1.6174,-1.6823,-1.7477,-1.7582,-1.7582,-1.7582,-1.7582,-1.7582,-1.7582,-1.7582,-1.7582,-1.7582,-1.7582,-1.7582,-1.7582,-1.7582,-1.7582,-1.7582,-1.7736,-1.7963,-1.827,-1.8424,-1.8704,-1.9145,-1.9292,-1.9366,-1.9366,-1.9366,-1.9366,-1.9366,-1.7091,-1.5902,-1.5784,-1.2569,-1.1667,-0.791,-0.4453,-0.1444,0.1444,0.3565,0.5697,0.8266,0.9154,1.0131,1.2729,1.3588,1.4556,1.7147,1.7582,1.7252,1.6068,1.6823,1.7259,1.6068,1.6929,1.7582,1.7582,1.5962,1.4449,1.3372,1.1647,1.0131,0.8937,0.894,0.894,0.894,0.894,0.894,0.894,0.6031,0.447,0.447,0.1456,0.0,0.0,0.0,0.0,0.0,0.0,-0.1456,-0.4023,-0.4359,-0.6033,-0.8377,-0.8716,-0.894,-0.894,-0.894,-0.894,-0.894,-0.894,-0.894,-0.894,-0.894,-0.894,-0.894,-0.894,-0.894,-0.894,-0.894,-0.894,-0.894,-0.894,-0.894,-0.894,-0.894,-1.0025,-1.1428,-1.2512,-1.4126,-1.5743,-1.6823,-1.7364,-1.7582,-1.7582,-1.7582,-1.7582,-1.7582,-1.7582,-1.7582,-1.7582,-1.7582,-1.7582,-1.7582,-1.7582,-1.7582,-1.7582,-1.7582,-1.7609,-1.7689,-1.8036,-1.835,-1.8577,-1.8804,-1.9058,-1.9359,-1.9366,-1.9366,-1.9366,-1.9366,-1.9366,-1.9366,-1.78,-1.6968,-1.6968,-1.4118,-1.3518,-0.791,-0.4453,-0.1444,0.1444,0.4342,0.6924,0.8491,0.9915,1.1433,1.294,1.4341,1.5743,1.7259,1.7582,1.7582,1.7477,1.7582,1.7582,1.7477,1.7582,1.7582,1.7582,1.5097,1.3372,1.3264,1.0781,0.9047,0.894,0.894,0.894,0.894,0.894,0.894,0.894,0.6031,0.447,0.447,0.1456,0.0,0.0,0.0,0.0,0.0,0.0,-0.0896,-0.2459,-0.3911,-0.5363,-0.6924,-0.8377,-0.894,-0.894,-0.894,-0.894,-0.894,-0.894,-0.894,-0.894,-0.894,-0.894,-0.894,-0.894,-0.894,-0.894,-0.894,-0.894,-0.894,-0.894,-0.894,-0.894,-0.894,-1.0025,-1.1105,-1.1214,-1.3367,-1.5417,-1.5524,-1.6605,-1.7582,-1.7582,-1.7582,-1.7582,-1.7582,-1.7582,-1.7582,-1.7582,-1.7582,-1.7582,-1.7582,-1.7582,-1.7582,-1.7582,-1.7582,-1.7702,-1.7989,-1.8531,-1.8871,-1.8891,-1.8911,-1.9058,-1.9359,-1.9366,-1.9366,-1.9366,-1.9366,-1.9366,-1.9366,-1.78,-1.6968,-1.6968,-1.5192,-1.46,-0.6795,-0.3113,-0.0111,0.2894,0.591,0.8266,0.8826,1.0025,1.1542,1.3048,1.4449,1.5849,1.7364,1.7582,1.7582,1.7582,1.7582,1.7582,1.7582,1.7582,1.7582,1.7582,1.5849,1.4556,1.4556,1.2832,1.1214,1.0351,1.0241,0.9915,0.8937,0.894,0.894,0.894,0.6031,0.447,0.447,0.1456,0.0,0.0,0.0,0.0,0.0,0.0,-0.1343,-0.3688,-0.4247,-0.5808,-0.8152,-0.8716,-0.894,-0.894,-0.894,-0.894,-0.894,-0.894,-0.894,-0.894,-0.894,-0.894,-0.894,-0.894,-0.894,-0.894,-0.894,-0.894,-0.9047,-1.0025,-1.0241,-1.0241,-1.0241,-1.1324,-1.2724,-1.3583,-1.531,-1.6823,-1.6823,-1.7259,-1.7582,-1.7582,-1.7582,-1.7582,-1.7582,-1.7582,-1.7582,-1.7582,-1.7582,-1.7582,-1.7582,-1.7582,-1.7582,-1.7582,-1.7756,-1.807,-1.8551,-1.8798,-1.8998,-1.9185,-1.9199,-1.9252,-1.9366,-1.9366,-1.9366,-1.9366,-1.9366,-1.9366,-1.9366,-1.8765,-1.8525,-1.8409,-1.7013,-1.6983,-0.6682,-0.3002,0.0,0.3007,0.6024,0.8377,0.8826,1.0347,1.2077,1.3048,1.4776,1.6393,1.7364,1.7582,1.7582,1.7582,1.7582,1.7582,1.7582,1.7582,1.7582,1.7582,1.628,1.5417,1.5417,1.4126,1.2729,1.1214,1.1105,1.0457,0.8937,0.894,0.894,0.894,0.6031,0.447,0.447,0.1456,0.0,0.0,0.0,0.0,0.0,0.0,-0.1679,-0.447,-0.447,-0.6144,-0.894,-0.894,-0.894,-0.894,-0.894,-0.894,-0.894,-0.894,-0.894,-0.894,-0.894,-0.894,-0.894,-0.894,-0.894,-0.8937,-0.9482,-0.9265,-0.9265,-1.1214,-1.1428,-1.1324,-1.2186,-1.3156,-1.4234,-1.5204,-1.6499,-1.7582,-1.7582,-1.7582,-1.7582,-1.7582,-1.7582,-1.7582,-1.7582,-1.7582,-1.7582,-1.7582,-1.7582,-1.7582,-1.7582,-1.7582,-1.7622,-1.7716,-1.8083,-1.8484,-1.8891,-1.9011,-1.9152,-1.9359,-1.9366,-1.9366,-1.9366,-1.9366,-1.9366,-1.9366,-1.9366,-1.9366,-1.9366,-1.9366,-1.9366,-1.9372,-1.8564,-1.8842,-0.791,-0.4453,-0.1444,0.1444,0.4453,0.7035,0.8602,1.1214,1.3264,1.3372,1.5636,1.7582,1.7582,1.7582,1.7582,1.7582,1.7582,1.7582,1.7582,1.7582,1.7582,1.7582,1.628,1.5417,1.5417,1.4126,1.2729,1.1214,1.1105,1.0457,0.8937,0.894,0.894,0.894,0.6031,0.4472,0.447,0.1567,0.0,0.0,0.0,0.0,0.0,0.0,-0.1679,-0.447,-0.447,-0.6144,-0.894,-0.894,-0.894,-0.894,-0.894,-0.894,-0.894,-0.894,-0.894,-0.894,-0.894,-0.894,-0.894,-0.894,-0.894,-0.9154,-1.0672,-1.0135,-0.9482,-1.2512,-1.2295,-1.1751,-1.4663,-1.5417,-1.5417,-1.5417,-1.6499,-1.7582,-1.7582,-1.7582,-1.7582,-1.7582,-1.7582,-1.7582,-1.7582,-1.7582,-1.7582,-1.7582,-1.7582,-1.7582,-1.7589,-1.7589,-1.7709,-1.8023,-1.8577,-1.8925,-1.8925,-1.9199,-1.9366,-1.9366,-1.9366,-1.9366,-1.9366,-1.9366,-1.9366,-1.9366,-1.9366,-1.9366,-1.9366,-1.9366,-1.9366,-1.9379,-1.9673,-1.996,-0.791,-0.4453,-0.1444,0.1444,0.4453,0.7035,0.8602,1.1214,1.3911,1.5962,1.7041,1.7582,1.7582,1.7582,1.7582,1.7582,1.7582,1.7582,1.7582,1.7582,1.7582,1.7582,1.7259,1.6935,1.6935,1.6605,1.531,1.2837,1.262,1.1538,0.9047,0.894,0.894,0.894,0.7035,0.5586,0.447,0.2572,0.1008,0.0,0.0,0.0,0.0,0.0,-0.1679,-0.447,-0.447,-0.6144,-0.894,-0.894,-0.894,-0.894,-0.894,-0.894,-0.894,-0.894,-0.894,-0.894,-0.894,-0.894,-0.894,-0.894,-0.894,-0.9154,-1.0672,-1.0781,-1.0996,-1.3906,-1.4449,-1.4556,-1.6499,-1.6935,-1.6935,-1.6935,-1.7259,-1.7582,-1.7582,-1.7582,-1.7582,-1.7582,-1.7582,-1.7582,-1.7582,-1.7582,-1.7582,-1.7582,-1.7582,-1.7655,-1.7862,-1.7903,-1.8103,-1.8611,-1.8818,-1.9011,-1.9219,-1.9319,-1.9366,-1.9366,-1.9366,-1.9366,-1.9366,-1.9366,-1.9366,-1.9366,-1.9366,-1.9366,-1.9366,-1.9366,-1.9472,-1.9679,-1.9967,-2.0261,-0.934,-0.5786,-0.2448,0.0555,0.356,0.6695,0.99,1.1969,1.4126,1.7041,1.7582,1.7582,1.7582,1.7582,1.7582,1.7582,1.7582,1.7582,1.7582,1.7582,1.7582,1.7582,1.7582,1.7582,1.7582,1.7582,1.6393,1.348,1.3264,1.1969,0.9047,0.894,0.894,0.894,0.7482,0.6031,0.4472,0.3017,0.1454,0.0,0.0,0.0,0.0,0.0,-0.1343,-0.3688,-0.4804,-0.6702,-0.894,-0.894,-0.894,-0.894,-0.894,-0.894,-0.894,-0.894,-0.894,-0.894,-0.894,-0.894,-0.894,-0.894,-0.9265,-1.0025,-1.1538,-1.1969,-1.2615,-1.5417,-1.5849,-1.5743,-1.7252,-1.7582,-1.7582,-1.7582,-1.7582,-1.7582,-1.7582,-1.7582,-1.7582,-1.7582,-1.7582,-1.7582,-1.7582,-1.7582,-1.7582,-1.7582,-1.7689,-1.7829,-1.8003,-1.8243,-1.8531,-1.8885,-1.9032,-1.9172,-1.9352,-1.9366,-1.9366,-1.9366,-1.9366,-1.9366,-1.9366,-1.9366,-1.9366,-1.9366,-1.9366,-1.9366,-1.9366,-1.9486,-1.9633,-1.9813,-2.0221,-2.0508,-1.1538,-0.7898,-0.3794,-0.0886,0.2223,0.6128,1.1837,1.3156,1.4126,1.7041,1.7582,1.7582,1.7582,1.7582,1.7582,1.7582,1.7582,1.7582,1.7582,1.7582,1.7582,1.7582,1.7582,1.7582,1.7582,1.7582,1.6393,1.348,1.3264,1.1969,0.9047,0.894,0.894,0.894,0.7595,0.6142,0.4472,0.3129,0.1566,0.0,0.0,0.0,0.0,0.0,-0.0896,-0.2571,-0.5582,-0.7706,-0.894,-0.894,-0.894,-0.894,-0.894,-0.894,-0.894,-0.894,-0.894,-0.894,-0.894,-0.894,-0.894,-0.894,-0.9915,-1.1428,-1.2832,-1.3372,-1.4019,-1.6823,-1.6605,-1.5956,-1.7252,-1.7582,-1.7582,-1.7582,-1.7582,-1.7582,-1.7582,-1.7582,-1.7582,-1.7582,-1.7582,-1.7582,-1.7582,-1.7582,-1.7595,-1.7622,-1.7889,-1.8096,-1.8123,-1.8597,-1.8931,-1.8958,-1.9205,-1.9366,-1.9366,-1.9366,-1.9366,-1.9366,-1.9366,-1.9366,-1.9366,-1.9366,-1.9366,-1.9366,-1.9366,-1.9379,-1.9406,-1.9673,-1.9826,-1.9893,-2.0428,-2.0688,-1.1538,-0.7898,-0.4018,-0.2222,0.2334,0.7135,1.0769,1.2512,1.4126,1.7041,1.7582,1.7582,1.7582,1.7582,1.7582,1.7582,1.7582,1.7582,1.7582,1.7582,1.7582,1.7582,1.7582,1.7582,1.7582,1.7582,1.6393,1.348,1.3264,1.1969,0.9047,0.894,0.894,0.894,0.8602,0.7149,0.4472,0.4136,0.2684,0.0,0.0,0.0,0.0,0.0,-0.1456,-0.4136,-0.7146,-0.8602,-0.894,-0.894,-0.894,-0.894,-0.894,-0.894,-0.894,-0.894,-0.894,-0.894,-0.894,-0.894,-0.894,-0.894,-0.9915,-1.1428,-1.2832,-1.4019,-1.531,-1.7147,-1.7364,-1.7147,-1.7477,-1.7582,-1.7582,-1.7582,-1.7582,-1.7582,-1.7582,-1.7582,-1.7582,-1.7582,-1.7582,-1.7582,-1.7582,-1.7582,-1.7662,-1.7909,-1.8203,-1.8477,-1.8704,-1.8844,-1.9011,-1.9245,-1.9332,-1.9366,-1.9366,-1.9366,-1.9366,-1.9366,-1.9366,-1.9366,-1.9366,-1.9366,-1.9366,-1.9366,-1.9366,-1.9479,-1.9706,-1.9773,-2.004,-2.0488,-2.0621,-2.0802,-1.1324,-0.8345,-0.4686,-0.1,0.3337,0.7473,1.0445,1.1647,1.3048,1.5956,1.7147,1.7582,1.7582,1.7582,1.7582,1.7582,1.7582,1.7582,1.7582,1.7582,1.7582,1.7582,1.7582,1.7582,1.7582,1.7582,1.6393,1.348,1.3264,1.1969,0.9047,0.894,0.894,0.894,0.894,0.7485,0.4583,0.447,0.3019,0.0,0.0,0.0,0.0,0.0,-0.1679,-0.4582,-0.6142,-0.7595,-0.894,-0.894,-0.894,-0.894,-0.894,-0.894,-0.894,-0.894,-0.894,-0.894,-0.894,-0.894,-0.894,-0.894,-1.0351,-1.2295,-1.3048,-1.477,-1.6499,-1.6499,-1.6499,-1.6499,-1.6499,-1.6499,-1.6717,-1.747,-1.7582,-1.7582,-1.7582,-1.7582,-1.7582,-1.7582,-1.7582,-1.7582,-1.7582,-1.7709,-1.7909,-1.8217,-1.851,-1.8751,-1.8905,-1.9052,-1.9199,-1.9352,-1.9366,-1.9366,-1.9366,-1.9366,-1.9366,-1.9366,-1.9366,-1.9366,-1.9366,-1.9366,-1.9366,-1.9366,-1.9366,-1.9512,-1.98,-1.994,-2.0234,-2.0681,-2.0822,-2.0962,-1.1105,-0.8793,-0.4905,0.0778,0.4231,0.7141,1.001,1.0891,1.1755,1.4121,1.6062,1.7259,1.7582,1.7582,1.7582,1.7582,1.7582,1.7582,1.7582,1.7582,1.7582,1.7582,1.7364,1.7364,1.7582,1.7147,1.5849,1.348,1.3264,1.1969,0.9047,0.9154,0.9154,0.894,0.894,0.7595,0.4916,0.4583,0.3131,0.0336,0.0112,0.0,0.0,0.0,-0.1679,-0.4472,-0.4806,-0.6366,-0.894,-0.894,-0.894,-0.894,-0.894,-0.894,-0.894,-0.894,-0.894,-0.894,-0.894,-0.894,-0.894,-0.894,-1.0672,-1.294,-1.3264,-1.5097,-1.6929,-1.5743,-1.5417,-1.5417,-1.5417,-1.5417,-1.5743,-1.7259,-1.7582,-1.7582,-1.7582,-1.7582,-1.7582,-1.7582,-1.7622,-1.7662,-1.7662,-1.7956,-1.8283,-1.8531,-1.8811,-1.8998,-1.8998,-1.9219,-1.9366,-1.9366,-1.9366,-1.9366,-1.9366,-1.9366,-1.9366,-1.9366,-1.9366,-1.9366,-1.9366,-1.9366,-1.9392,-1.9439,-1.9446,-1.9586,-1.9873,-2.0167,-2.0461,-2.0755,-2.0995,-2.1109,-1.1105,-0.8011,-0.3681,0.1,0.3454,0.5584,0.8484,1.0131,1.1214,1.1538,1.3798,1.6062,1.7364,1.7582,1.7582,1.7582,1.7582,1.7582,1.7582,1.7582,1.7582,1.7582,1.6499,1.6174,1.747,1.531,1.3696,1.3372,1.3264,1.1969,0.9047,1.0131,1.0241,0.8937,0.894,0.8042,0.6478,0.5139,0.3576,0.1901,0.056,0.0,0.0,0.0,-0.1679,-0.4582,-0.5808,-0.7371,-0.894,-0.894,-0.894,-0.894,-0.894,-0.894,-0.894,-0.894,-0.894,-0.894,-0.894,-0.894,-0.894,-0.894,-1.0025,-1.1647,-1.2945,-1.4449,-1.563,-1.5417,-1.5417,-1.5417,-1.5417,-1.5417,-1.5743,-1.7259,-1.7582,-1.7582,-1.7582,-1.7582,-1.7582,-1.7582,-1.7802,-1.7989,-1.7989,-1.8444,-1.8824,-1.8858,-1.9118,-1.9305,-1.9305,-1.9339,-1.9366,-1.9366,-1.9366,-1.9366,-1.9366,-1.9366,-1.9366,-1.9366,-1.9366,-1.9366,-1.9366,-1.9366,-1.9486,-1.974,-1.974,-1.9887,-2.0174,-2.0474,-2.0768,-2.1049,-2.1089,-2.1109,-0.9915,-0.7805,-0.4906,-0.1222,0.1445,0.401,0.703,0.8813,1.0131,1.0891,1.2077,1.3691,1.5956,1.7041,1.7582,1.7582,1.7582,1.7582,1.7582,1.7582,1.7252,1.6499,1.5743,1.563,1.628,1.4556,1.3588,1.4449,1.3804,1.2403,1.0241,1.0785,1.0457,0.8937,0.894,0.8156,0.6702,0.525,0.3353,0.1008,0.0336,0.0,0.0,0.0,-0.112,-0.324,-0.4803,-0.6255,-0.7706,-0.8602,-0.894,-0.894,-0.894,-0.894,-0.894,-0.894,-0.894,-0.894,-0.894,-0.894,-0.894,-0.894,-1.0457,-1.2295,-1.2077,-1.3588,-1.5091,-1.348,-1.3588,-1.4234,-1.4234,-1.477,-1.5743,-1.7259,-1.7582,-1.7629,-1.7802,-1.7702,-1.7629,-1.7809,-1.809,-1.835,-1.851,-1.8751,-1.8978,-1.9145,-1.9285,-1.9366,-1.9366,-1.9366,-1.9366,-1.9366,-1.9366,-1.9366,-1.9366,-1.9366,-1.9366,-1.9366,-1.9366,-1.9366,-1.9366,-1.9519,-1.9673,-1.98,-1.98,-2.0027,-2.0481,-2.0615,-2.0822,-2.1109,-2.1109,-2.1109,-0.894,-0.782,-0.6024,-0.3001,-0.0222,0.2448,0.5468,0.7035,0.8146,0.9677,1.0331,1.1306,1.3798,1.5849,1.7041,1.7041,1.7364,1.7477,1.7041,1.7041,1.6499,1.5091,1.4556,1.4556,1.531,1.3804,1.348,1.531,1.4449,1.3048,1.1214,1.1428,1.0781,0.8937,0.894,0.838,0.726,0.5475,0.3019,0.0,0.0,0.0,0.0,0.0,-0.056,-0.179,-0.3688,-0.5361,-0.6813,-0.8266,-0.894,-0.894,-0.894,-0.894,-0.894,-0.894,-0.894,-0.894,-0.894,-0.894,-0.894,-0.894,-1.0347,-1.2077,-1.1324,-1.2615,-1.3906,-1.1755,-1.2186,-1.3264,-1.3264,-1.4385,-1.5845,-1.737,-1.7762,-1.7856,-1.8009,-1.7923,-1.7883,-1.8116,-1.8397,-1.8671,-1.8885,-1.8985,-1.9112,-1.9332,-1.9366,-1.9366,-1.9366,-1.9366,-1.9366,-1.9366,-1.9366,-1.9366,-1.9366,-1.9366,-1.9366,-1.9366,-1.9366,-1.9399,-1.9472,-1.9686,-1.9867,-2.002,-2.002,-2.0241,-2.0675,-2.0755,-2.0895,-2.1109,-2.1109,-2.1109,-0.894,-0.782,-0.6024,-0.3001,-0.1002,0.0892,0.391,0.4693,0.514,0.6589,0.8008,0.9537,1.0988,1.3588,1.5524,1.5524,1.6717,1.7147,1.5743,1.5524,1.499,1.3588,1.2186,1.2403,1.5091,1.2832,1.2398,1.5204,1.531,1.4014,1.1214,1.2403,1.1864,0.8937,0.894,0.8826,0.8826,0.5919,0.3019,0.0,0.0,0.0,0.0,0.0,0.0,-0.0224,-0.3243,-0.5361,-0.6813,-0.8266,-0.894,-0.894,-0.894,-0.894,-0.894,-0.894,-0.894,-0.894,-0.894,-0.894,-0.894,-0.894,-0.9047,-0.9372,-1.0672,-1.1214,-1.1324,-1.1105,-1.2186,-1.3264,-1.3264,-1.4619,-1.6229,-1.7685,-1.8237,-1.837,-1.8103,-1.8257,-1.845,-1.8464,-1.8704,-1.8905,-1.8918,-1.9158,-1.9352,-1.9366,-1.9366,-1.9366,-1.9366,-1.9366,-1.9366,-1.9366,-1.9366,-1.9366,-1.9366,-1.9366,-1.9366,-1.9366,-1.9366,-1.9492,-1.9766,-1.9793,-2.006,-2.0621,-2.0635,-2.0648,-2.0675,-2.0955,-2.1096,-2.1109,-2.1109,-2.1109,-0.894,-0.782,-0.6475,-0.5349,-0.2561,0.0334,0.1338,0.3125,0.4695,0.514,0.6468,0.7686,0.8131,1.1407,1.4019,1.4019,1.4449,1.4669,1.4126,1.4019,1.348,1.2077,1.2295,1.2512,1.2615,1.1755,1.1969,1.3911,1.3156,1.2186,1.1214,1.1647,1.1,0.8937,0.894,0.8491,0.7485,0.5475,0.3465,0.1454,0.0448,0.0,0.0,0.0,0.0,-0.0112,-0.3243,-0.4804,-0.5475,-0.7931,-0.894,-0.894,-0.894,-0.894,-0.894,-0.894,-0.894,-0.894,-0.894,-0.894,-0.894,-0.894,-0.9592,-1.0241,-0.9805,-1.0347,-1.0911,-1.0151,-1.1611,-1.3622,-1.3654,-1.566,-1.765,-1.822,-1.8551,-1.8738,-1.8631,-1.8691,-1.8771,-1.8771,-1.9005,-1.9205,-1.9205,-1.9299,-1.9366,-1.9366,-1.9366,-1.9366,-1.9366,-1.9366,-1.9366,-1.9366,-1.9366,-1.9366,-1.9366,-1.9366,-1.9366,-1.9366,-1.9539,-1.9693,-1.98,-2.016,-2.0461,-2.0675,-2.0862,-2.0955,-2.0955,-2.1056,-2.1109,-2.1109,-2.1109,-2.1109,-0.894,-0.782,-0.6589,-0.6033,-0.3346,-0.0558,-0.0112,0.1564,0.3131,0.3576,0.4467,0.547,0.6478,0.9113,1.1407,1.2398,1.2945,1.3161,1.262,1.2512,1.2186,1.1214,1.1538,1.1864,1.1864,1.1433,1.1755,1.3156,1.2403,1.1647,1.1105,1.1105,1.0457,0.8937,0.894,0.8156,0.6702,0.525,0.3688,0.2235,0.0672,0.0,0.0,0.0,0.0,-0.0112,-0.2683,-0.4023,-0.4693,-0.7706,-0.894,-0.894,-0.894,-0.894,-0.894,-0.894,-0.894,-0.894,-0.894,-0.894,-0.894,-0.894,-0.9592,-1.0143,-0.9325,-0.9669,-1.0247,-0.9525,-1.1473,-1.374,-1.3891,-1.6269,-1.8657,-1.8764,-1.8931,-1.9072,-1.9072,-1.9072,-1.9072,-1.9072,-1.9232,-1.9366,-1.9366,-1.9366,-1.9366,-1.9366,-1.9366,-1.9366,-1.9366,-1.9366,-1.9366,-1.9366,-1.9366,-1.9366,-1.9366,-1.9366,-1.9412,-1.9506,-1.9693,-1.9887,-2.0087,-2.0468,-2.0722,-2.0822,-2.1009,-2.1109,-2.1109,-2.1109,-2.1109,-2.1109,-2.1109,-2.1109,0.0,0.0,0.0,-0.4806,-0.3352,-0.1789,-0.0336,0.0,0.0448,0.1789,0.2124,0.3128,0.6142,0.67,0.7695,1.0554,1.2186,1.262,1.1214,1.1,1.1,1.1,0.9805,1.0021,1.294,1.1864,1.1647,1.3048,1.3161,1.2512,1.1105,1.1,1.0351,0.8937,0.894,0.8156,0.6702,0.525,0.3688,0.2235,0.0672,0.0,0.0,0.0,0.0,-0.0112,-0.1566,-0.3129,-0.4693,-0.7595,-0.8826,-0.894,-0.894,-0.894,-0.894,-0.894,-0.894,-0.894,-0.894,-0.894,-0.894,-0.8944,-0.8947,-0.8974,-0.9117,-0.9161,-0.9191,-0.9344,-1.1557,-1.3942,-1.4065,-1.6529,-1.9011,-1.9299,-1.9366,-1.9366,-1.9366,-1.9366,-1.9366,-1.9366,-1.9366,-1.9366,-1.9366,-1.9366,-1.9366,-1.9366,-1.9366,-1.9366,-1.9366,-1.9366,-1.9366,-1.9366,-1.9366,-1.9366,-1.9366,-1.9372,-1.9499,-1.978,-1.9813,-2.008,-2.0655,-2.0681,-2.0822,-2.1102,-2.1109,-2.1109,-2.1109,-2.1109,-2.1109,-2.1109,-2.1109,-2.1109,-0.7595,0.0,0.0,0.0,0.0,0.0,-0.1454,-0.0784,0.0112,0.056,0.1454,0.2794,0.4804,0.6033,0.7368,0.9258,0.9805,1.0025,0.9592,0.9482,0.9482,0.9482,1.0135,1.0347,1.0131,1.0676,1.0781,1.0131,1.0131,0.9915,0.9482,0.9482,0.9375,0.894,0.894,0.8156,0.6702,0.525,0.3688,0.2235,0.0672,0.0,0.0,0.0,0.0,-0.0112,-0.1566,-0.3129,-0.4695,-0.6478,-0.7931,-0.894,-0.894,-0.894,-0.894,-0.894,-0.894,-0.894,-0.894,-0.894,-0.8957,-0.9059,-0.9093,-0.9123,-0.9273,-0.9317,-0.9351,-0.9503,-1.1866,-1.4787,-1.7298,-1.859,-1.9265,-1.9352,-1.9366,-1.9366,-1.9366,-1.9366,-1.9366,-1.9366,-1.9366,-1.9366,-1.9366,-1.9366,-1.9366,-1.9366,-1.9366,-1.9366,-1.9366,-1.9366,-1.9366,-1.9366,-1.9366,-1.9366,-1.9366,-1.9559,-1.9713,-1.98,-2.0201,-2.0508,-2.0668,-2.0882,-2.1029,-2.1109,-2.1109,-2.1109,-2.1109,-2.1109,-2.1109,-2.1109,-2.1109,-2.1109,-0.782,-0.6144,-0.447,-0.447,0.0,0.0,-0.1119,-0.0672,0.0,0.0,0.0672,0.179,0.3242,0.4803,0.6255,0.7706,0.7931,0.8156,0.8826,0.894,0.9158,0.9699,0.9464,0.9127,0.891,0.9127,0.891,0.8042,0.8602,0.894,0.894,0.8266,0.8266,0.8826,0.8266,0.7595,0.6702,0.525,0.3688,0.2235,0.0672,0.0,0.0,0.0,0.0,0.0,-0.0896,-0.246,-0.4582,-0.5475,-0.7035,-0.894,-0.894,-0.894,-0.894,-0.894,-0.894,-0.8947,-0.9008,-0.9028,-0.9052,-0.9201,-0.9249,-0.9276,-0.9432,-0.9476,-0.9624,-1.048,-1.2994,-1.6076,-1.8719,-1.9366,-1.9366,-1.9366,-1.9366,-1.9366,-1.9366,-1.9366,-1.9366,-1.9366,-1.9366,-1.9366,-1.9366,-1.9366,-1.9366,-1.9366,-1.9366,-1.9366,-1.9366,-1.9366,-1.9366,-1.9366,-1.9366,-1.9419,-1.9539,-1.97,-1.9907,-2.0154,-2.0488,-2.0728,-2.0855,-2.1022,-2.1109,-2.1109,-2.1109,-2.1109,-2.1109,-2.1109,-2.1109,-2.1109,-2.1109,-2.1109,-0.8491,-0.6478,-0.4472,-0.4136,-0.2014,0.0,0.0,0.0,0.0,0.0,0.0,0.0446,0.1891,0.3334,0.4779,0.622,0.645,0.7022,0.8712,0.8605,0.8927,1.0449,0.8131,0.7022,0.8323,0.7241,0.6478,0.67,0.7931,0.8602,0.8602,0.726,0.7149,0.8605,0.726,0.6478,0.6478,0.5027,0.3465,0.19,0.0672,0.0,0.0,0.0,0.0,0.0,0.0,-0.1679,-0.447,-0.447,-0.6255,-0.894,-0.894,-0.894,-0.894,-0.894,-0.895,-0.8981,-0.911,-0.9164,-0.9205,-0.9357,-0.9405,-0.9435,-0.9588,-0.9632,-1.0014,-1.1931,-1.4713,-1.7325,-1.9004,-1.9366,-1.9366,-1.9366,-1.9366,-1.9366,-1.9366,-1.9366,-1.9366,-1.9366,-1.9366,-1.9366,-1.9366,-1.9366,-1.9366,-1.9366,-1.9366,-1.9366,-1.9366,-1.9366,-1.9366,-1.9366,-1.9399,-1.9519,-1.978,-1.986,-2.012,-2.0641,-2.0708,-2.0842,-2.1096,-2.1109,-2.1109,-2.1109,-2.1109,-2.1109,-2.1109,-2.1109,-2.1109,-2.1109,-2.1109,-2.1109,-0.6031,-0.4916,-0.3913,-0.1456,-0.0448,0.0,0.0,0.0,0.0,0.0,0.0,0.0431,0.1933,0.247,0.3112,0.4717,0.4882,0.5829,0.8475,0.6813,0.5917,0.7362,0.6028,0.5025,0.5355,0.5137,0.5475,0.6589,0.6924,0.7146,0.7146,0.5697,0.5586,0.7038,0.5697,0.4916,0.4916,0.3463,0.1901,0.0448,0.0112,0.0,0.0,0.0,0.0,0.0,0.0,-0.1679,-0.447,-0.447,-0.6255,-0.894,-0.894,-0.894,-0.894,-0.894,-0.9011,-0.9117,-0.9144,-0.9235,-0.9361,-0.9513,-0.9564,-0.9591,-0.9737,-0.9781,-1.0382,-1.3278,-1.5548,-1.7325,-1.9004,-1.9366,-1.9366,-1.9366,-1.9366,-1.9366,-1.9366,-1.9366,-1.9366,-1.9366,-1.9366,-1.9366,-1.9366,-1.9366,-1.9366,-1.9366,-1.9366,-1.9366,-1.9366,-1.9366,-1.9366,-1.9366,-1.9579,-1.974,-1.98,-2.0234,-2.0555,-2.0668,-2.0895,-2.1049,-2.1109,-2.1109,-2.1109,-2.1109,-2.1109,-2.1109,-2.1109,-2.1109,-2.1109,-2.1109,-2.1109,-2.1109,-0.514,-0.3911,-0.3017,-0.1455,-0.056,0.0,0.0,0.0,0.0,0.0,0.0,0.0213,0.0959,0.1703,0.2445,0.3186,0.3342,0.414,0.6423,0.5416,0.4806,0.5475,0.4246,0.3353,0.3353,0.3353,0.4023,0.5475,0.5586,0.5586,0.5586,0.4134,0.4023,0.5586,0.4134,0.3353,0.3353,0.2571,0.1454,0.0,0.0,0.0,0.0,0.0,0.0,0.0,0.0,-0.1679,-0.447,-0.447,-0.6255,-0.894,-0.894,-0.8984,-0.9045,-0.9045,-0.914,-0.9276,-0.9354,-0.9432,-0.952,-0.9666,-0.9717,-0.9727,-0.9798,-1.0899,-1.2693,-1.5069,-1.6973,-1.8402,-1.9243,-1.9366,-1.9366,-1.9366,-1.9366,-1.9366,-1.9366,-1.9366,-1.9366,-1.9366,-1.9366,-1.9366,-1.9366,-1.9366,-1.9366,-1.9366,-1.9366,-1.9366,-1.9366,-1.9366,-1.9419,-1.9573,-1.9713,-1.992,-2.0214,-2.0508,-2.0735,-2.0882,-2.1029,-2.1109,-2.1109,-2.1109,-2.1109,-2.1109,-2.1109,-2.1109,-2.1109,-2.1109,-2.1109,-2.1109,-2.1109,-2.1109,-0.4582,-0.3129,-0.2124,-0.1901,-0.0896,0.0,0.0,0.0,0.0,0.0,0.0,0.0,0.0,0.0949,0.179,0.179,0.1817,0.2258,0.3493,0.3583,0.3769,0.4004,0.2678,0.1789,0.1789,0.2013,0.2682,0.3911,0.4024,0.4024,0.4024,0.2572,0.246,0.4023,0.2572,0.1901,0.2235,0.1901,0.1231,0.0,0.0,0.0,0.0,0.0,0.0,0.0,-0.0336,-0.2014,-0.4472,-0.4821,-0.6507,-0.8981,-0.8981,-0.9052,-0.9157,-0.9188,-0.9293,-0.9442,-0.9568,-0.9629,-0.9669,-0.9785,-1.0061,-1.0301,-1.0301,-1.2449,-1.5311,-1.6615,-1.8163,-1.9366,-1.9366,-1.9366,-1.9366,-1.9366,-1.9366,-1.9366,-1.9366,-1.9366,-1.9366,-1.9366,-1.9366,-1.9366,-1.9366,-1.9366,-1.9366,-1.9366,-1.9366,-1.9366,-1.9366,-1.9366,-1.9479,-1.9766,-1.9853,-2.01,-2.0635,-2.0728,-2.0862,-2.1096,-2.1109,-2.1109,-2.1109,-2.1109,-2.1109,-2.1109,-2.1109,-2.1109,-2.1109,-2.1109,-2.1109,-2.1109,-2.1109,-2.1109,-0.324,-0.2347,-0.1901,-0.056,-0.0112,0.0,0.0,0.0,0.0,0.0,0.0,0.0,0.0,0.0,0.0,0.0203,0.0206,0.0313,0.052,0.0529,0.097,0.2294,0.111,0.0224,0.0224,0.1454,0.2235,0.2459,0.2459,0.2459,0.2459,0.1008,0.0896,0.2459,0.1008,0.0896,0.2235,0.0896,0.0112,0.0,0.0,0.0,0.0,0.0,0.0,-0.0112,-0.1343,-0.2907,-0.4587,-0.601,-0.7641,-0.9127,-0.9127,-0.9137,-0.9167,-0.9306,-0.9452,-0.9588,-0.9605,-0.9693,-0.9798,-0.9815,-1.0781,-1.1976,-1.1976,-1.4113,-1.6733,-1.6968,-1.8163,-1.9366,-1.9366,-1.9366,-1.9366,-1.9366,-1.9366,-1.9366,-1.9366,-1.9366,-1.9366,-1.9366,-1.9366,-1.9366,-1.9366,-1.9366,-1.9366,-1.9366,-1.9366,-1.9366,-1.9366,-1.9366,-1.9479,-1.9766,-2.0034,-2.0321,-2.0648,-2.0909,-2.1076,-2.1109,-2.1109,-2.1109,-2.1109,-2.1109,-2.1109,-2.1109,-2.1109,-2.1109,-2.1109,-2.1109,-2.1109,-2.1109,-2.1109,-2.1109,-0.1454,-0.1566,-0.1901,-0.0336,-0.0672,-0.1002,-0.0218,0.0,0.0,0.0,0.0,0.0,0.0,0.0,0.0,0.0,0.0,0.0,0.0,0.0,0.0217,0.0874,0.033,0.0,0.0,0.056,0.0896,0.0896,0.0896,0.0896,0.0896,0.0336,0.0336,0.0896,0.0336,0.0336,0.0896,0.0336,0.0,0.0,0.0,0.0,0.0,0.0,0.0,-0.0112,-0.1566,-0.3145,-0.4761,-0.6273,-0.7821,-0.9293,-0.9384,-0.9418,-0.9425,-0.949,-0.9605,-0.9734,-0.9734,-0.9771,-0.9822,-0.9822,-1.0899,-1.2333,-1.3287,-1.5187,-1.7202,-1.8163,-1.8887,-1.9366,-1.9366,-1.9366,-1.9366,-1.9366,-1.9366,-1.9366,-1.9366,-1.9366,-1.9366,-1.9366,-1.9366,-1.9366,-1.9366,-1.9366,-1.9366,-1.9366,-1.9366,-1.9366,-1.9366,-1.9512,-1.9726,-2.002,-2.0314,-2.0608,-2.0902,-2.1042,-2.1109,-2.1109,-2.1109,-2.1109,-2.1109,-2.1109,-2.1109,-2.1109,-2.1109,-2.1109,-2.1109,-2.1109,-2.1109,-2.1109,-2.1109,-2.1109,-0.1119,-0.1343,-0.1901,-0.0336,-0.0784,-0.1337,-0.022,0.0,0.0,0.0,0.0,0.0,0.0,0.0,0.0,0.0,0.0,0.0,0.0,0.0,0.0,0.0,0.0,0.0,0.0,0.0,0.0,0.0,0.0,0.0,0.0,0.0,0.0,0.0,0.0,0.0,0.0,0.0,0.0,0.0,0.0,0.0,0.0,0.0,-0.0224,-0.0672,-0.2247,-0.3847,-0.538,-0.7044,-0.8405,-0.9459,-0.9608,-0.9666,-0.9666,-0.9666,-0.9734,-0.9822,-0.9822,-1.0061,-1.0422,-1.0422,-1.1856,-1.376,-1.4955,-1.638,-1.7923,-1.912,-1.9366,-1.9366,-1.9366,-1.9366,-1.9366,-1.9366,-1.9366,-1.9366,-1.9366,-1.9366,-1.9366,-1.9366,-1.9366,-1.9366,-1.9366,-1.9366,-1.9366,-1.9366,-1.9366,-1.9366,-1.9366,-1.9619,-1.9913,-2.0201,-2.0501,-2.0795,-2.1082,-2.1109,-2.1109,-2.1109,-2.1109,-2.1109,-2.1109,-2.1109,-2.1109,-2.1109,-2.1109,-2.1109,-2.1109,-2.1109,-2.1109,-2.1109,-2.1109,-2.1109,-0.2904,-0.2124,-0.1901,-0.0336,0.0,-0.0112,0.0,0.0,0.0,0.0,0.0,0.0,0.0,0.0,0.0,0.0,0.0,0.0,0.0,0.0,0.0,0.0,0.0,0.0,0.0,0.0,0.0,0.0,0.0,0.0,0.0,0.0,0.0,0.0,0.0,0.0,0.0,0.0,0.0,0.0,0.0,0.0,0.0,0.0,-0.0784,-0.2237,-0.3862,-0.5486,-0.6992,-0.8759,-0.9598,-0.9615,-0.9758,-0.9815,-0.9815,-0.9815,-0.9819,-0.9822,-0.9822,-1.0781,-1.2097,-1.2097,-1.4232,-1.685,-1.6968,-1.8046,-1.9366,-1.9366,-1.9366,-1.9366,-1.9366,-1.9366,-1.9366,-1.9366,-1.9366,-1.9366,-1.9366,-1.9366,-1.9366,-1.9366,-1.9366,-1.9366,-1.9366,-1.9366,-1.9366,-1.9366,-1.9366,-1.9366,-1.9366,-1.9619,-1.9913,-2.0201,-2.0501,-2.0795,-2.1082,-2.1109,-2.1109,-2.1109,-2.1109,-2.1109,-2.1109,-2.1109,-2.1109,-2.1109,-2.1109,-2.1109,-2.1109,-2.1109,-2.1109,-2.1109,-2.1109,-2.1109,-0.4023,-0.4468,-0.4578,-0.2125,-0.2236,-0.2458,-0.0445,0.0,0.0,0.0,0.0,0.0,0.0,0.0,0.0,0.0,0.0,0.0,0.0,0.0,0.0,0.0,0.0,0.0,0.0,0.0,0.0,0.0,0.0,0.0,0.0,0.0,0.0,0.0,0.0,0.0,0.0,0.0,0.0,0.0,-0.1008,-0.1454,-0.1455,-0.26,-0.3406,-0.3977,-0.5541,-0.6667,-0.733,-0.8966,-0.9663,-0.9754,-0.9802,-0.9822,-0.9822,-0.9822,-0.9822,-0.994,-1.102,-1.2453,-1.3765,-1.3765,-1.5306,-1.6968,-1.6968,-1.8163,-1.9366,-1.9366,-1.9366,-1.9366,-1.9366,-1.9366,-1.9366,-1.9366,-1.9366,-1.9366,-1.9366,-1.9366,-1.9366,-1.9366,-1.9366,-1.9366,-1.9366,-1.9366,-1.9366,-1.9366,-1.9366,-1.9432,-1.9633,-1.9907,-2.0201,-2.0494,-2.0788,-2.1002,-2.1102,-2.1109,-2.1109,-2.1109,-2.1109,-2.1109,-2.1109,-2.1109,-2.1109,-2.1109,-2.1109,-2.1109,-2.1109,-2.1109,-2.1109,-2.1109,-2.1109,-2.1109,-0.5475,-0.5922,-0.6142,-0.3687,-0.3353,-0.313,-0.1231,-0.0334,0.0,0.0,0.0,0.0,0.0,0.0,0.0,0.0,0.0,0.0,0.0,0.0,0.0,0.0,0.0,0.0,0.0,0.0,0.0,0.0,0.0,0.0,0.0,0.0,0.0,0.0,0.0,0.0,0.0,0.0,-0.0224,-0.0784,-0.1789,-0.2466,-0.3156,-0.4213,-0.5049,-0.5658,-0.6691,-0.7608,-0.8286,-0.93,-0.9737,-0.9822,-0.9822,-1.0179,-1.0539,-1.0061,-1.0179,-1.0899,-1.2453,-1.4123,-1.5429,-1.5429,-1.6497,-1.7806,-1.7806,-1.8525,-1.9345,-1.9239,-1.9285,-1.9339,-1.9239,-1.9292,-1.9366,-1.9366,-1.9366,-1.9366,-1.9366,-1.9366,-1.9366,-1.9366,-1.9366,-1.9366,-1.9366,-1.9366,-1.9366,-1.9366,-1.9366,-1.9472,-1.9766,-2.0054,-2.0347,-2.0641,-2.0935,-2.1109,-2.1109,-2.1109,-2.1109,-2.1109,-2.1109,-2.1109,-2.1109,-2.1109,-2.1109,-2.1109,-2.1109,-2.1109,-2.1109,-2.1109,-2.1109,-2.1109,-2.1109,-2.1109]}]]